<?xml version="1.0" encoding="UTF-8" standalone="no" ?>
<gpx xmlns="http://www.topografix.com/GPX/1/1" creator="MapSource 6.11.6" version="1.1" xmlns:xsi="http://www.w3.org/2001/XMLSchema-instance" xsi:schemaLocation="http://www.topografix.com/GPX/1/1 http://www.topografix.com/GPX/1/1/gpx.xsd">

  <metadata>
    <link href="http://www.garmin.com">
      <text>Garmin International</text>
    </link>
    <time>2009-11-20T17:09:33Z</time>
    <bounds maxlat="50.608070" maxlon="6.233085" minlat="50.566065" minlon="6.142804"/>
  </metadata>

  <wpt lat="50.566813" lon="6.189008">
    <ele>621.629600</ele>
    <name>HohesVenn001</name>
    <sym>Waypoint</sym>
    <extensions>
      <gpxx:WaypointExtension xmlns:gpxx="http://www.garmin.com/xmlschemas/GpxExtensions/v3" xmlns:xsi="http://www.w3.org/2001/XMLSchema-instance" xsi:schemaLocation="http://www.garmin.com/xmlschemas/GpxExtensions/v3 http://www.garmin.com/xmlschemas/GpxExtensions/v3/GpxExtensionsv3.xsd">
        <gpxx:DisplayMode>SymbolAndName</gpxx:DisplayMode>
      </gpxx:WaypointExtension>
    </extensions>
  </wpt>

  <wpt lat="50.568392" lon="6.180811">
    <ele>607.690700</ele>
    <name>HohesVenn002</name>
    <sym>Waypoint</sym>
    <extensions>
      <gpxx:WaypointExtension xmlns:gpxx="http://www.garmin.com/xmlschemas/GpxExtensions/v3" xmlns:xsi="http://www.w3.org/2001/XMLSchema-instance" xsi:schemaLocation="http://www.garmin.com/xmlschemas/GpxExtensions/v3 http://www.garmin.com/xmlschemas/GpxExtensions/v3/GpxExtensionsv3.xsd">
        <gpxx:DisplayMode>SymbolAndName</gpxx:DisplayMode>
      </gpxx:WaypointExtension>
    </extensions>
  </wpt>

  <wpt lat="50.603033" lon="6.206231">
    <ele>574.044400</ele>
    <name>HohesVenn003</name>
    <sym>Waypoint</sym>
    <extensions>
      <gpxx:WaypointExtension xmlns:gpxx="http://www.garmin.com/xmlschemas/GpxExtensions/v3" xmlns:xsi="http://www.w3.org/2001/XMLSchema-instance" xsi:schemaLocation="http://www.garmin.com/xmlschemas/GpxExtensions/v3 http://www.garmin.com/xmlschemas/GpxExtensions/v3/GpxExtensionsv3.xsd">
        <gpxx:DisplayMode>SymbolAndName</gpxx:DisplayMode>
      </gpxx:WaypointExtension>
    </extensions>
  </wpt>

  <trk>
    <name> Rundwanderweg Hohes Venn ab Mützenich lang</name>
    <extensions>
      <gpxx:TrackExtension xmlns:gpxx="http://www.garmin.com/xmlschemas/GpxExtensions/v3" xmlns:xsi="http://www.w3.org/2001/XMLSchema-instance" xsi:schemaLocation="http://www.garmin.com/xmlschemas/GpxExtensions/v3 http://www.garmin.com/xmlschemas/GpxExtensions/v3/GpxExtensionsv3.xsd">
        <gpxx:DisplayColor>White</gpxx:DisplayColor>
      </gpxx:TrackExtension>
    </extensions>
    <trkseg>
      <trkpt lat="50.568392" lon="6.180811">
        <ele>607.700000</ele>
        <time>2009-11-20T17:52:38Z</time>
      </trkpt>
      <trkpt lat="50.568395" lon="6.180814">
        <ele>607.700000</ele>
        <time>2009-11-20T17:52:38Z</time>
      </trkpt>
      <trkpt lat="50.568399" lon="6.180817">
        <ele>609.600000</ele>
        <time>2009-11-20T17:52:38Z</time>
      </trkpt>
      <trkpt lat="50.568412" lon="6.180825">
        <ele>611.100000</ele>
        <time>2009-11-20T17:52:40Z</time>
      </trkpt>
      <trkpt lat="50.568300" lon="6.180665">
        <ele>610.100000</ele>
        <time>2009-11-20T17:52:55Z</time>
      </trkpt>
      <trkpt lat="50.568344" lon="6.180743">
        <ele>609.100000</ele>
        <time>2009-11-20T17:53:02Z</time>
      </trkpt>
      <trkpt lat="50.568353" lon="6.180749">
        <ele>610.100000</ele>
        <time>2009-11-20T17:53:03Z</time>
      </trkpt>
      <trkpt lat="50.568372" lon="6.180775">
        <ele>609.600000</ele>
        <time>2009-11-20T17:53:06Z</time>
      </trkpt>
      <trkpt lat="50.568354" lon="6.180848">
        <ele>609.100000</ele>
        <time>2009-11-20T17:53:11Z</time>
      </trkpt>
      <trkpt lat="50.568328" lon="6.180849">
        <ele>609.600000</ele>
        <time>2009-11-20T17:53:14Z</time>
      </trkpt>
      <trkpt lat="50.568224" lon="6.180748">
        <ele>610.600000</ele>
        <time>2009-11-20T17:53:26Z</time>
      </trkpt>
      <trkpt lat="50.568228" lon="6.180737">
        <ele>611.100000</ele>
        <time>2009-11-20T17:53:27Z</time>
      </trkpt>
      <trkpt lat="50.568241" lon="6.180669">
        <ele>610.600000</ele>
        <time>2009-11-20T17:53:32Z</time>
      </trkpt>
      <trkpt lat="50.568141" lon="6.180558">
        <ele>611.500000</ele>
        <time>2009-11-20T17:53:44Z</time>
      </trkpt>
      <trkpt lat="50.568128" lon="6.180505">
        <ele>611.500000</ele>
        <time>2009-11-20T17:53:48Z</time>
      </trkpt>
      <trkpt lat="50.568164" lon="6.180475">
        <ele>611.500000</ele>
        <time>2009-11-20T17:53:52Z</time>
      </trkpt>
      <trkpt lat="50.568358" lon="6.180463">
        <ele>610.600000</ele>
        <time>2009-11-20T17:54:12Z</time>
      </trkpt>
      <trkpt lat="50.568548" lon="6.180453">
        <ele>609.100000</ele>
        <time>2009-11-20T17:54:32Z</time>
      </trkpt>
      <trkpt lat="50.568692" lon="6.180444">
        <ele>609.100000</ele>
        <time>2009-11-20T17:54:47Z</time>
      </trkpt>
      <trkpt lat="50.568843" lon="6.180458">
        <ele>608.700000</ele>
        <time>2009-11-20T17:55:02Z</time>
      </trkpt>
      <trkpt lat="50.568968" lon="6.180476">
        <ele>608.200000</ele>
        <time>2009-11-20T17:55:15Z</time>
      </trkpt>
      <trkpt lat="50.569125" lon="6.180456">
        <ele>608.700000</ele>
        <time>2009-11-20T17:55:31Z</time>
      </trkpt>
      <trkpt lat="50.569198" lon="6.180457">
        <ele>607.200000</ele>
        <time>2009-11-20T17:55:39Z</time>
      </trkpt>
      <trkpt lat="50.569381" lon="6.180454">
        <ele>607.200000</ele>
        <time>2009-11-20T17:55:58Z</time>
      </trkpt>
      <trkpt lat="50.569537" lon="6.180491">
        <ele>605.300000</ele>
        <time>2009-11-20T17:56:14Z</time>
      </trkpt>
      <trkpt lat="50.569563" lon="6.180583">
        <ele>605.800000</ele>
        <time>2009-11-20T17:56:21Z</time>
      </trkpt>
      <trkpt lat="50.569604" lon="6.180822">
        <ele>604.800000</ele>
        <time>2009-11-20T17:56:37Z</time>
      </trkpt>
      <trkpt lat="50.569613" lon="6.180939">
        <ele>604.300000</ele>
        <time>2009-11-20T17:56:45Z</time>
      </trkpt>
      <trkpt lat="50.569595" lon="6.181049">
        <ele>604.300000</ele>
        <time>2009-11-20T17:56:52Z</time>
      </trkpt>
      <trkpt lat="50.569552" lon="6.181129">
        <ele>604.800000</ele>
        <time>2009-11-20T17:56:59Z</time>
      </trkpt>
      <trkpt lat="50.569478" lon="6.181425">
        <ele>605.300000</ele>
        <time>2009-11-20T17:57:20Z</time>
      </trkpt>
      <trkpt lat="50.569487" lon="6.181566">
        <ele>606.700000</ele>
        <time>2009-11-20T17:57:29Z</time>
      </trkpt>
      <trkpt lat="50.569513" lon="6.181601">
        <ele>605.300000</ele>
        <time>2009-11-20T17:57:33Z</time>
      </trkpt>
      <trkpt lat="50.569640" lon="6.181713">
        <ele>604.300000</ele>
        <time>2009-11-20T17:57:48Z</time>
      </trkpt>
      <trkpt lat="50.569725" lon="6.181773">
        <ele>603.800000</ele>
        <time>2009-11-20T17:57:57Z</time>
      </trkpt>
      <trkpt lat="50.569818" lon="6.181910">
        <ele>604.300000</ele>
        <time>2009-11-20T17:58:10Z</time>
      </trkpt>
      <trkpt lat="50.569848" lon="6.182160">
        <ele>603.800000</ele>
        <time>2009-11-20T17:58:27Z</time>
      </trkpt>
      <trkpt lat="50.569821" lon="6.182289">
        <ele>604.300000</ele>
        <time>2009-11-20T17:58:36Z</time>
      </trkpt>
      <trkpt lat="50.569792" lon="6.182331">
        <ele>604.800000</ele>
        <time>2009-11-20T17:58:40Z</time>
      </trkpt>
      <trkpt lat="50.569799" lon="6.182329">
        <ele>604.800000</ele>
        <time>2009-11-20T17:58:41Z</time>
      </trkpt>
      <trkpt lat="50.569834" lon="6.182411">
        <ele>603.800000</ele>
        <time>2009-11-20T17:58:47Z</time>
      </trkpt>
      <trkpt lat="50.569830" lon="6.182497">
        <ele>605.300000</ele>
        <time>2009-11-20T17:58:53Z</time>
      </trkpt>
      <trkpt lat="50.569858" lon="6.182585">
        <ele>605.300000</ele>
        <time>2009-11-20T17:58:59Z</time>
      </trkpt>
      <trkpt lat="50.569893" lon="6.182582">
        <ele>603.800000</ele>
        <time>2009-11-20T17:59:03Z</time>
      </trkpt>
      <trkpt lat="50.569898" lon="6.182627">
        <ele>604.800000</ele>
        <time>2009-11-20T17:59:06Z</time>
      </trkpt>
      <trkpt lat="50.569906" lon="6.182801">
        <ele>605.300000</ele>
        <time>2009-11-20T17:59:17Z</time>
      </trkpt>
      <trkpt lat="50.569959" lon="6.183036">
        <ele>603.800000</ele>
        <time>2009-11-20T17:59:34Z</time>
      </trkpt>
      <trkpt lat="50.570019" lon="6.183450">
        <ele>604.300000</ele>
        <time>2009-11-20T18:00:01Z</time>
      </trkpt>
      <trkpt lat="50.570112" lon="6.183680">
        <ele>603.400000</ele>
        <time>2009-11-20T18:00:19Z</time>
      </trkpt>
      <trkpt lat="50.570197" lon="6.183903">
        <ele>604.300000</ele>
        <time>2009-11-20T18:00:36Z</time>
      </trkpt>
      <trkpt lat="50.570289" lon="6.184106">
        <ele>604.800000</ele>
        <time>2009-11-20T18:00:53Z</time>
      </trkpt>
      <trkpt lat="50.570390" lon="6.184311">
        <ele>603.800000</ele>
        <time>2009-11-20T18:01:10Z</time>
      </trkpt>
      <trkpt lat="50.570540" lon="6.184448">
        <ele>603.800000</ele>
        <time>2009-11-20T18:01:27Z</time>
      </trkpt>
      <trkpt lat="50.570736" lon="6.184421">
        <ele>602.400000</ele>
        <time>2009-11-20T18:01:48Z</time>
      </trkpt>
      <trkpt lat="50.570908" lon="6.184349">
        <ele>601.400000</ele>
        <time>2009-11-20T18:02:06Z</time>
      </trkpt>
      <trkpt lat="50.571008" lon="6.184298">
        <ele>602.400000</ele>
        <time>2009-11-20T18:02:17Z</time>
      </trkpt>
      <trkpt lat="50.571020" lon="6.184296">
        <ele>601.400000</ele>
        <time>2009-11-20T18:02:18Z</time>
      </trkpt>
      <trkpt lat="50.571040" lon="6.184288">
        <ele>600.000000</ele>
        <time>2009-11-20T18:02:20Z</time>
      </trkpt>
      <trkpt lat="50.571273" lon="6.184121">
        <ele>600.000000</ele>
        <time>2009-11-20T18:02:47Z</time>
      </trkpt>
      <trkpt lat="50.571458" lon="6.184152">
        <ele>599.500000</ele>
        <time>2009-11-20T18:03:06Z</time>
      </trkpt>
      <trkpt lat="50.571582" lon="6.184253">
        <ele>598.600000</ele>
        <time>2009-11-20T18:03:20Z</time>
      </trkpt>
      <trkpt lat="50.571700" lon="6.184328">
        <ele>597.600000</ele>
        <time>2009-11-20T18:03:33Z</time>
      </trkpt>
      <trkpt lat="50.571830" lon="6.184392">
        <ele>598.100000</ele>
        <time>2009-11-20T18:03:47Z</time>
      </trkpt>
      <trkpt lat="50.571873" lon="6.184404">
        <ele>597.600000</ele>
        <time>2009-11-20T18:03:52Z</time>
      </trkpt>
      <trkpt lat="50.571923" lon="6.184424">
        <ele>597.600000</ele>
        <time>2009-11-20T18:03:57Z</time>
      </trkpt>
      <trkpt lat="50.572058" lon="6.184516">
        <ele>597.600000</ele>
        <time>2009-11-20T18:04:12Z</time>
      </trkpt>
      <trkpt lat="50.572144" lon="6.184668">
        <ele>597.100000</ele>
        <time>2009-11-20T18:04:26Z</time>
      </trkpt>
      <trkpt lat="50.572145" lon="6.184737">
        <ele>597.100000</ele>
        <time>2009-11-20T18:04:30Z</time>
      </trkpt>
      <trkpt lat="50.572170" lon="6.184857">
        <ele>597.100000</ele>
        <time>2009-11-20T18:04:39Z</time>
      </trkpt>
      <trkpt lat="50.572200" lon="6.184934">
        <ele>597.100000</ele>
        <time>2009-11-20T18:04:44Z</time>
      </trkpt>
      <trkpt lat="50.572372" lon="6.184891">
        <ele>596.600000</ele>
        <time>2009-11-20T18:05:02Z</time>
      </trkpt>
      <trkpt lat="50.572589" lon="6.184734">
        <ele>595.700000</ele>
        <time>2009-11-20T18:05:27Z</time>
      </trkpt>
      <trkpt lat="50.572763" lon="6.184617">
        <ele>594.700000</ele>
        <time>2009-11-20T18:05:46Z</time>
      </trkpt>
      <trkpt lat="50.572920" lon="6.184808">
        <ele>594.200000</ele>
        <time>2009-11-20T18:06:07Z</time>
      </trkpt>
      <trkpt lat="50.573022" lon="6.184932">
        <ele>594.200000</ele>
        <time>2009-11-20T18:06:20Z</time>
      </trkpt>
      <trkpt lat="50.573046" lon="6.184923">
        <ele>594.200000</ele>
        <time>2009-11-20T18:06:23Z</time>
      </trkpt>
      <trkpt lat="50.573081" lon="6.184907">
        <ele>593.800000</ele>
        <time>2009-11-20T18:06:27Z</time>
      </trkpt>
      <trkpt lat="50.573108" lon="6.184868">
        <ele>593.300000</ele>
        <time>2009-11-20T18:06:30Z</time>
      </trkpt>
      <trkpt lat="50.573273" lon="6.184766">
        <ele>593.800000</ele>
        <time>2009-11-20T18:06:49Z</time>
      </trkpt>
      <trkpt lat="50.573433" lon="6.184768">
        <ele>593.300000</ele>
        <time>2009-11-20T18:07:05Z</time>
      </trkpt>
      <trkpt lat="50.573685" lon="6.184802">
        <ele>592.800000</ele>
        <time>2009-11-20T18:07:31Z</time>
      </trkpt>
      <trkpt lat="50.573698" lon="6.184795">
        <ele>592.300000</ele>
        <time>2009-11-20T18:07:33Z</time>
      </trkpt>
      <trkpt lat="50.573847" lon="6.184479">
        <ele>591.800000</ele>
        <time>2009-11-20T18:07:58Z</time>
      </trkpt>
      <trkpt lat="50.573863" lon="6.184446">
        <ele>591.800000</ele>
        <time>2009-11-20T18:08:01Z</time>
      </trkpt>
      <trkpt lat="50.573882" lon="6.184085">
        <ele>590.900000</ele>
        <time>2009-11-20T18:08:25Z</time>
      </trkpt>
      <trkpt lat="50.573885" lon="6.183843">
        <ele>590.400000</ele>
        <time>2009-11-20T18:08:41Z</time>
      </trkpt>
      <trkpt lat="50.573991" lon="6.183822">
        <ele>589.400000</ele>
        <time>2009-11-20T18:08:52Z</time>
      </trkpt>
      <trkpt lat="50.574232" lon="6.183732">
        <ele>588.900000</ele>
        <time>2009-11-20T18:09:17Z</time>
      </trkpt>
      <trkpt lat="50.574419" lon="6.183680">
        <ele>588.500000</ele>
        <time>2009-11-20T18:09:37Z</time>
      </trkpt>
      <trkpt lat="50.574640" lon="6.183663">
        <ele>587.500000</ele>
        <time>2009-11-20T18:10:00Z</time>
      </trkpt>
      <trkpt lat="50.574635" lon="6.183673">
        <ele>587.500000</ele>
        <time>2009-11-20T18:10:00Z</time>
      </trkpt>
      <trkpt lat="50.574648" lon="6.183677">
        <ele>587.500000</ele>
        <time>2009-11-20T18:10:02Z</time>
      </trkpt>
      <trkpt lat="50.574675" lon="6.183658">
        <ele>587.000000</ele>
        <time>2009-11-20T18:10:05Z</time>
      </trkpt>
      <trkpt lat="50.574776" lon="6.183604">
        <ele>587.500000</ele>
        <time>2009-11-20T18:10:16Z</time>
      </trkpt>
      <trkpt lat="50.574794" lon="6.183602">
        <ele>587.500000</ele>
        <time>2009-11-20T18:10:18Z</time>
      </trkpt>
      <trkpt lat="50.574860" lon="6.183869">
        <ele>588.000000</ele>
        <time>2009-11-20T18:10:36Z</time>
      </trkpt>
      <trkpt lat="50.574855" lon="6.183838">
        <ele>587.500000</ele>
        <time>2009-11-20T18:10:38Z</time>
      </trkpt>
      <trkpt lat="50.574776" lon="6.183566">
        <ele>587.500000</ele>
        <time>2009-11-20T18:10:58Z</time>
      </trkpt>
      <trkpt lat="50.574851" lon="6.183171">
        <ele>588.000000</ele>
        <time>2009-11-20T18:11:25Z</time>
      </trkpt>
      <trkpt lat="50.574926" lon="6.182736">
        <ele>588.500000</ele>
        <time>2009-11-20T18:11:55Z</time>
      </trkpt>
      <trkpt lat="50.575051" lon="6.182667">
        <ele>587.000000</ele>
        <time>2009-11-20T18:12:08Z</time>
      </trkpt>
      <trkpt lat="50.575128" lon="6.182332">
        <ele>587.500000</ele>
        <time>2009-11-20T18:12:32Z</time>
      </trkpt>
      <trkpt lat="50.575183" lon="6.182054">
        <ele>584.100000</ele>
        <time>2009-11-20T18:12:51Z</time>
      </trkpt>
      <trkpt lat="50.575188" lon="6.182034">
        <ele>587.500000</ele>
        <time>2009-11-20T18:12:52Z</time>
      </trkpt>
      <trkpt lat="50.575195" lon="6.181997">
        <ele>588.900000</ele>
        <time>2009-11-20T18:12:55Z</time>
      </trkpt>
      <trkpt lat="50.575195" lon="6.181996">
        <ele>588.500000</ele>
        <time>2009-11-20T18:12:55Z</time>
      </trkpt>
      <trkpt lat="50.575233" lon="6.181801">
        <ele>588.900000</ele>
        <time>2009-11-20T18:13:08Z</time>
      </trkpt>
      <trkpt lat="50.575369" lon="6.181561">
        <ele>588.900000</ele>
        <time>2009-11-20T18:13:29Z</time>
      </trkpt>
      <trkpt lat="50.575563" lon="6.181421">
        <ele>589.400000</ele>
        <time>2009-11-20T18:13:51Z</time>
      </trkpt>
      <trkpt lat="50.575842" lon="6.181281">
        <ele>590.400000</ele>
        <time>2009-11-20T18:14:21Z</time>
      </trkpt>
      <trkpt lat="50.575853" lon="6.181279">
        <ele>588.900000</ele>
        <time>2009-11-20T18:14:22Z</time>
      </trkpt>
      <trkpt lat="50.575854" lon="6.181281">
        <ele>589.400000</ele>
        <time>2009-11-20T18:14:22Z</time>
      </trkpt>
      <trkpt lat="50.575920" lon="6.181255">
        <ele>588.500000</ele>
        <time>2009-11-20T18:14:29Z</time>
      </trkpt>
      <trkpt lat="50.576192" lon="6.181179">
        <ele>588.900000</ele>
        <time>2009-11-20T18:14:58Z</time>
      </trkpt>
      <trkpt lat="50.576434" lon="6.181081">
        <ele>589.400000</ele>
        <time>2009-11-20T18:15:24Z</time>
      </trkpt>
      <trkpt lat="50.576688" lon="6.181051">
        <ele>588.900000</ele>
        <time>2009-11-20T18:15:50Z</time>
      </trkpt>
      <trkpt lat="50.576899" lon="6.180894">
        <ele>588.900000</ele>
        <time>2009-11-20T18:16:14Z</time>
      </trkpt>
      <trkpt lat="50.577123" lon="6.180839">
        <ele>588.900000</ele>
        <time>2009-11-20T18:16:37Z</time>
      </trkpt>
      <trkpt lat="50.577191" lon="6.180838">
        <ele>588.500000</ele>
        <time>2009-11-20T18:16:44Z</time>
      </trkpt>
      <trkpt lat="50.577219" lon="6.180910">
        <ele>588.500000</ele>
        <time>2009-11-20T18:16:50Z</time>
      </trkpt>
      <trkpt lat="50.577335" lon="6.181106">
        <ele>588.500000</ele>
        <time>2009-11-20T18:17:07Z</time>
      </trkpt>
      <trkpt lat="50.577424" lon="6.181186">
        <ele>587.500000</ele>
        <time>2009-11-20T18:17:18Z</time>
      </trkpt>
      <trkpt lat="50.577557" lon="6.181374">
        <ele>585.600000</ele>
        <time>2009-11-20T18:17:36Z</time>
      </trkpt>
      <trkpt lat="50.577609" lon="6.181428">
        <ele>585.100000</ele>
        <time>2009-11-20T18:17:43Z</time>
      </trkpt>
      <trkpt lat="50.577626" lon="6.181473">
        <ele>585.600000</ele>
        <time>2009-11-20T18:17:46Z</time>
      </trkpt>
      <trkpt lat="50.577643" lon="6.181473">
        <ele>585.600000</ele>
        <time>2009-11-20T18:17:48Z</time>
      </trkpt>
      <trkpt lat="50.577663" lon="6.181446">
        <ele>585.100000</ele>
        <time>2009-11-20T18:17:51Z</time>
      </trkpt>
      <trkpt lat="50.577709" lon="6.181411">
        <ele>585.100000</ele>
        <time>2009-11-20T18:17:56Z</time>
      </trkpt>
      <trkpt lat="50.577763" lon="6.181314">
        <ele>585.600000</ele>
        <time>2009-11-20T18:18:04Z</time>
      </trkpt>
      <trkpt lat="50.577788" lon="6.180872">
        <ele>586.100000</ele>
        <time>2009-11-20T18:18:34Z</time>
      </trkpt>
      <trkpt lat="50.577801" lon="6.180556">
        <ele>587.500000</ele>
        <time>2009-11-20T18:18:54Z</time>
      </trkpt>
      <trkpt lat="50.577877" lon="6.180511">
        <ele>587.000000</ele>
        <time>2009-11-20T18:19:03Z</time>
      </trkpt>
      <trkpt lat="50.578007" lon="6.180560">
        <ele>587.500000</ele>
        <time>2009-11-20T18:19:16Z</time>
      </trkpt>
      <trkpt lat="50.578216" lon="6.180656">
        <ele>586.500000</ele>
        <time>2009-11-20T18:19:39Z</time>
      </trkpt>
      <trkpt lat="50.578438" lon="6.180766">
        <ele>586.500000</ele>
        <time>2009-11-20T18:20:03Z</time>
      </trkpt>
      <trkpt lat="50.578555" lon="6.180835">
        <ele>585.600000</ele>
        <time>2009-11-20T18:20:16Z</time>
      </trkpt>
      <trkpt lat="50.578579" lon="6.180848">
        <ele>586.100000</ele>
        <time>2009-11-20T18:20:18Z</time>
      </trkpt>
      <trkpt lat="50.578608" lon="6.180835">
        <ele>584.600000</ele>
        <time>2009-11-20T18:20:21Z</time>
      </trkpt>
      <trkpt lat="50.578652" lon="6.180798">
        <ele>585.100000</ele>
        <time>2009-11-20T18:20:27Z</time>
      </trkpt>
      <trkpt lat="50.578720" lon="6.180836">
        <ele>585.600000</ele>
        <time>2009-11-20T18:20:34Z</time>
      </trkpt>
      <trkpt lat="50.578742" lon="6.180848">
        <ele>585.100000</ele>
        <time>2009-11-20T18:20:36Z</time>
      </trkpt>
      <trkpt lat="50.578903" lon="6.180932">
        <ele>584.600000</ele>
        <time>2009-11-20T18:20:54Z</time>
      </trkpt>
      <trkpt lat="50.579064" lon="6.180992">
        <ele>584.100000</ele>
        <time>2009-11-20T18:21:11Z</time>
      </trkpt>
      <trkpt lat="50.579239" lon="6.180996">
        <ele>584.100000</ele>
        <time>2009-11-20T18:21:29Z</time>
      </trkpt>
      <trkpt lat="50.579325" lon="6.180992">
        <ele>584.100000</ele>
        <time>2009-11-20T18:21:38Z</time>
      </trkpt>
      <trkpt lat="50.579521" lon="6.180964">
        <ele>584.600000</ele>
        <time>2009-11-20T18:21:58Z</time>
      </trkpt>
      <trkpt lat="50.579697" lon="6.180938">
        <ele>584.100000</ele>
        <time>2009-11-20T18:22:16Z</time>
      </trkpt>
      <trkpt lat="50.579925" lon="6.180881">
        <ele>582.700000</ele>
        <time>2009-11-20T18:22:40Z</time>
      </trkpt>
      <trkpt lat="50.580114" lon="6.180850">
        <ele>582.700000</ele>
        <time>2009-11-20T18:23:00Z</time>
      </trkpt>
      <trkpt lat="50.580296" lon="6.180814">
        <ele>582.200000</ele>
        <time>2009-11-20T18:23:19Z</time>
      </trkpt>
      <trkpt lat="50.580505" lon="6.180790">
        <ele>580.800000</ele>
        <time>2009-11-20T18:23:40Z</time>
      </trkpt>
      <trkpt lat="50.580611" lon="6.180745">
        <ele>580.300000</ele>
        <time>2009-11-20T18:23:52Z</time>
      </trkpt>
      <trkpt lat="50.580753" lon="6.180733">
        <ele>578.900000</ele>
        <time>2009-11-20T18:24:06Z</time>
      </trkpt>
      <trkpt lat="50.580959" lon="6.180698">
        <ele>577.900000</ele>
        <time>2009-11-20T18:24:28Z</time>
      </trkpt>
      <trkpt lat="50.581180" lon="6.180686">
        <ele>577.400000</ele>
        <time>2009-11-20T18:24:50Z</time>
      </trkpt>
      <trkpt lat="50.581329" lon="6.180626">
        <ele>577.400000</ele>
        <time>2009-11-20T18:25:06Z</time>
      </trkpt>
      <trkpt lat="50.581496" lon="6.180604">
        <ele>576.400000</ele>
        <time>2009-11-20T18:25:24Z</time>
      </trkpt>
      <trkpt lat="50.581579" lon="6.180606">
        <ele>576.000000</ele>
        <time>2009-11-20T18:25:32Z</time>
      </trkpt>
      <trkpt lat="50.581587" lon="6.180594">
        <ele>575.000000</ele>
        <time>2009-11-20T18:25:33Z</time>
      </trkpt>
      <trkpt lat="50.581596" lon="6.180594">
        <ele>575.500000</ele>
        <time>2009-11-20T18:25:34Z</time>
      </trkpt>
      <trkpt lat="50.581839" lon="6.180493">
        <ele>575.000000</ele>
        <time>2009-11-20T18:26:00Z</time>
      </trkpt>
      <trkpt lat="50.582186" lon="6.180374">
        <ele>573.600000</ele>
        <time>2009-11-20T18:26:37Z</time>
      </trkpt>
      <trkpt lat="50.582440" lon="6.180239">
        <ele>573.100000</ele>
        <time>2009-11-20T18:27:04Z</time>
      </trkpt>
      <trkpt lat="50.582597" lon="6.180108">
        <ele>572.100000</ele>
        <time>2009-11-20T18:27:23Z</time>
      </trkpt>
      <trkpt lat="50.582799" lon="6.179947">
        <ele>571.200000</ele>
        <time>2009-11-20T18:27:46Z</time>
      </trkpt>
      <trkpt lat="50.583037" lon="6.179754">
        <ele>569.700000</ele>
        <time>2009-11-20T18:28:14Z</time>
      </trkpt>
      <trkpt lat="50.583310" lon="6.179525">
        <ele>567.800000</ele>
        <time>2009-11-20T18:28:45Z</time>
      </trkpt>
      <trkpt lat="50.583582" lon="6.179299">
        <ele>567.300000</ele>
        <time>2009-11-20T18:29:17Z</time>
      </trkpt>
      <trkpt lat="50.583654" lon="6.179241">
        <ele>566.400000</ele>
        <time>2009-11-20T18:29:25Z</time>
      </trkpt>
      <trkpt lat="50.583660" lon="6.179257">
        <ele>567.300000</ele>
        <time>2009-11-20T18:29:27Z</time>
      </trkpt>
      <trkpt lat="50.583677" lon="6.179243">
        <ele>567.300000</ele>
        <time>2009-11-20T18:29:29Z</time>
      </trkpt>
      <trkpt lat="50.583718" lon="6.179203">
        <ele>566.800000</ele>
        <time>2009-11-20T18:29:34Z</time>
      </trkpt>
      <trkpt lat="50.583999" lon="6.178961">
        <ele>566.400000</ele>
        <time>2009-11-20T18:30:07Z</time>
      </trkpt>
      <trkpt lat="50.584293" lon="6.178712">
        <ele>564.400000</ele>
        <time>2009-11-20T18:30:41Z</time>
      </trkpt>
      <trkpt lat="50.584588" lon="6.178473">
        <ele>563.500000</ele>
        <time>2009-11-20T18:31:15Z</time>
      </trkpt>
      <trkpt lat="50.584910" lon="6.178218">
        <ele>562.500000</ele>
        <time>2009-11-20T18:31:52Z</time>
      </trkpt>
      <trkpt lat="50.585246" lon="6.177942">
        <ele>562.500000</ele>
        <time>2009-11-20T18:32:31Z</time>
      </trkpt>
      <trkpt lat="50.585487" lon="6.177745">
        <ele>561.500000</ele>
        <time>2009-11-20T18:32:59Z</time>
      </trkpt>
      <trkpt lat="50.585778" lon="6.177492">
        <ele>561.500000</ele>
        <time>2009-11-20T18:33:34Z</time>
      </trkpt>
      <trkpt lat="50.586004" lon="6.177307">
        <ele>559.100000</ele>
        <time>2009-11-20T18:34:00Z</time>
      </trkpt>
      <trkpt lat="50.586152" lon="6.177183">
        <ele>559.100000</ele>
        <time>2009-11-20T18:34:17Z</time>
      </trkpt>
      <trkpt lat="50.586311" lon="6.177025">
        <ele>559.100000</ele>
        <time>2009-11-20T18:34:37Z</time>
      </trkpt>
      <trkpt lat="50.586486" lon="6.176831">
        <ele>557.200000</ele>
        <time>2009-11-20T18:34:59Z</time>
      </trkpt>
      <trkpt lat="50.586616" lon="6.176617">
        <ele>557.200000</ele>
        <time>2009-11-20T18:35:18Z</time>
      </trkpt>
      <trkpt lat="50.586727" lon="6.176416">
        <ele>557.200000</ele>
        <time>2009-11-20T18:35:36Z</time>
      </trkpt>
      <trkpt lat="50.586927" lon="6.176138">
        <ele>555.800000</ele>
        <time>2009-11-20T18:36:03Z</time>
      </trkpt>
      <trkpt lat="50.587155" lon="6.175823">
        <ele>553.900000</ele>
        <time>2009-11-20T18:36:34Z</time>
      </trkpt>
      <trkpt lat="50.587379" lon="6.175491">
        <ele>553.400000</ele>
        <time>2009-11-20T18:37:06Z</time>
      </trkpt>
      <trkpt lat="50.587600" lon="6.175139">
        <ele>551.900000</ele>
        <time>2009-11-20T18:37:38Z</time>
      </trkpt>
      <trkpt lat="50.587797" lon="6.174842">
        <ele>550.000000</ele>
        <time>2009-11-20T18:38:06Z</time>
      </trkpt>
      <trkpt lat="50.587990" lon="6.174546">
        <ele>548.600000</ele>
        <time>2009-11-20T18:38:34Z</time>
      </trkpt>
      <trkpt lat="50.588214" lon="6.174220">
        <ele>548.100000</ele>
        <time>2009-11-20T18:39:06Z</time>
      </trkpt>
      <trkpt lat="50.588451" lon="6.173885">
        <ele>546.200000</ele>
        <time>2009-11-20T18:39:39Z</time>
      </trkpt>
      <trkpt lat="50.588662" lon="6.173611">
        <ele>545.200000</ele>
        <time>2009-11-20T18:40:07Z</time>
      </trkpt>
      <trkpt lat="50.588911" lon="6.173275">
        <ele>545.200000</ele>
        <time>2009-11-20T18:40:40Z</time>
      </trkpt>
      <trkpt lat="50.589161" lon="6.172920">
        <ele>544.200000</ele>
        <time>2009-11-20T18:41:15Z</time>
      </trkpt>
      <trkpt lat="50.589337" lon="6.172629">
        <ele>542.300000</ele>
        <time>2009-11-20T18:41:42Z</time>
      </trkpt>
      <trkpt lat="50.589492" lon="6.172361">
        <ele>541.400000</ele>
        <time>2009-11-20T18:42:05Z</time>
      </trkpt>
      <trkpt lat="50.589661" lon="6.172086">
        <ele>540.900000</ele>
        <time>2009-11-20T18:42:30Z</time>
      </trkpt>
      <trkpt lat="50.589821" lon="6.171813">
        <ele>539.400000</ele>
        <time>2009-11-20T18:42:55Z</time>
      </trkpt>
      <trkpt lat="50.590007" lon="6.171513">
        <ele>539.000000</ele>
        <time>2009-11-20T18:43:22Z</time>
      </trkpt>
      <trkpt lat="50.590160" lon="6.171259">
        <ele>538.000000</ele>
        <time>2009-11-20T18:43:45Z</time>
      </trkpt>
      <trkpt lat="50.590318" lon="6.171009">
        <ele>537.000000</ele>
        <time>2009-11-20T18:44:08Z</time>
      </trkpt>
      <trkpt lat="50.590489" lon="6.170717">
        <ele>536.100000</ele>
        <time>2009-11-20T18:44:34Z</time>
      </trkpt>
      <trkpt lat="50.590630" lon="6.170489">
        <ele>534.600000</ele>
        <time>2009-11-20T18:44:55Z</time>
      </trkpt>
      <trkpt lat="50.590770" lon="6.170294">
        <ele>534.200000</ele>
        <time>2009-11-20T18:45:14Z</time>
      </trkpt>
      <trkpt lat="50.590842" lon="6.170306">
        <ele>534.200000</ele>
        <time>2009-11-20T18:45:22Z</time>
      </trkpt>
      <trkpt lat="50.590882" lon="6.170343">
        <ele>533.200000</ele>
        <time>2009-11-20T18:45:26Z</time>
      </trkpt>
      <trkpt lat="50.590938" lon="6.170397">
        <ele>532.700000</ele>
        <time>2009-11-20T18:45:33Z</time>
      </trkpt>
      <trkpt lat="50.590875" lon="6.170413">
        <ele>532.700000</ele>
        <time>2009-11-20T18:45:40Z</time>
      </trkpt>
      <trkpt lat="50.590871" lon="6.170329">
        <ele>533.700000</ele>
        <time>2009-11-20T18:45:45Z</time>
      </trkpt>
      <trkpt lat="50.591019" lon="6.170072">
        <ele>532.700000</ele>
        <time>2009-11-20T18:46:08Z</time>
      </trkpt>
      <trkpt lat="50.591114" lon="6.169959">
        <ele>532.200000</ele>
        <time>2009-11-20T18:46:20Z</time>
      </trkpt>
      <trkpt lat="50.591257" lon="6.169770">
        <ele>531.700000</ele>
        <time>2009-11-20T18:46:39Z</time>
      </trkpt>
      <trkpt lat="50.591380" lon="6.169536">
        <ele>529.800000</ele>
        <time>2009-11-20T18:46:59Z</time>
      </trkpt>
      <trkpt lat="50.591441" lon="6.169342">
        <ele>529.300000</ele>
        <time>2009-11-20T18:47:13Z</time>
      </trkpt>
      <trkpt lat="50.591463" lon="6.169290">
        <ele>527.900000</ele>
        <time>2009-11-20T18:47:18Z</time>
      </trkpt>
      <trkpt lat="50.591517" lon="6.169242">
        <ele>529.300000</ele>
        <time>2009-11-20T18:47:24Z</time>
      </trkpt>
      <trkpt lat="50.591503" lon="6.169251">
        <ele>529.800000</ele>
        <time>2009-11-20T18:47:26Z</time>
      </trkpt>
      <trkpt lat="50.591513" lon="6.169211">
        <ele>530.300000</ele>
        <time>2009-11-20T18:47:28Z</time>
      </trkpt>
      <trkpt lat="50.591640" lon="6.169016">
        <ele>527.900000</ele>
        <time>2009-11-20T18:47:47Z</time>
      </trkpt>
      <trkpt lat="50.591707" lon="6.168928">
        <ele>527.400000</ele>
        <time>2009-11-20T18:47:56Z</time>
      </trkpt>
      <trkpt lat="50.591705" lon="6.168895">
        <ele>526.500000</ele>
        <time>2009-11-20T18:47:58Z</time>
      </trkpt>
      <trkpt lat="50.591673" lon="6.168869">
        <ele>526.000000</ele>
        <time>2009-11-20T18:48:02Z</time>
      </trkpt>
      <trkpt lat="50.591697" lon="6.168855">
        <ele>526.900000</ele>
        <time>2009-11-20T18:48:04Z</time>
      </trkpt>
      <trkpt lat="50.591689" lon="6.168804">
        <ele>527.400000</ele>
        <time>2009-11-20T18:48:08Z</time>
      </trkpt>
      <trkpt lat="50.591717" lon="6.168714">
        <ele>527.400000</ele>
        <time>2009-11-20T18:48:14Z</time>
      </trkpt>
      <trkpt lat="50.591829" lon="6.168712">
        <ele>527.400000</ele>
        <time>2009-11-20T18:48:26Z</time>
      </trkpt>
      <trkpt lat="50.591840" lon="6.168740">
        <ele>527.900000</ele>
        <time>2009-11-20T18:48:28Z</time>
      </trkpt>
      <trkpt lat="50.591847" lon="6.168844">
        <ele>527.900000</ele>
        <time>2009-11-20T18:48:35Z</time>
      </trkpt>
      <trkpt lat="50.591944" lon="6.168854">
        <ele>527.900000</ele>
        <time>2009-11-20T18:48:45Z</time>
      </trkpt>
      <trkpt lat="50.592095" lon="6.168812">
        <ele>528.900000</ele>
        <time>2009-11-20T18:49:01Z</time>
      </trkpt>
      <trkpt lat="50.592266" lon="6.168811">
        <ele>528.900000</ele>
        <time>2009-11-20T18:49:18Z</time>
      </trkpt>
      <trkpt lat="50.592488" lon="6.168795">
        <ele>528.400000</ele>
        <time>2009-11-20T18:49:41Z</time>
      </trkpt>
      <trkpt lat="50.592684" lon="6.168776">
        <ele>528.900000</ele>
        <time>2009-11-20T18:50:01Z</time>
      </trkpt>
      <trkpt lat="50.592821" lon="6.168681">
        <ele>529.800000</ele>
        <time>2009-11-20T18:50:17Z</time>
      </trkpt>
      <trkpt lat="50.592951" lon="6.168529">
        <ele>529.800000</ele>
        <time>2009-11-20T18:50:33Z</time>
      </trkpt>
      <trkpt lat="50.593030" lon="6.168222">
        <ele>528.900000</ele>
        <time>2009-11-20T18:50:55Z</time>
      </trkpt>
      <trkpt lat="50.593101" lon="6.167909">
        <ele>528.900000</ele>
        <time>2009-11-20T18:51:17Z</time>
      </trkpt>
      <trkpt lat="50.593107" lon="6.167890">
        <ele>529.300000</ele>
        <time>2009-11-20T18:51:18Z</time>
      </trkpt>
      <trkpt lat="50.593130" lon="6.167471">
        <ele>529.800000</ele>
        <time>2009-11-20T18:51:46Z</time>
      </trkpt>
      <trkpt lat="50.593157" lon="6.167117">
        <ele>530.300000</ele>
        <time>2009-11-20T18:52:09Z</time>
      </trkpt>
      <trkpt lat="50.593187" lon="6.166834">
        <ele>529.800000</ele>
        <time>2009-11-20T18:52:28Z</time>
      </trkpt>
      <trkpt lat="50.593252" lon="6.166502">
        <ele>530.800000</ele>
        <time>2009-11-20T18:52:51Z</time>
      </trkpt>
      <trkpt lat="50.593406" lon="6.166300">
        <ele>531.300000</ele>
        <time>2009-11-20T18:53:11Z</time>
      </trkpt>
      <trkpt lat="50.593480" lon="6.166273">
        <ele>531.300000</ele>
        <time>2009-11-20T18:53:19Z</time>
      </trkpt>
      <trkpt lat="50.593561" lon="6.166239">
        <ele>530.800000</ele>
        <time>2009-11-20T18:53:28Z</time>
      </trkpt>
      <trkpt lat="50.593581" lon="6.166241">
        <ele>530.800000</ele>
        <time>2009-11-20T18:53:30Z</time>
      </trkpt>
      <trkpt lat="50.593717" lon="6.166169">
        <ele>532.700000</ele>
        <time>2009-11-20T18:53:45Z</time>
      </trkpt>
      <trkpt lat="50.593743" lon="6.166166">
        <ele>532.200000</ele>
        <time>2009-11-20T18:53:47Z</time>
      </trkpt>
      <trkpt lat="50.593772" lon="6.166139">
        <ele>532.700000</ele>
        <time>2009-11-20T18:53:51Z</time>
      </trkpt>
      <trkpt lat="50.593802" lon="6.166131">
        <ele>532.200000</ele>
        <time>2009-11-20T18:53:54Z</time>
      </trkpt>
      <trkpt lat="50.593937" lon="6.166047">
        <ele>533.200000</ele>
        <time>2009-11-20T18:54:09Z</time>
      </trkpt>
      <trkpt lat="50.594017" lon="6.166000">
        <ele>534.200000</ele>
        <time>2009-11-20T18:54:18Z</time>
      </trkpt>
      <trkpt lat="50.594150" lon="6.165964">
        <ele>534.200000</ele>
        <time>2009-11-20T18:54:32Z</time>
      </trkpt>
      <trkpt lat="50.594194" lon="6.165933">
        <ele>534.600000</ele>
        <time>2009-11-20T18:54:37Z</time>
      </trkpt>
      <trkpt lat="50.594341" lon="6.165834">
        <ele>535.600000</ele>
        <time>2009-11-20T18:54:53Z</time>
      </trkpt>
      <trkpt lat="50.594513" lon="6.165750">
        <ele>536.100000</ele>
        <time>2009-11-20T18:55:12Z</time>
      </trkpt>
      <trkpt lat="50.594717" lon="6.165640">
        <ele>536.600000</ele>
        <time>2009-11-20T18:55:34Z</time>
      </trkpt>
      <trkpt lat="50.594870" lon="6.165568">
        <ele>536.600000</ele>
        <time>2009-11-20T18:55:50Z</time>
      </trkpt>
      <trkpt lat="50.595044" lon="6.165486">
        <ele>537.000000</ele>
        <time>2009-11-20T18:56:09Z</time>
      </trkpt>
      <trkpt lat="50.595164" lon="6.165415">
        <ele>537.500000</ele>
        <time>2009-11-20T18:56:22Z</time>
      </trkpt>
      <trkpt lat="50.595264" lon="6.165388">
        <ele>537.500000</ele>
        <time>2009-11-20T18:56:33Z</time>
      </trkpt>
      <trkpt lat="50.595321" lon="6.165350">
        <ele>537.000000</ele>
        <time>2009-11-20T18:56:39Z</time>
      </trkpt>
      <trkpt lat="50.595483" lon="6.165285">
        <ele>537.500000</ele>
        <time>2009-11-20T18:56:56Z</time>
      </trkpt>
      <trkpt lat="50.595507" lon="6.165281">
        <ele>537.500000</ele>
        <time>2009-11-20T18:56:59Z</time>
      </trkpt>
      <trkpt lat="50.595674" lon="6.165172">
        <ele>538.000000</ele>
        <time>2009-11-20T18:57:17Z</time>
      </trkpt>
      <trkpt lat="50.595713" lon="6.165156">
        <ele>537.500000</ele>
        <time>2009-11-20T18:57:22Z</time>
      </trkpt>
      <trkpt lat="50.595820" lon="6.165108">
        <ele>538.000000</ele>
        <time>2009-11-20T18:57:33Z</time>
      </trkpt>
      <trkpt lat="50.595880" lon="6.165050">
        <ele>538.000000</ele>
        <time>2009-11-20T18:57:40Z</time>
      </trkpt>
      <trkpt lat="50.595948" lon="6.165053">
        <ele>538.000000</ele>
        <time>2009-11-20T18:57:47Z</time>
      </trkpt>
      <trkpt lat="50.595971" lon="6.165041">
        <ele>537.500000</ele>
        <time>2009-11-20T18:57:50Z</time>
      </trkpt>
      <trkpt lat="50.596160" lon="6.164947">
        <ele>538.000000</ele>
        <time>2009-11-20T18:58:10Z</time>
      </trkpt>
      <trkpt lat="50.596336" lon="6.164913">
        <ele>538.000000</ele>
        <time>2009-11-20T18:58:28Z</time>
      </trkpt>
      <trkpt lat="50.596533" lon="6.164853">
        <ele>537.500000</ele>
        <time>2009-11-20T18:58:49Z</time>
      </trkpt>
      <trkpt lat="50.596723" lon="6.164800">
        <ele>537.000000</ele>
        <time>2009-11-20T18:59:09Z</time>
      </trkpt>
      <trkpt lat="50.596851" lon="6.164767">
        <ele>536.100000</ele>
        <time>2009-11-20T18:59:22Z</time>
      </trkpt>
      <trkpt lat="50.596903" lon="6.164770">
        <ele>536.100000</ele>
        <time>2009-11-20T18:59:28Z</time>
      </trkpt>
      <trkpt lat="50.597040" lon="6.164740">
        <ele>535.100000</ele>
        <time>2009-11-20T18:59:42Z</time>
      </trkpt>
      <trkpt lat="50.597178" lon="6.164709">
        <ele>534.600000</ele>
        <time>2009-11-20T18:59:56Z</time>
      </trkpt>
      <trkpt lat="50.597221" lon="6.164666">
        <ele>535.100000</ele>
        <time>2009-11-20T19:00:02Z</time>
      </trkpt>
      <trkpt lat="50.597274" lon="6.164678">
        <ele>534.200000</ele>
        <time>2009-11-20T19:00:07Z</time>
      </trkpt>
      <trkpt lat="50.597456" lon="6.164712">
        <ele>534.200000</ele>
        <time>2009-11-20T19:00:26Z</time>
      </trkpt>
      <trkpt lat="50.597585" lon="6.164716">
        <ele>533.700000</ele>
        <time>2009-11-20T19:00:39Z</time>
      </trkpt>
      <trkpt lat="50.597775" lon="6.164710">
        <ele>533.700000</ele>
        <time>2009-11-20T19:00:59Z</time>
      </trkpt>
      <trkpt lat="50.597930" lon="6.164742">
        <ele>533.700000</ele>
        <time>2009-11-20T19:01:15Z</time>
      </trkpt>
      <trkpt lat="50.598186" lon="6.164784">
        <ele>532.700000</ele>
        <time>2009-11-20T19:01:42Z</time>
      </trkpt>
      <trkpt lat="50.598427" lon="6.164825">
        <ele>532.700000</ele>
        <time>2009-11-20T19:02:07Z</time>
      </trkpt>
      <trkpt lat="50.598673" lon="6.164852">
        <ele>533.200000</ele>
        <time>2009-11-20T19:02:32Z</time>
      </trkpt>
      <trkpt lat="50.598936" lon="6.164896">
        <ele>532.700000</ele>
        <time>2009-11-20T19:02:59Z</time>
      </trkpt>
      <trkpt lat="50.599081" lon="6.164919">
        <ele>532.700000</ele>
        <time>2009-11-20T19:03:14Z</time>
      </trkpt>
      <trkpt lat="50.599070" lon="6.164926">
        <ele>532.200000</ele>
        <time>2009-11-20T19:03:16Z</time>
      </trkpt>
      <trkpt lat="50.599076" lon="6.164921">
        <ele>531.700000</ele>
        <time>2009-11-20T19:03:16Z</time>
      </trkpt>
      <trkpt lat="50.599110" lon="6.164950">
        <ele>531.700000</ele>
        <time>2009-11-20T19:03:20Z</time>
      </trkpt>
      <trkpt lat="50.599109" lon="6.164950">
        <ele>531.700000</ele>
        <time>2009-11-20T19:03:20Z</time>
      </trkpt>
      <trkpt lat="50.599086" lon="6.164943">
        <ele>531.700000</ele>
        <time>2009-11-20T19:03:23Z</time>
      </trkpt>
      <trkpt lat="50.599098" lon="6.164940">
        <ele>532.200000</ele>
        <time>2009-11-20T19:03:24Z</time>
      </trkpt>
      <trkpt lat="50.599213" lon="6.164959">
        <ele>531.700000</ele>
        <time>2009-11-20T19:03:36Z</time>
      </trkpt>
      <trkpt lat="50.599390" lon="6.164993">
        <ele>531.700000</ele>
        <time>2009-11-20T19:03:54Z</time>
      </trkpt>
      <trkpt lat="50.599531" lon="6.165018">
        <ele>530.800000</ele>
        <time>2009-11-20T19:04:09Z</time>
      </trkpt>
      <trkpt lat="50.599807" lon="6.165057">
        <ele>530.300000</ele>
        <time>2009-11-20T19:04:37Z</time>
      </trkpt>
      <trkpt lat="50.600171" lon="6.165100">
        <ele>529.800000</ele>
        <time>2009-11-20T19:05:15Z</time>
      </trkpt>
      <trkpt lat="50.600461" lon="6.165161">
        <ele>529.300000</ele>
        <time>2009-11-20T19:05:45Z</time>
      </trkpt>
      <trkpt lat="50.600672" lon="6.165191">
        <ele>529.300000</ele>
        <time>2009-11-20T19:06:07Z</time>
      </trkpt>
      <trkpt lat="50.600999" lon="6.165177">
        <ele>528.900000</ele>
        <time>2009-11-20T19:06:41Z</time>
      </trkpt>
      <trkpt lat="50.601254" lon="6.165287">
        <ele>528.900000</ele>
        <time>2009-11-20T19:07:08Z</time>
      </trkpt>
      <trkpt lat="50.601554" lon="6.165347">
        <ele>528.400000</ele>
        <time>2009-11-20T19:07:39Z</time>
      </trkpt>
      <trkpt lat="50.601824" lon="6.165453">
        <ele>527.400000</ele>
        <time>2009-11-20T19:08:08Z</time>
      </trkpt>
      <trkpt lat="50.601846" lon="6.165510">
        <ele>526.900000</ele>
        <time>2009-11-20T19:08:12Z</time>
      </trkpt>
      <trkpt lat="50.601916" lon="6.165526">
        <ele>526.900000</ele>
        <time>2009-11-20T19:08:20Z</time>
      </trkpt>
      <trkpt lat="50.602156" lon="6.165480">
        <ele>527.400000</ele>
        <time>2009-11-20T19:08:44Z</time>
      </trkpt>
      <trkpt lat="50.602370" lon="6.165551">
        <ele>526.500000</ele>
        <time>2009-11-20T19:09:07Z</time>
      </trkpt>
      <trkpt lat="50.602580" lon="6.165592">
        <ele>526.900000</ele>
        <time>2009-11-20T19:09:29Z</time>
      </trkpt>
      <trkpt lat="50.602843" lon="6.165650">
        <ele>526.000000</ele>
        <time>2009-11-20T19:09:56Z</time>
      </trkpt>
      <trkpt lat="50.603002" lon="6.165673">
        <ele>526.500000</ele>
        <time>2009-11-20T19:10:13Z</time>
      </trkpt>
      <trkpt lat="50.603208" lon="6.165701">
        <ele>526.500000</ele>
        <time>2009-11-20T19:10:34Z</time>
      </trkpt>
      <trkpt lat="50.603233" lon="6.165691">
        <ele>526.000000</ele>
        <time>2009-11-20T19:10:37Z</time>
      </trkpt>
      <trkpt lat="50.603260" lon="6.165700">
        <ele>526.900000</ele>
        <time>2009-11-20T19:10:39Z</time>
      </trkpt>
      <trkpt lat="50.603370" lon="6.165717">
        <ele>526.000000</ele>
        <time>2009-11-20T19:10:51Z</time>
      </trkpt>
      <trkpt lat="50.603553" lon="6.165743">
        <ele>525.500000</ele>
        <time>2009-11-20T19:11:10Z</time>
      </trkpt>
      <trkpt lat="50.603784" lon="6.165756">
        <ele>525.500000</ele>
        <time>2009-11-20T19:11:34Z</time>
      </trkpt>
      <trkpt lat="50.603967" lon="6.165758">
        <ele>525.000000</ele>
        <time>2009-11-20T19:11:52Z</time>
      </trkpt>
      <trkpt lat="50.604191" lon="6.165778">
        <ele>525.000000</ele>
        <time>2009-11-20T19:12:16Z</time>
      </trkpt>
      <trkpt lat="50.604506" lon="6.165816">
        <ele>524.100000</ele>
        <time>2009-11-20T19:12:48Z</time>
      </trkpt>
      <trkpt lat="50.604742" lon="6.165832">
        <ele>524.100000</ele>
        <time>2009-11-20T19:13:13Z</time>
      </trkpt>
      <trkpt lat="50.604964" lon="6.165855">
        <ele>523.100000</ele>
        <time>2009-11-20T19:13:35Z</time>
      </trkpt>
      <trkpt lat="50.605207" lon="6.165882">
        <ele>522.600000</ele>
        <time>2009-11-20T19:14:01Z</time>
      </trkpt>
      <trkpt lat="50.605358" lon="6.165863">
        <ele>522.100000</ele>
        <time>2009-11-20T19:14:16Z</time>
      </trkpt>
      <trkpt lat="50.605438" lon="6.165885">
        <ele>521.700000</ele>
        <time>2009-11-20T19:14:25Z</time>
      </trkpt>
      <trkpt lat="50.605654" lon="6.165927">
        <ele>521.700000</ele>
        <time>2009-11-20T19:14:47Z</time>
      </trkpt>
      <trkpt lat="50.605794" lon="6.165920">
        <ele>521.200000</ele>
        <time>2009-11-20T19:15:01Z</time>
      </trkpt>
      <trkpt lat="50.606032" lon="6.165908">
        <ele>520.700000</ele>
        <time>2009-11-20T19:15:26Z</time>
      </trkpt>
      <trkpt lat="50.606061" lon="6.165912">
        <ele>520.700000</ele>
        <time>2009-11-20T19:15:29Z</time>
      </trkpt>
      <trkpt lat="50.606159" lon="6.165967">
        <ele>520.200000</ele>
        <time>2009-11-20T19:15:40Z</time>
      </trkpt>
      <trkpt lat="50.606387" lon="6.165967">
        <ele>519.200000</ele>
        <time>2009-11-20T19:16:03Z</time>
      </trkpt>
      <trkpt lat="50.606619" lon="6.165983">
        <ele>518.300000</ele>
        <time>2009-11-20T19:16:27Z</time>
      </trkpt>
      <trkpt lat="50.606708" lon="6.166006">
        <ele>518.300000</ele>
        <time>2009-11-20T19:16:36Z</time>
      </trkpt>
      <trkpt lat="50.606802" lon="6.166039">
        <ele>518.300000</ele>
        <time>2009-11-20T19:16:46Z</time>
      </trkpt>
      <trkpt lat="50.606906" lon="6.166085">
        <ele>518.300000</ele>
        <time>2009-11-20T19:16:58Z</time>
      </trkpt>
      <trkpt lat="50.606921" lon="6.166059">
        <ele>518.800000</ele>
        <time>2009-11-20T19:17:00Z</time>
      </trkpt>
      <trkpt lat="50.606943" lon="6.165994">
        <ele>518.300000</ele>
        <time>2009-11-20T19:17:05Z</time>
      </trkpt>
      <trkpt lat="50.606948" lon="6.166012">
        <ele>518.300000</ele>
        <time>2009-11-20T19:17:06Z</time>
      </trkpt>
      <trkpt lat="50.607055" lon="6.166261">
        <ele>518.300000</ele>
        <time>2009-11-20T19:17:26Z</time>
      </trkpt>
      <trkpt lat="50.607109" lon="6.166265">
        <ele>518.300000</ele>
        <time>2009-11-20T19:17:31Z</time>
      </trkpt>
      <trkpt lat="50.607312" lon="6.166094">
        <ele>518.300000</ele>
        <time>2009-11-20T19:17:55Z</time>
      </trkpt>
      <trkpt lat="50.607484" lon="6.165938">
        <ele>516.800000</ele>
        <time>2009-11-20T19:18:15Z</time>
      </trkpt>
      <trkpt lat="50.607511" lon="6.165918">
        <ele>516.400000</ele>
        <time>2009-11-20T19:18:18Z</time>
      </trkpt>
      <trkpt lat="50.607572" lon="6.165885">
        <ele>516.400000</ele>
        <time>2009-11-20T19:18:25Z</time>
      </trkpt>
      <trkpt lat="50.607758" lon="6.165699">
        <ele>516.800000</ele>
        <time>2009-11-20T19:18:48Z</time>
      </trkpt>
      <trkpt lat="50.607920" lon="6.165555">
        <ele>516.400000</ele>
        <time>2009-11-20T19:19:07Z</time>
      </trkpt>
      <trkpt lat="50.607933" lon="6.165552">
        <ele>516.400000</ele>
        <time>2009-11-20T19:19:08Z</time>
      </trkpt>
      <trkpt lat="50.608027" lon="6.165458">
        <ele>516.800000</ele>
        <time>2009-11-20T19:19:20Z</time>
      </trkpt>
      <trkpt lat="50.608070" lon="6.165328">
        <ele>516.400000</ele>
        <time>2009-11-20T19:19:29Z</time>
      </trkpt>
      <trkpt lat="50.608035" lon="6.165279">
        <ele>516.400000</ele>
        <time>2009-11-20T19:19:34Z</time>
      </trkpt>
      <trkpt lat="50.607919" lon="6.165140">
        <ele>517.300000</ele>
        <time>2009-11-20T19:19:49Z</time>
      </trkpt>
      <trkpt lat="50.607794" lon="6.164971">
        <ele>516.800000</ele>
        <time>2009-11-20T19:20:06Z</time>
      </trkpt>
      <trkpt lat="50.607629" lon="6.164792">
        <ele>517.300000</ele>
        <time>2009-11-20T19:20:27Z</time>
      </trkpt>
      <trkpt lat="50.607619" lon="6.164760">
        <ele>517.300000</ele>
        <time>2009-11-20T19:20:29Z</time>
      </trkpt>
      <trkpt lat="50.607575" lon="6.164688">
        <ele>516.800000</ele>
        <time>2009-11-20T19:20:36Z</time>
      </trkpt>
      <trkpt lat="50.607401" lon="6.164478">
        <ele>516.800000</ele>
        <time>2009-11-20T19:20:58Z</time>
      </trkpt>
      <trkpt lat="50.607256" lon="6.164316">
        <ele>516.800000</ele>
        <time>2009-11-20T19:21:17Z</time>
      </trkpt>
      <trkpt lat="50.607081" lon="6.164101">
        <ele>517.300000</ele>
        <time>2009-11-20T19:21:39Z</time>
      </trkpt>
      <trkpt lat="50.606841" lon="6.163808">
        <ele>517.800000</ele>
        <time>2009-11-20T19:22:11Z</time>
      </trkpt>
      <trkpt lat="50.606667" lon="6.163596">
        <ele>518.300000</ele>
        <time>2009-11-20T19:22:33Z</time>
      </trkpt>
      <trkpt lat="50.606444" lon="6.163339">
        <ele>518.300000</ele>
        <time>2009-11-20T19:23:02Z</time>
      </trkpt>
      <trkpt lat="50.606281" lon="6.163136">
        <ele>518.800000</ele>
        <time>2009-11-20T19:23:23Z</time>
      </trkpt>
      <trkpt lat="50.606143" lon="6.162987">
        <ele>517.800000</ele>
        <time>2009-11-20T19:23:41Z</time>
      </trkpt>
      <trkpt lat="50.605991" lon="6.162787">
        <ele>517.800000</ele>
        <time>2009-11-20T19:24:01Z</time>
      </trkpt>
      <trkpt lat="50.605842" lon="6.162576">
        <ele>518.300000</ele>
        <time>2009-11-20T19:24:22Z</time>
      </trkpt>
      <trkpt lat="50.605819" lon="6.162541">
        <ele>517.800000</ele>
        <time>2009-11-20T19:24:25Z</time>
      </trkpt>
      <trkpt lat="50.605748" lon="6.162518">
        <ele>517.800000</ele>
        <time>2009-11-20T19:24:32Z</time>
      </trkpt>
      <trkpt lat="50.605565" lon="6.162264">
        <ele>517.800000</ele>
        <time>2009-11-20T19:24:58Z</time>
      </trkpt>
      <trkpt lat="50.605539" lon="6.162242">
        <ele>517.800000</ele>
        <time>2009-11-20T19:25:01Z</time>
      </trkpt>
      <trkpt lat="50.605534" lon="6.162209">
        <ele>516.800000</ele>
        <time>2009-11-20T19:25:03Z</time>
      </trkpt>
      <trkpt lat="50.605547" lon="6.162209">
        <ele>517.300000</ele>
        <time>2009-11-20T19:25:04Z</time>
      </trkpt>
      <trkpt lat="50.605539" lon="6.162196">
        <ele>516.800000</ele>
        <time>2009-11-20T19:25:05Z</time>
      </trkpt>
      <trkpt lat="50.605495" lon="6.162192">
        <ele>516.800000</ele>
        <time>2009-11-20T19:25:10Z</time>
      </trkpt>
      <trkpt lat="50.605298" lon="6.161951">
        <ele>517.300000</ele>
        <time>2009-11-20T19:25:36Z</time>
      </trkpt>
      <trkpt lat="50.605109" lon="6.161739">
        <ele>517.300000</ele>
        <time>2009-11-20T19:26:00Z</time>
      </trkpt>
      <trkpt lat="50.604911" lon="6.161522">
        <ele>515.900000</ele>
        <time>2009-11-20T19:26:24Z</time>
      </trkpt>
      <trkpt lat="50.604733" lon="6.161295">
        <ele>515.400000</ele>
        <time>2009-11-20T19:26:48Z</time>
      </trkpt>
      <trkpt lat="50.604519" lon="6.161050">
        <ele>515.900000</ele>
        <time>2009-11-20T19:27:15Z</time>
      </trkpt>
      <trkpt lat="50.604366" lon="6.160872">
        <ele>515.900000</ele>
        <time>2009-11-20T19:27:35Z</time>
      </trkpt>
      <trkpt lat="50.604170" lon="6.160633">
        <ele>514.900000</ele>
        <time>2009-11-20T19:28:00Z</time>
      </trkpt>
      <trkpt lat="50.603971" lon="6.160397">
        <ele>515.400000</ele>
        <time>2009-11-20T19:28:26Z</time>
      </trkpt>
      <trkpt lat="50.603807" lon="6.160215">
        <ele>514.900000</ele>
        <time>2009-11-20T19:28:47Z</time>
      </trkpt>
      <trkpt lat="50.603658" lon="6.160051">
        <ele>514.400000</ele>
        <time>2009-11-20T19:29:06Z</time>
      </trkpt>
      <trkpt lat="50.603466" lon="6.159829">
        <ele>514.000000</ele>
        <time>2009-11-20T19:29:30Z</time>
      </trkpt>
      <trkpt lat="50.603351" lon="6.159713">
        <ele>514.000000</ele>
        <time>2009-11-20T19:29:44Z</time>
      </trkpt>
      <trkpt lat="50.603207" lon="6.159576">
        <ele>513.500000</ele>
        <time>2009-11-20T19:30:01Z</time>
      </trkpt>
      <trkpt lat="50.603078" lon="6.159418">
        <ele>514.000000</ele>
        <time>2009-11-20T19:30:18Z</time>
      </trkpt>
      <trkpt lat="50.602898" lon="6.159175">
        <ele>513.500000</ele>
        <time>2009-11-20T19:30:43Z</time>
      </trkpt>
      <trkpt lat="50.602701" lon="6.158938">
        <ele>513.500000</ele>
        <time>2009-11-20T19:31:08Z</time>
      </trkpt>
      <trkpt lat="50.602518" lon="6.158698">
        <ele>512.500000</ele>
        <time>2009-11-20T19:31:33Z</time>
      </trkpt>
      <trkpt lat="50.602338" lon="6.158471">
        <ele>512.000000</ele>
        <time>2009-11-20T19:31:57Z</time>
      </trkpt>
      <trkpt lat="50.602306" lon="6.158487">
        <ele>512.000000</ele>
        <time>2009-11-20T19:32:00Z</time>
      </trkpt>
      <trkpt lat="50.602273" lon="6.158442">
        <ele>511.600000</ele>
        <time>2009-11-20T19:32:05Z</time>
      </trkpt>
      <trkpt lat="50.602240" lon="6.158413">
        <ele>512.000000</ele>
        <time>2009-11-20T19:32:08Z</time>
      </trkpt>
      <trkpt lat="50.602233" lon="6.158394">
        <ele>511.600000</ele>
        <time>2009-11-20T19:32:10Z</time>
      </trkpt>
      <trkpt lat="50.602202" lon="6.158347">
        <ele>512.000000</ele>
        <time>2009-11-20T19:32:14Z</time>
      </trkpt>
      <trkpt lat="50.602152" lon="6.158269">
        <ele>512.000000</ele>
        <time>2009-11-20T19:32:22Z</time>
      </trkpt>
      <trkpt lat="50.602130" lon="6.158203">
        <ele>512.500000</ele>
        <time>2009-11-20T19:32:26Z</time>
      </trkpt>
      <trkpt lat="50.602105" lon="6.158177">
        <ele>512.500000</ele>
        <time>2009-11-20T19:32:30Z</time>
      </trkpt>
      <trkpt lat="50.601940" lon="6.158005">
        <ele>512.000000</ele>
        <time>2009-11-20T19:32:50Z</time>
      </trkpt>
      <trkpt lat="50.601819" lon="6.157871">
        <ele>511.600000</ele>
        <time>2009-11-20T19:33:05Z</time>
      </trkpt>
      <trkpt lat="50.601627" lon="6.157616">
        <ele>511.600000</ele>
        <time>2009-11-20T19:33:31Z</time>
      </trkpt>
      <trkpt lat="50.601465" lon="6.157461">
        <ele>512.500000</ele>
        <time>2009-11-20T19:33:51Z</time>
      </trkpt>
      <trkpt lat="50.601327" lon="6.157301">
        <ele>513.000000</ele>
        <time>2009-11-20T19:34:08Z</time>
      </trkpt>
      <trkpt lat="50.601140" lon="6.157083">
        <ele>513.500000</ele>
        <time>2009-11-20T19:34:32Z</time>
      </trkpt>
      <trkpt lat="50.600998" lon="6.156915">
        <ele>514.000000</ele>
        <time>2009-11-20T19:34:51Z</time>
      </trkpt>
      <trkpt lat="50.600899" lon="6.156783">
        <ele>514.000000</ele>
        <time>2009-11-20T19:35:04Z</time>
      </trkpt>
      <trkpt lat="50.600725" lon="6.156579">
        <ele>513.000000</ele>
        <time>2009-11-20T19:35:26Z</time>
      </trkpt>
      <trkpt lat="50.600589" lon="6.156418">
        <ele>513.000000</ele>
        <time>2009-11-20T19:35:44Z</time>
      </trkpt>
      <trkpt lat="50.600463" lon="6.156271">
        <ele>513.500000</ele>
        <time>2009-11-20T19:36:00Z</time>
      </trkpt>
      <trkpt lat="50.600367" lon="6.156155">
        <ele>513.500000</ele>
        <time>2009-11-20T19:36:12Z</time>
      </trkpt>
      <trkpt lat="50.600242" lon="6.156029">
        <ele>514.000000</ele>
        <time>2009-11-20T19:36:28Z</time>
      </trkpt>
      <trkpt lat="50.600135" lon="6.155916">
        <ele>514.000000</ele>
        <time>2009-11-20T19:36:41Z</time>
      </trkpt>
      <trkpt lat="50.600039" lon="6.155752">
        <ele>513.500000</ele>
        <time>2009-11-20T19:36:56Z</time>
      </trkpt>
      <trkpt lat="50.599993" lon="6.155564">
        <ele>514.000000</ele>
        <time>2009-11-20T19:37:09Z</time>
      </trkpt>
      <trkpt lat="50.599952" lon="6.155487">
        <ele>514.000000</ele>
        <time>2009-11-20T19:37:15Z</time>
      </trkpt>
      <trkpt lat="50.599905" lon="6.155232">
        <ele>513.500000</ele>
        <time>2009-11-20T19:37:33Z</time>
      </trkpt>
      <trkpt lat="50.599862" lon="6.154773">
        <ele>512.500000</ele>
        <time>2009-11-20T19:38:03Z</time>
      </trkpt>
      <trkpt lat="50.599850" lon="6.154351">
        <ele>511.600000</ele>
        <time>2009-11-20T19:38:31Z</time>
      </trkpt>
      <trkpt lat="50.599839" lon="6.153966">
        <ele>512.000000</ele>
        <time>2009-11-20T19:38:56Z</time>
      </trkpt>
      <trkpt lat="50.599751" lon="6.153682">
        <ele>510.100000</ele>
        <time>2009-11-20T19:39:17Z</time>
      </trkpt>
      <trkpt lat="50.599722" lon="6.153260">
        <ele>510.600000</ele>
        <time>2009-11-20T19:39:44Z</time>
      </trkpt>
      <trkpt lat="50.599746" lon="6.152824">
        <ele>509.600000</ele>
        <time>2009-11-20T19:40:13Z</time>
      </trkpt>
      <trkpt lat="50.599858" lon="6.152446">
        <ele>508.700000</ele>
        <time>2009-11-20T19:40:40Z</time>
      </trkpt>
      <trkpt lat="50.599874" lon="6.152129">
        <ele>507.200000</ele>
        <time>2009-11-20T19:41:01Z</time>
      </trkpt>
      <trkpt lat="50.599872" lon="6.152144">
        <ele>508.200000</ele>
        <time>2009-11-20T19:41:02Z</time>
      </trkpt>
      <trkpt lat="50.599879" lon="6.151947">
        <ele>508.200000</ele>
        <time>2009-11-20T19:41:15Z</time>
      </trkpt>
      <trkpt lat="50.599881" lon="6.151578">
        <ele>507.700000</ele>
        <time>2009-11-20T19:41:39Z</time>
      </trkpt>
      <trkpt lat="50.599875" lon="6.151035">
        <ele>506.800000</ele>
        <time>2009-11-20T19:42:15Z</time>
      </trkpt>
      <trkpt lat="50.599862" lon="6.150464">
        <ele>505.800000</ele>
        <time>2009-11-20T19:42:52Z</time>
      </trkpt>
      <trkpt lat="50.599836" lon="6.149978">
        <ele>504.800000</ele>
        <time>2009-11-20T19:43:24Z</time>
      </trkpt>
      <trkpt lat="50.599814" lon="6.149424">
        <ele>504.300000</ele>
        <time>2009-11-20T19:44:00Z</time>
      </trkpt>
      <trkpt lat="50.599799" lon="6.148831">
        <ele>503.900000</ele>
        <time>2009-11-20T19:44:39Z</time>
      </trkpt>
      <trkpt lat="50.599778" lon="6.148237">
        <ele>503.400000</ele>
        <time>2009-11-20T19:45:18Z</time>
      </trkpt>
      <trkpt lat="50.599703" lon="6.147632">
        <ele>502.400000</ele>
        <time>2009-11-20T19:45:58Z</time>
      </trkpt>
      <trkpt lat="50.599693" lon="6.147112">
        <ele>501.900000</ele>
        <time>2009-11-20T19:46:33Z</time>
      </trkpt>
      <trkpt lat="50.599678" lon="6.146510">
        <ele>501.900000</ele>
        <time>2009-11-20T19:47:12Z</time>
      </trkpt>
      <trkpt lat="50.599671" lon="6.146239">
        <ele>501.500000</ele>
        <time>2009-11-20T19:47:30Z</time>
      </trkpt>
      <trkpt lat="50.599520" lon="6.146151">
        <ele>500.500000</ele>
        <time>2009-11-20T19:47:46Z</time>
      </trkpt>
      <trkpt lat="50.599381" lon="6.146087">
        <ele>500.000000</ele>
        <time>2009-11-20T19:48:01Z</time>
      </trkpt>
      <trkpt lat="50.599181" lon="6.145979">
        <ele>499.500000</ele>
        <time>2009-11-20T19:48:23Z</time>
      </trkpt>
      <trkpt lat="50.599063" lon="6.145905">
        <ele>499.500000</ele>
        <time>2009-11-20T19:48:36Z</time>
      </trkpt>
      <trkpt lat="50.598882" lon="6.145806">
        <ele>498.600000</ele>
        <time>2009-11-20T19:48:56Z</time>
      </trkpt>
      <trkpt lat="50.598671" lon="6.145678">
        <ele>498.100000</ele>
        <time>2009-11-20T19:49:19Z</time>
      </trkpt>
      <trkpt lat="50.598434" lon="6.145511">
        <ele>497.600000</ele>
        <time>2009-11-20T19:49:46Z</time>
      </trkpt>
      <trkpt lat="50.598222" lon="6.145400">
        <ele>498.100000</ele>
        <time>2009-11-20T19:50:09Z</time>
      </trkpt>
      <trkpt lat="50.598032" lon="6.145265">
        <ele>496.700000</ele>
        <time>2009-11-20T19:50:30Z</time>
      </trkpt>
      <trkpt lat="50.597861" lon="6.145164">
        <ele>496.200000</ele>
        <time>2009-11-20T19:50:49Z</time>
      </trkpt>
      <trkpt lat="50.597680" lon="6.145060">
        <ele>495.700000</ele>
        <time>2009-11-20T19:51:09Z</time>
      </trkpt>
      <trkpt lat="50.597517" lon="6.144961">
        <ele>495.200000</ele>
        <time>2009-11-20T19:51:27Z</time>
      </trkpt>
      <trkpt lat="50.597353" lon="6.144847">
        <ele>494.300000</ele>
        <time>2009-11-20T19:51:46Z</time>
      </trkpt>
      <trkpt lat="50.597197" lon="6.144732">
        <ele>493.800000</ele>
        <time>2009-11-20T19:52:03Z</time>
      </trkpt>
      <trkpt lat="50.597026" lon="6.144615">
        <ele>492.800000</ele>
        <time>2009-11-20T19:52:23Z</time>
      </trkpt>
      <trkpt lat="50.596855" lon="6.144522">
        <ele>492.800000</ele>
        <time>2009-11-20T19:52:41Z</time>
      </trkpt>
      <trkpt lat="50.596600" lon="6.144351">
        <ele>491.900000</ele>
        <time>2009-11-20T19:53:10Z</time>
      </trkpt>
      <trkpt lat="50.596357" lon="6.144171">
        <ele>490.400000</ele>
        <time>2009-11-20T19:53:37Z</time>
      </trkpt>
      <trkpt lat="50.596149" lon="6.144052">
        <ele>489.900000</ele>
        <time>2009-11-20T19:54:00Z</time>
      </trkpt>
      <trkpt lat="50.595969" lon="6.143885">
        <ele>488.500000</ele>
        <time>2009-11-20T19:54:22Z</time>
      </trkpt>
      <trkpt lat="50.595825" lon="6.143741">
        <ele>486.600000</ele>
        <time>2009-11-20T19:54:39Z</time>
      </trkpt>
      <trkpt lat="50.595717" lon="6.143582">
        <ele>486.600000</ele>
        <time>2009-11-20T19:54:55Z</time>
      </trkpt>
      <trkpt lat="50.595676" lon="6.143510">
        <ele>486.600000</ele>
        <time>2009-11-20T19:55:01Z</time>
      </trkpt>
      <trkpt lat="50.595605" lon="6.143370">
        <ele>486.100000</ele>
        <time>2009-11-20T19:55:13Z</time>
      </trkpt>
      <trkpt lat="50.595533" lon="6.143269">
        <ele>485.100000</ele>
        <time>2009-11-20T19:55:23Z</time>
      </trkpt>
      <trkpt lat="50.595473" lon="6.143136">
        <ele>485.600000</ele>
        <time>2009-11-20T19:55:33Z</time>
      </trkpt>
      <trkpt lat="50.595415" lon="6.142998">
        <ele>485.100000</ele>
        <time>2009-11-20T19:55:44Z</time>
      </trkpt>
      <trkpt lat="50.595344" lon="6.142941">
        <ele>484.600000</ele>
        <time>2009-11-20T19:55:52Z</time>
      </trkpt>
      <trkpt lat="50.595322" lon="6.142904">
        <ele>484.600000</ele>
        <time>2009-11-20T19:55:56Z</time>
      </trkpt>
      <trkpt lat="50.595266" lon="6.142865">
        <ele>483.200000</ele>
        <time>2009-11-20T19:56:02Z</time>
      </trkpt>
      <trkpt lat="50.595199" lon="6.142824">
        <ele>482.200000</ele>
        <time>2009-11-20T19:56:09Z</time>
      </trkpt>
      <trkpt lat="50.595138" lon="6.142804">
        <ele>483.200000</ele>
        <time>2009-11-20T19:56:16Z</time>
      </trkpt>
      <trkpt lat="50.595009" lon="6.143014">
        <ele>482.200000</ele>
        <time>2009-11-20T19:56:35Z</time>
      </trkpt>
      <trkpt lat="50.595014" lon="6.143052">
        <ele>483.200000</ele>
        <time>2009-11-20T19:56:37Z</time>
      </trkpt>
      <trkpt lat="50.595010" lon="6.143075">
        <ele>483.200000</ele>
        <time>2009-11-20T19:56:39Z</time>
      </trkpt>
      <trkpt lat="50.595024" lon="6.143076">
        <ele>483.200000</ele>
        <time>2009-11-20T19:56:40Z</time>
      </trkpt>
      <trkpt lat="50.595004" lon="6.143083">
        <ele>483.700000</ele>
        <time>2009-11-20T19:56:43Z</time>
      </trkpt>
      <trkpt lat="50.594890" lon="6.143240">
        <ele>483.700000</ele>
        <time>2009-11-20T19:56:58Z</time>
      </trkpt>
      <trkpt lat="50.594742" lon="6.143531">
        <ele>485.100000</ele>
        <time>2009-11-20T19:57:23Z</time>
      </trkpt>
      <trkpt lat="50.594601" lon="6.143799">
        <ele>484.600000</ele>
        <time>2009-11-20T19:57:45Z</time>
      </trkpt>
      <trkpt lat="50.594409" lon="6.144164">
        <ele>485.600000</ele>
        <time>2009-11-20T19:58:16Z</time>
      </trkpt>
      <trkpt lat="50.594295" lon="6.144358">
        <ele>486.600000</ele>
        <time>2009-11-20T19:58:34Z</time>
      </trkpt>
      <trkpt lat="50.594176" lon="6.144615">
        <ele>488.000000</ele>
        <time>2009-11-20T19:58:54Z</time>
      </trkpt>
      <trkpt lat="50.594088" lon="6.144825">
        <ele>488.000000</ele>
        <time>2009-11-20T19:59:11Z</time>
      </trkpt>
      <trkpt lat="50.593965" lon="6.145071">
        <ele>489.000000</ele>
        <time>2009-11-20T19:59:31Z</time>
      </trkpt>
      <trkpt lat="50.593806" lon="6.145393">
        <ele>489.900000</ele>
        <time>2009-11-20T19:59:58Z</time>
      </trkpt>
      <trkpt lat="50.593633" lon="6.145705">
        <ele>489.900000</ele>
        <time>2009-11-20T20:00:25Z</time>
      </trkpt>
      <trkpt lat="50.593480" lon="6.146002">
        <ele>490.400000</ele>
        <time>2009-11-20T20:00:50Z</time>
      </trkpt>
      <trkpt lat="50.593318" lon="6.146296">
        <ele>490.400000</ele>
        <time>2009-11-20T20:01:16Z</time>
      </trkpt>
      <trkpt lat="50.593160" lon="6.146599">
        <ele>490.900000</ele>
        <time>2009-11-20T20:01:41Z</time>
      </trkpt>
      <trkpt lat="50.593017" lon="6.146887">
        <ele>490.900000</ele>
        <time>2009-11-20T20:02:05Z</time>
      </trkpt>
      <trkpt lat="50.592908" lon="6.147096">
        <ele>490.900000</ele>
        <time>2009-11-20T20:02:23Z</time>
      </trkpt>
      <trkpt lat="50.592789" lon="6.147344">
        <ele>491.900000</ele>
        <time>2009-11-20T20:02:43Z</time>
      </trkpt>
      <trkpt lat="50.592663" lon="6.147541">
        <ele>492.300000</ele>
        <time>2009-11-20T20:03:02Z</time>
      </trkpt>
      <trkpt lat="50.592558" lon="6.147747">
        <ele>492.800000</ele>
        <time>2009-11-20T20:03:19Z</time>
      </trkpt>
      <trkpt lat="50.592427" lon="6.148044">
        <ele>493.300000</ele>
        <time>2009-11-20T20:03:43Z</time>
      </trkpt>
      <trkpt lat="50.592326" lon="6.148306">
        <ele>495.200000</ele>
        <time>2009-11-20T20:04:03Z</time>
      </trkpt>
      <trkpt lat="50.592220" lon="6.148605">
        <ele>497.100000</ele>
        <time>2009-11-20T20:04:25Z</time>
      </trkpt>
      <trkpt lat="50.592197" lon="6.148670">
        <ele>497.600000</ele>
        <time>2009-11-20T20:04:30Z</time>
      </trkpt>
      <trkpt lat="50.592171" lon="6.148795">
        <ele>498.600000</ele>
        <time>2009-11-20T20:04:39Z</time>
      </trkpt>
      <trkpt lat="50.592148" lon="6.148958">
        <ele>499.100000</ele>
        <time>2009-11-20T20:04:50Z</time>
      </trkpt>
      <trkpt lat="50.592140" lon="6.149030">
        <ele>500.000000</ele>
        <time>2009-11-20T20:04:54Z</time>
      </trkpt>
      <trkpt lat="50.592111" lon="6.149287">
        <ele>501.000000</ele>
        <time>2009-11-20T20:05:11Z</time>
      </trkpt>
      <trkpt lat="50.592109" lon="6.149342">
        <ele>501.900000</ele>
        <time>2009-11-20T20:05:15Z</time>
      </trkpt>
      <trkpt lat="50.592096" lon="6.149454">
        <ele>502.400000</ele>
        <time>2009-11-20T20:05:22Z</time>
      </trkpt>
      <trkpt lat="50.592056" lon="6.149752">
        <ele>503.900000</ele>
        <time>2009-11-20T20:05:42Z</time>
      </trkpt>
      <trkpt lat="50.592022" lon="6.149998">
        <ele>503.900000</ele>
        <time>2009-11-20T20:05:59Z</time>
      </trkpt>
      <trkpt lat="50.591989" lon="6.150245">
        <ele>505.800000</ele>
        <time>2009-11-20T20:06:15Z</time>
      </trkpt>
      <trkpt lat="50.591987" lon="6.150272">
        <ele>506.300000</ele>
        <time>2009-11-20T20:06:17Z</time>
      </trkpt>
      <trkpt lat="50.591958" lon="6.150607">
        <ele>506.800000</ele>
        <time>2009-11-20T20:06:39Z</time>
      </trkpt>
      <trkpt lat="50.591921" lon="6.150857">
        <ele>508.200000</ele>
        <time>2009-11-20T20:06:56Z</time>
      </trkpt>
      <trkpt lat="50.591885" lon="6.151112">
        <ele>509.600000</ele>
        <time>2009-11-20T20:07:13Z</time>
      </trkpt>
      <trkpt lat="50.591883" lon="6.151169">
        <ele>510.600000</ele>
        <time>2009-11-20T20:07:17Z</time>
      </trkpt>
      <trkpt lat="50.591846" lon="6.151359">
        <ele>511.100000</ele>
        <time>2009-11-20T20:07:30Z</time>
      </trkpt>
      <trkpt lat="50.591812" lon="6.151591">
        <ele>512.500000</ele>
        <time>2009-11-20T20:07:45Z</time>
      </trkpt>
      <trkpt lat="50.591773" lon="6.151841">
        <ele>513.000000</ele>
        <time>2009-11-20T20:08:02Z</time>
      </trkpt>
      <trkpt lat="50.591760" lon="6.151929">
        <ele>514.400000</ele>
        <time>2009-11-20T20:08:08Z</time>
      </trkpt>
      <trkpt lat="50.591731" lon="6.152076">
        <ele>515.900000</ele>
        <time>2009-11-20T20:08:18Z</time>
      </trkpt>
      <trkpt lat="50.591698" lon="6.152292">
        <ele>515.400000</ele>
        <time>2009-11-20T20:08:33Z</time>
      </trkpt>
      <trkpt lat="50.591655" lon="6.152577">
        <ele>518.800000</ele>
        <time>2009-11-20T20:08:52Z</time>
      </trkpt>
      <trkpt lat="50.591636" lon="6.152701">
        <ele>518.800000</ele>
        <time>2009-11-20T20:09:00Z</time>
      </trkpt>
      <trkpt lat="50.591581" lon="6.152998">
        <ele>519.200000</ele>
        <time>2009-11-20T20:09:21Z</time>
      </trkpt>
      <trkpt lat="50.591548" lon="6.153236">
        <ele>519.200000</ele>
        <time>2009-11-20T20:09:37Z</time>
      </trkpt>
      <trkpt lat="50.591516" lon="6.153396">
        <ele>520.200000</ele>
        <time>2009-11-20T20:09:48Z</time>
      </trkpt>
      <trkpt lat="50.591463" lon="6.153670">
        <ele>521.200000</ele>
        <time>2009-11-20T20:10:06Z</time>
      </trkpt>
      <trkpt lat="50.591418" lon="6.153930">
        <ele>521.200000</ele>
        <time>2009-11-20T20:10:24Z</time>
      </trkpt>
      <trkpt lat="50.591366" lon="6.154181">
        <ele>520.700000</ele>
        <time>2009-11-20T20:10:41Z</time>
      </trkpt>
      <trkpt lat="50.591358" lon="6.154270">
        <ele>521.200000</ele>
        <time>2009-11-20T20:10:47Z</time>
      </trkpt>
      <trkpt lat="50.591355" lon="6.154582">
        <ele>522.100000</ele>
        <time>2009-11-20T20:11:07Z</time>
      </trkpt>
      <trkpt lat="50.591460" lon="6.154904">
        <ele>522.100000</ele>
        <time>2009-11-20T20:11:31Z</time>
      </trkpt>
      <trkpt lat="50.591457" lon="6.154930">
        <ele>522.600000</ele>
        <time>2009-11-20T20:11:33Z</time>
      </trkpt>
      <trkpt lat="50.591441" lon="6.154938">
        <ele>523.600000</ele>
        <time>2009-11-20T20:11:35Z</time>
      </trkpt>
      <trkpt lat="50.591478" lon="6.155048">
        <ele>523.100000</ele>
        <time>2009-11-20T20:11:43Z</time>
      </trkpt>
      <trkpt lat="50.591553" lon="6.155274">
        <ele>524.100000</ele>
        <time>2009-11-20T20:11:59Z</time>
      </trkpt>
      <trkpt lat="50.591647" lon="6.155611">
        <ele>524.500000</ele>
        <time>2009-11-20T20:12:24Z</time>
      </trkpt>
      <trkpt lat="50.591750" lon="6.155912">
        <ele>524.500000</ele>
        <time>2009-11-20T20:12:46Z</time>
      </trkpt>
      <trkpt lat="50.591827" lon="6.156156">
        <ele>525.500000</ele>
        <time>2009-11-20T20:13:04Z</time>
      </trkpt>
      <trkpt lat="50.591851" lon="6.156541">
        <ele>525.500000</ele>
        <time>2009-11-20T20:13:29Z</time>
      </trkpt>
      <trkpt lat="50.591885" lon="6.156831">
        <ele>526.500000</ele>
        <time>2009-11-20T20:13:48Z</time>
      </trkpt>
      <trkpt lat="50.591936" lon="6.157053">
        <ele>526.900000</ele>
        <time>2009-11-20T20:14:04Z</time>
      </trkpt>
      <trkpt lat="50.592001" lon="6.157384">
        <ele>526.900000</ele>
        <time>2009-11-20T20:14:27Z</time>
      </trkpt>
      <trkpt lat="50.592085" lon="6.157724">
        <ele>527.400000</ele>
        <time>2009-11-20T20:14:50Z</time>
      </trkpt>
      <trkpt lat="50.592139" lon="6.158051">
        <ele>526.900000</ele>
        <time>2009-11-20T20:15:12Z</time>
      </trkpt>
      <trkpt lat="50.592183" lon="6.158340">
        <ele>526.900000</ele>
        <time>2009-11-20T20:15:32Z</time>
      </trkpt>
      <trkpt lat="50.592286" lon="6.158671">
        <ele>527.400000</ele>
        <time>2009-11-20T20:15:56Z</time>
      </trkpt>
      <trkpt lat="50.592348" lon="6.158929">
        <ele>527.900000</ele>
        <time>2009-11-20T20:16:14Z</time>
      </trkpt>
      <trkpt lat="50.592436" lon="6.159268">
        <ele>529.300000</ele>
        <time>2009-11-20T20:16:38Z</time>
      </trkpt>
      <trkpt lat="50.592529" lon="6.159586">
        <ele>529.800000</ele>
        <time>2009-11-20T20:17:01Z</time>
      </trkpt>
      <trkpt lat="50.592610" lon="6.159877">
        <ele>529.300000</ele>
        <time>2009-11-20T20:17:22Z</time>
      </trkpt>
      <trkpt lat="50.592684" lon="6.160169">
        <ele>530.300000</ele>
        <time>2009-11-20T20:17:42Z</time>
      </trkpt>
      <trkpt lat="50.592772" lon="6.160501">
        <ele>529.800000</ele>
        <time>2009-11-20T20:18:06Z</time>
      </trkpt>
      <trkpt lat="50.592833" lon="6.160854">
        <ele>528.900000</ele>
        <time>2009-11-20T20:18:30Z</time>
      </trkpt>
      <trkpt lat="50.592898" lon="6.161257">
        <ele>528.400000</ele>
        <time>2009-11-20T20:18:57Z</time>
      </trkpt>
      <trkpt lat="50.592946" lon="6.161641">
        <ele>529.800000</ele>
        <time>2009-11-20T20:19:23Z</time>
      </trkpt>
      <trkpt lat="50.593002" lon="6.162048">
        <ele>530.300000</ele>
        <time>2009-11-20T20:19:50Z</time>
      </trkpt>
      <trkpt lat="50.593047" lon="6.162283">
        <ele>532.200000</ele>
        <time>2009-11-20T20:20:06Z</time>
      </trkpt>
      <trkpt lat="50.593055" lon="6.162296">
        <ele>531.700000</ele>
        <time>2009-11-20T20:20:07Z</time>
      </trkpt>
      <trkpt lat="50.593074" lon="6.162282">
        <ele>530.800000</ele>
        <time>2009-11-20T20:20:09Z</time>
      </trkpt>
      <trkpt lat="50.593057" lon="6.162440">
        <ele>531.300000</ele>
        <time>2009-11-20T20:20:20Z</time>
      </trkpt>
      <trkpt lat="50.593092" lon="6.162794">
        <ele>532.200000</ele>
        <time>2009-11-20T20:20:43Z</time>
      </trkpt>
      <trkpt lat="50.593131" lon="6.163144">
        <ele>532.700000</ele>
        <time>2009-11-20T20:21:07Z</time>
      </trkpt>
      <trkpt lat="50.593182" lon="6.163601">
        <ele>533.200000</ele>
        <time>2009-11-20T20:21:37Z</time>
      </trkpt>
      <trkpt lat="50.593231" lon="6.163990">
        <ele>533.200000</ele>
        <time>2009-11-20T20:22:03Z</time>
      </trkpt>
      <trkpt lat="50.593287" lon="6.164347">
        <ele>533.700000</ele>
        <time>2009-11-20T20:22:27Z</time>
      </trkpt>
      <trkpt lat="50.593331" lon="6.164687">
        <ele>534.200000</ele>
        <time>2009-11-20T20:22:50Z</time>
      </trkpt>
      <trkpt lat="50.593380" lon="6.165071">
        <ele>534.200000</ele>
        <time>2009-11-20T20:23:15Z</time>
      </trkpt>
      <trkpt lat="50.593444" lon="6.165549">
        <ele>535.100000</ele>
        <time>2009-11-20T20:23:47Z</time>
      </trkpt>
      <trkpt lat="50.593505" lon="6.165976">
        <ele>534.200000</ele>
        <time>2009-11-20T20:24:16Z</time>
      </trkpt>
      <trkpt lat="50.593521" lon="6.166208">
        <ele>533.700000</ele>
        <time>2009-11-20T20:24:31Z</time>
      </trkpt>
      <trkpt lat="50.593484" lon="6.166269">
        <ele>533.700000</ele>
        <time>2009-11-20T20:24:37Z</time>
      </trkpt>
      <trkpt lat="50.593397" lon="6.166305">
        <ele>533.200000</ele>
        <time>2009-11-20T20:24:46Z</time>
      </trkpt>
      <trkpt lat="50.593234" lon="6.166535">
        <ele>531.300000</ele>
        <time>2009-11-20T20:25:08Z</time>
      </trkpt>
      <trkpt lat="50.593220" lon="6.166576">
        <ele>532.200000</ele>
        <time>2009-11-20T20:25:12Z</time>
      </trkpt>
      <trkpt lat="50.593168" lon="6.166958">
        <ele>531.700000</ele>
        <time>2009-11-20T20:25:37Z</time>
      </trkpt>
      <trkpt lat="50.593134" lon="6.167463">
        <ele>531.300000</ele>
        <time>2009-11-20T20:26:10Z</time>
      </trkpt>
      <trkpt lat="50.593084" lon="6.167841">
        <ele>531.300000</ele>
        <time>2009-11-20T20:26:36Z</time>
      </trkpt>
      <trkpt lat="50.593054" lon="6.168170">
        <ele>531.300000</ele>
        <time>2009-11-20T20:26:57Z</time>
      </trkpt>
      <trkpt lat="50.592990" lon="6.168455">
        <ele>530.800000</ele>
        <time>2009-11-20T20:27:17Z</time>
      </trkpt>
      <trkpt lat="50.592863" lon="6.168685">
        <ele>531.700000</ele>
        <time>2009-11-20T20:27:37Z</time>
      </trkpt>
      <trkpt lat="50.592680" lon="6.168763">
        <ele>531.300000</ele>
        <time>2009-11-20T20:27:57Z</time>
      </trkpt>
      <trkpt lat="50.592517" lon="6.168791">
        <ele>531.300000</ele>
        <time>2009-11-20T20:28:13Z</time>
      </trkpt>
      <trkpt lat="50.592358" lon="6.168811">
        <ele>529.800000</ele>
        <time>2009-11-20T20:28:30Z</time>
      </trkpt>
      <trkpt lat="50.592237" lon="6.168821">
        <ele>529.800000</ele>
        <time>2009-11-20T20:28:42Z</time>
      </trkpt>
      <trkpt lat="50.592046" lon="6.168848">
        <ele>529.800000</ele>
        <time>2009-11-20T20:29:02Z</time>
      </trkpt>
      <trkpt lat="50.591905" lon="6.168870">
        <ele>528.400000</ele>
        <time>2009-11-20T20:29:17Z</time>
      </trkpt>
      <trkpt lat="50.591891" lon="6.168819">
        <ele>528.900000</ele>
        <time>2009-11-20T20:29:20Z</time>
      </trkpt>
      <trkpt lat="50.591824" lon="6.168726">
        <ele>528.900000</ele>
        <time>2009-11-20T20:29:30Z</time>
      </trkpt>
      <trkpt lat="50.591800" lon="6.168721">
        <ele>528.900000</ele>
        <time>2009-11-20T20:29:32Z</time>
      </trkpt>
      <trkpt lat="50.591761" lon="6.168739">
        <ele>528.900000</ele>
        <time>2009-11-20T20:29:36Z</time>
      </trkpt>
      <trkpt lat="50.591700" lon="6.168838">
        <ele>529.300000</ele>
        <time>2009-11-20T20:29:45Z</time>
      </trkpt>
      <trkpt lat="50.591685" lon="6.168825">
        <ele>528.400000</ele>
        <time>2009-11-20T20:29:47Z</time>
      </trkpt>
      <trkpt lat="50.591679" lon="6.168925">
        <ele>527.400000</ele>
        <time>2009-11-20T20:29:54Z</time>
      </trkpt>
      <trkpt lat="50.591667" lon="6.168922">
        <ele>528.400000</ele>
        <time>2009-11-20T20:29:55Z</time>
      </trkpt>
      <trkpt lat="50.591702" lon="6.168960">
        <ele>527.900000</ele>
        <time>2009-11-20T20:29:59Z</time>
      </trkpt>
      <trkpt lat="50.591753" lon="6.168938">
        <ele>529.300000</ele>
        <time>2009-11-20T20:30:05Z</time>
      </trkpt>
      <trkpt lat="50.591694" lon="6.168938">
        <ele>529.300000</ele>
        <time>2009-11-20T20:30:11Z</time>
      </trkpt>
      <trkpt lat="50.591766" lon="6.168904">
        <ele>529.800000</ele>
        <time>2009-11-20T20:30:19Z</time>
      </trkpt>
      <trkpt lat="50.591781" lon="6.168875">
        <ele>529.800000</ele>
        <time>2009-11-20T20:30:21Z</time>
      </trkpt>
      <trkpt lat="50.591764" lon="6.168874">
        <ele>529.800000</ele>
        <time>2009-11-20T20:30:23Z</time>
      </trkpt>
      <trkpt lat="50.591761" lon="6.168880">
        <ele>530.300000</ele>
        <time>2009-11-20T20:30:23Z</time>
      </trkpt>
      <trkpt lat="50.591767" lon="6.168869">
        <ele>530.800000</ele>
        <time>2009-11-20T20:30:24Z</time>
      </trkpt>
      <trkpt lat="50.591751" lon="6.168876">
        <ele>531.300000</ele>
        <time>2009-11-20T20:30:26Z</time>
      </trkpt>
      <trkpt lat="50.591738" lon="6.168908">
        <ele>531.700000</ele>
        <time>2009-11-20T20:30:28Z</time>
      </trkpt>
      <trkpt lat="50.591754" lon="6.168881">
        <ele>531.700000</ele>
        <time>2009-11-20T20:30:31Z</time>
      </trkpt>
      <trkpt lat="50.591750" lon="6.168880">
        <ele>531.700000</ele>
        <time>2009-11-20T20:30:31Z</time>
      </trkpt>
      <trkpt lat="50.591756" lon="6.168882">
        <ele>532.700000</ele>
        <time>2009-11-20T20:30:32Z</time>
      </trkpt>
      <trkpt lat="50.591737" lon="6.168978">
        <ele>533.200000</ele>
        <time>2009-11-20T20:30:38Z</time>
      </trkpt>
      <trkpt lat="50.591795" lon="6.168891">
        <ele>533.700000</ele>
        <time>2009-11-20T20:30:47Z</time>
      </trkpt>
      <trkpt lat="50.591724" lon="6.168921">
        <ele>535.100000</ele>
        <time>2009-11-20T20:30:54Z</time>
      </trkpt>
      <trkpt lat="50.591707" lon="6.168925">
        <ele>536.600000</ele>
        <time>2009-11-20T20:30:56Z</time>
      </trkpt>
      <trkpt lat="50.591712" lon="6.168942">
        <ele>536.100000</ele>
        <time>2009-11-20T20:30:57Z</time>
      </trkpt>
      <trkpt lat="50.591690" lon="6.168966">
        <ele>535.100000</ele>
        <time>2009-11-20T20:31:00Z</time>
      </trkpt>
      <trkpt lat="50.591608" lon="6.169063">
        <ele>536.100000</ele>
        <time>2009-11-20T20:31:11Z</time>
      </trkpt>
      <trkpt lat="50.591463" lon="6.169231">
        <ele>538.000000</ele>
        <time>2009-11-20T20:31:29Z</time>
      </trkpt>
      <trkpt lat="50.591391" lon="6.169344">
        <ele>539.000000</ele>
        <time>2009-11-20T20:31:40Z</time>
      </trkpt>
      <trkpt lat="50.591308" lon="6.169452">
        <ele>539.400000</ele>
        <time>2009-11-20T20:31:51Z</time>
      </trkpt>
      <trkpt lat="50.591194" lon="6.169620">
        <ele>539.900000</ele>
        <time>2009-11-20T20:32:07Z</time>
      </trkpt>
      <trkpt lat="50.591084" lon="6.169779">
        <ele>539.900000</ele>
        <time>2009-11-20T20:32:22Z</time>
      </trkpt>
      <trkpt lat="50.590957" lon="6.169977">
        <ele>539.900000</ele>
        <time>2009-11-20T20:32:41Z</time>
      </trkpt>
      <trkpt lat="50.590904" lon="6.170131">
        <ele>540.900000</ele>
        <time>2009-11-20T20:32:52Z</time>
      </trkpt>
      <trkpt lat="50.590860" lon="6.170289">
        <ele>540.400000</ele>
        <time>2009-11-20T20:33:03Z</time>
      </trkpt>
      <trkpt lat="50.590911" lon="6.170350">
        <ele>538.000000</ele>
        <time>2009-11-20T20:33:10Z</time>
      </trkpt>
      <trkpt lat="50.590962" lon="6.170433">
        <ele>538.000000</ele>
        <time>2009-11-20T20:33:18Z</time>
      </trkpt>
      <trkpt lat="50.590945" lon="6.170510">
        <ele>539.000000</ele>
        <time>2009-11-20T20:33:23Z</time>
      </trkpt>
      <trkpt lat="50.590956" lon="6.170633">
        <ele>538.500000</ele>
        <time>2009-11-20T20:33:31Z</time>
      </trkpt>
      <trkpt lat="50.590987" lon="6.170736">
        <ele>539.000000</ele>
        <time>2009-11-20T20:33:39Z</time>
      </trkpt>
      <trkpt lat="50.591001" lon="6.170909">
        <ele>539.900000</ele>
        <time>2009-11-20T20:33:50Z</time>
      </trkpt>
      <trkpt lat="50.591087" lon="6.171074">
        <ele>540.900000</ele>
        <time>2009-11-20T20:34:04Z</time>
      </trkpt>
      <trkpt lat="50.591110" lon="6.171401">
        <ele>541.400000</ele>
        <time>2009-11-20T20:34:25Z</time>
      </trkpt>
      <trkpt lat="50.591172" lon="6.171668">
        <ele>541.400000</ele>
        <time>2009-11-20T20:34:44Z</time>
      </trkpt>
      <trkpt lat="50.591239" lon="6.171950">
        <ele>542.300000</ele>
        <time>2009-11-20T20:35:04Z</time>
      </trkpt>
      <trkpt lat="50.591298" lon="6.172448">
        <ele>543.300000</ele>
        <time>2009-11-20T20:35:37Z</time>
      </trkpt>
      <trkpt lat="50.591369" lon="6.172867">
        <ele>543.300000</ele>
        <time>2009-11-20T20:36:05Z</time>
      </trkpt>
      <trkpt lat="50.591450" lon="6.173377">
        <ele>544.700000</ele>
        <time>2009-11-20T20:36:40Z</time>
      </trkpt>
      <trkpt lat="50.591454" lon="6.173394">
        <ele>544.200000</ele>
        <time>2009-11-20T20:36:41Z</time>
      </trkpt>
      <trkpt lat="50.591507" lon="6.173653">
        <ele>545.200000</ele>
        <time>2009-11-20T20:36:59Z</time>
      </trkpt>
      <trkpt lat="50.591552" lon="6.173921">
        <ele>545.200000</ele>
        <time>2009-11-20T20:37:17Z</time>
      </trkpt>
      <trkpt lat="50.591603" lon="6.174234">
        <ele>546.200000</ele>
        <time>2009-11-20T20:37:38Z</time>
      </trkpt>
      <trkpt lat="50.591653" lon="6.174526">
        <ele>548.100000</ele>
        <time>2009-11-20T20:37:58Z</time>
      </trkpt>
      <trkpt lat="50.591690" lon="6.174784">
        <ele>549.100000</ele>
        <time>2009-11-20T20:38:15Z</time>
      </trkpt>
      <trkpt lat="50.591698" lon="6.174816">
        <ele>549.100000</ele>
        <time>2009-11-20T20:38:17Z</time>
      </trkpt>
      <trkpt lat="50.591740" lon="6.175123">
        <ele>550.500000</ele>
        <time>2009-11-20T20:38:38Z</time>
      </trkpt>
      <trkpt lat="50.591794" lon="6.175456">
        <ele>551.000000</ele>
        <time>2009-11-20T20:39:00Z</time>
      </trkpt>
      <trkpt lat="50.591838" lon="6.175729">
        <ele>552.900000</ele>
        <time>2009-11-20T20:39:19Z</time>
      </trkpt>
      <trkpt lat="50.591901" lon="6.176067">
        <ele>553.400000</ele>
        <time>2009-11-20T20:39:42Z</time>
      </trkpt>
      <trkpt lat="50.591945" lon="6.176342">
        <ele>554.300000</ele>
        <time>2009-11-20T20:40:00Z</time>
      </trkpt>
      <trkpt lat="50.591997" lon="6.176673">
        <ele>555.800000</ele>
        <time>2009-11-20T20:40:23Z</time>
      </trkpt>
      <trkpt lat="50.592066" lon="6.176967">
        <ele>556.700000</ele>
        <time>2009-11-20T20:40:43Z</time>
      </trkpt>
      <trkpt lat="50.592138" lon="6.177205">
        <ele>557.700000</ele>
        <time>2009-11-20T20:41:00Z</time>
      </trkpt>
      <trkpt lat="50.592250" lon="6.177509">
        <ele>557.700000</ele>
        <time>2009-11-20T20:41:24Z</time>
      </trkpt>
      <trkpt lat="50.592354" lon="6.177790">
        <ele>559.100000</ele>
        <time>2009-11-20T20:41:45Z</time>
      </trkpt>
      <trkpt lat="50.592469" lon="6.178128">
        <ele>559.600000</ele>
        <time>2009-11-20T20:42:10Z</time>
      </trkpt>
      <trkpt lat="50.592566" lon="6.178406">
        <ele>561.100000</ele>
        <time>2009-11-20T20:42:31Z</time>
      </trkpt>
      <trkpt lat="50.592671" lon="6.178689">
        <ele>562.500000</ele>
        <time>2009-11-20T20:42:52Z</time>
      </trkpt>
      <trkpt lat="50.592772" lon="6.178958">
        <ele>563.500000</ele>
        <time>2009-11-20T20:43:13Z</time>
      </trkpt>
      <trkpt lat="50.592876" lon="6.179247">
        <ele>564.000000</ele>
        <time>2009-11-20T20:43:34Z</time>
      </trkpt>
      <trkpt lat="50.592976" lon="6.179537">
        <ele>564.400000</ele>
        <time>2009-11-20T20:43:56Z</time>
      </trkpt>
      <trkpt lat="50.593063" lon="6.179776">
        <ele>565.900000</ele>
        <time>2009-11-20T20:44:14Z</time>
      </trkpt>
      <trkpt lat="50.593146" lon="6.180034">
        <ele>567.300000</ele>
        <time>2009-11-20T20:44:33Z</time>
      </trkpt>
      <trkpt lat="50.593262" lon="6.180313">
        <ele>567.300000</ele>
        <time>2009-11-20T20:44:55Z</time>
      </trkpt>
      <trkpt lat="50.593361" lon="6.180581">
        <ele>568.300000</ele>
        <time>2009-11-20T20:45:15Z</time>
      </trkpt>
      <trkpt lat="50.593485" lon="6.180901">
        <ele>568.800000</ele>
        <time>2009-11-20T20:45:39Z</time>
      </trkpt>
      <trkpt lat="50.593600" lon="6.181236">
        <ele>569.700000</ele>
        <time>2009-11-20T20:46:04Z</time>
      </trkpt>
      <trkpt lat="50.593688" lon="6.181477">
        <ele>570.200000</ele>
        <time>2009-11-20T20:46:23Z</time>
      </trkpt>
      <trkpt lat="50.593789" lon="6.181683">
        <ele>570.200000</ele>
        <time>2009-11-20T20:46:40Z</time>
      </trkpt>
      <trkpt lat="50.593955" lon="6.181826">
        <ele>569.700000</ele>
        <time>2009-11-20T20:46:59Z</time>
      </trkpt>
      <trkpt lat="50.593953" lon="6.181836">
        <ele>570.700000</ele>
        <time>2009-11-20T20:47:00Z</time>
      </trkpt>
      <trkpt lat="50.593953" lon="6.181830">
        <ele>569.700000</ele>
        <time>2009-11-20T20:47:00Z</time>
      </trkpt>
      <trkpt lat="50.593949" lon="6.181831">
        <ele>570.200000</ele>
        <time>2009-11-20T20:47:01Z</time>
      </trkpt>
      <trkpt lat="50.593942" lon="6.181836">
        <ele>570.200000</ele>
        <time>2009-11-20T20:47:01Z</time>
      </trkpt>
      <trkpt lat="50.593965" lon="6.181858">
        <ele>570.200000</ele>
        <time>2009-11-20T20:47:04Z</time>
      </trkpt>
      <trkpt lat="50.594099" lon="6.181991">
        <ele>570.700000</ele>
        <time>2009-11-20T20:47:20Z</time>
      </trkpt>
      <trkpt lat="50.594272" lon="6.182157">
        <ele>571.200000</ele>
        <time>2009-11-20T20:47:41Z</time>
      </trkpt>
      <trkpt lat="50.594470" lon="6.182334">
        <ele>571.600000</ele>
        <time>2009-11-20T20:48:05Z</time>
      </trkpt>
      <trkpt lat="50.594656" lon="6.182541">
        <ele>572.600000</ele>
        <time>2009-11-20T20:48:28Z</time>
      </trkpt>
      <trkpt lat="50.594813" lon="6.182690">
        <ele>573.100000</ele>
        <time>2009-11-20T20:48:47Z</time>
      </trkpt>
      <trkpt lat="50.594883" lon="6.182752">
        <ele>574.000000</ele>
        <time>2009-11-20T20:48:55Z</time>
      </trkpt>
      <trkpt lat="50.594981" lon="6.182899">
        <ele>574.000000</ele>
        <time>2009-11-20T20:49:09Z</time>
      </trkpt>
      <trkpt lat="50.595002" lon="6.182934">
        <ele>574.000000</ele>
        <time>2009-11-20T20:49:13Z</time>
      </trkpt>
      <trkpt lat="50.595183" lon="6.183046">
        <ele>573.600000</ele>
        <time>2009-11-20T20:49:33Z</time>
      </trkpt>
      <trkpt lat="50.595375" lon="6.183198">
        <ele>573.100000</ele>
        <time>2009-11-20T20:49:55Z</time>
      </trkpt>
      <trkpt lat="50.595543" lon="6.183353">
        <ele>573.600000</ele>
        <time>2009-11-20T20:50:15Z</time>
      </trkpt>
      <trkpt lat="50.595761" lon="6.183523">
        <ele>573.600000</ele>
        <time>2009-11-20T20:50:40Z</time>
      </trkpt>
      <trkpt lat="50.595946" lon="6.183687">
        <ele>573.600000</ele>
        <time>2009-11-20T20:51:02Z</time>
      </trkpt>
      <trkpt lat="50.596060" lon="6.183775">
        <ele>575.000000</ele>
        <time>2009-11-20T20:51:15Z</time>
      </trkpt>
      <trkpt lat="50.596190" lon="6.183966">
        <ele>574.000000</ele>
        <time>2009-11-20T20:51:33Z</time>
      </trkpt>
      <trkpt lat="50.596266" lon="6.184137">
        <ele>574.000000</ele>
        <time>2009-11-20T20:51:47Z</time>
      </trkpt>
      <trkpt lat="50.596357" lon="6.184295">
        <ele>573.600000</ele>
        <time>2009-11-20T20:52:01Z</time>
      </trkpt>
      <trkpt lat="50.596503" lon="6.184327">
        <ele>574.000000</ele>
        <time>2009-11-20T20:52:16Z</time>
      </trkpt>
      <trkpt lat="50.596627" lon="6.184388">
        <ele>573.100000</ele>
        <time>2009-11-20T20:52:29Z</time>
      </trkpt>
      <trkpt lat="50.596646" lon="6.184404">
        <ele>573.100000</ele>
        <time>2009-11-20T20:52:32Z</time>
      </trkpt>
      <trkpt lat="50.596751" lon="6.184479">
        <ele>573.100000</ele>
        <time>2009-11-20T20:52:44Z</time>
      </trkpt>
      <trkpt lat="50.596904" lon="6.184577">
        <ele>572.600000</ele>
        <time>2009-11-20T20:53:01Z</time>
      </trkpt>
      <trkpt lat="50.597119" lon="6.184722">
        <ele>571.600000</ele>
        <time>2009-11-20T20:53:25Z</time>
      </trkpt>
      <trkpt lat="50.597285" lon="6.184856">
        <ele>571.200000</ele>
        <time>2009-11-20T20:53:44Z</time>
      </trkpt>
      <trkpt lat="50.597475" lon="6.184981">
        <ele>570.200000</ele>
        <time>2009-11-20T20:54:05Z</time>
      </trkpt>
      <trkpt lat="50.597656" lon="6.185156">
        <ele>570.200000</ele>
        <time>2009-11-20T20:54:27Z</time>
      </trkpt>
      <trkpt lat="50.597839" lon="6.185293">
        <ele>569.700000</ele>
        <time>2009-11-20T20:54:48Z</time>
      </trkpt>
      <trkpt lat="50.598026" lon="6.185437">
        <ele>568.300000</ele>
        <time>2009-11-20T20:55:09Z</time>
      </trkpt>
      <trkpt lat="50.598237" lon="6.185589">
        <ele>567.800000</ele>
        <time>2009-11-20T20:55:33Z</time>
      </trkpt>
      <trkpt lat="50.598389" lon="6.185711">
        <ele>567.300000</ele>
        <time>2009-11-20T20:55:51Z</time>
      </trkpt>
      <trkpt lat="50.598557" lon="6.185862">
        <ele>565.400000</ele>
        <time>2009-11-20T20:56:11Z</time>
      </trkpt>
      <trkpt lat="50.598596" lon="6.185938">
        <ele>565.400000</ele>
        <time>2009-11-20T20:56:17Z</time>
      </trkpt>
      <trkpt lat="50.598592" lon="6.186227">
        <ele>565.900000</ele>
        <time>2009-11-20T20:56:36Z</time>
      </trkpt>
      <trkpt lat="50.598576" lon="6.186556">
        <ele>565.400000</ele>
        <time>2009-11-20T20:56:58Z</time>
      </trkpt>
      <trkpt lat="50.598579" lon="6.187001">
        <ele>564.900000</ele>
        <time>2009-11-20T20:57:27Z</time>
      </trkpt>
      <trkpt lat="50.598587" lon="6.187438">
        <ele>564.000000</ele>
        <time>2009-11-20T20:57:55Z</time>
      </trkpt>
      <trkpt lat="50.598598" lon="6.187885">
        <ele>563.500000</ele>
        <time>2009-11-20T20:58:25Z</time>
      </trkpt>
      <trkpt lat="50.598614" lon="6.188250">
        <ele>563.000000</ele>
        <time>2009-11-20T20:58:49Z</time>
      </trkpt>
      <trkpt lat="50.598598" lon="6.188380">
        <ele>562.500000</ele>
        <time>2009-11-20T20:58:57Z</time>
      </trkpt>
      <trkpt lat="50.598606" lon="6.188461">
        <ele>562.500000</ele>
        <time>2009-11-20T20:59:03Z</time>
      </trkpt>
      <trkpt lat="50.598632" lon="6.188786">
        <ele>562.500000</ele>
        <time>2009-11-20T20:59:24Z</time>
      </trkpt>
      <trkpt lat="50.598646" lon="6.189066">
        <ele>562.500000</ele>
        <time>2009-11-20T20:59:42Z</time>
      </trkpt>
      <trkpt lat="50.598653" lon="6.189407">
        <ele>562.500000</ele>
        <time>2009-11-20T21:00:05Z</time>
      </trkpt>
      <trkpt lat="50.598665" lon="6.189792">
        <ele>562.500000</ele>
        <time>2009-11-20T21:00:30Z</time>
      </trkpt>
      <trkpt lat="50.598676" lon="6.190174">
        <ele>562.500000</ele>
        <time>2009-11-20T21:00:55Z</time>
      </trkpt>
      <trkpt lat="50.598689" lon="6.190520">
        <ele>562.000000</ele>
        <time>2009-11-20T21:01:18Z</time>
      </trkpt>
      <trkpt lat="50.598707" lon="6.190823">
        <ele>563.000000</ele>
        <time>2009-11-20T21:01:38Z</time>
      </trkpt>
      <trkpt lat="50.598704" lon="6.190902">
        <ele>560.600000</ele>
        <time>2009-11-20T21:01:43Z</time>
      </trkpt>
      <trkpt lat="50.598704" lon="6.190902">
        <ele>562.000000</ele>
        <time>2009-11-20T21:01:43Z</time>
      </trkpt>
      <trkpt lat="50.598702" lon="6.190902">
        <ele>559.100000</ele>
        <time>2009-11-20T21:01:43Z</time>
      </trkpt>
      <trkpt lat="50.598702" lon="6.190902">
        <ele>562.500000</ele>
        <time>2009-11-20T21:01:43Z</time>
      </trkpt>
      <trkpt lat="50.598701" lon="6.190902">
        <ele>566.400000</ele>
        <time>2009-11-20T21:01:43Z</time>
      </trkpt>
      <trkpt lat="50.598701" lon="6.190902">
        <ele>559.100000</ele>
        <time>2009-11-20T21:01:43Z</time>
      </trkpt>
      <trkpt lat="50.598700" lon="6.190902">
        <ele>559.100000</ele>
        <time>2009-11-20T21:01:43Z</time>
      </trkpt>
      <trkpt lat="50.598700" lon="6.190902">
        <ele>562.500000</ele>
        <time>2009-11-20T21:01:43Z</time>
      </trkpt>
      <trkpt lat="50.598699" lon="6.190906">
        <ele>565.900000</ele>
        <time>2009-11-20T21:01:43Z</time>
      </trkpt>
      <trkpt lat="50.598699" lon="6.190915">
        <ele>563.000000</ele>
        <time>2009-11-20T21:01:44Z</time>
      </trkpt>
      <trkpt lat="50.598706" lon="6.191209">
        <ele>560.600000</ele>
        <time>2009-11-20T21:02:03Z</time>
      </trkpt>
      <trkpt lat="50.598724" lon="6.191646">
        <ele>562.000000</ele>
        <time>2009-11-20T21:02:32Z</time>
      </trkpt>
      <trkpt lat="50.598737" lon="6.191971">
        <ele>563.500000</ele>
        <time>2009-11-20T21:02:53Z</time>
      </trkpt>
      <trkpt lat="50.598748" lon="6.192372">
        <ele>562.500000</ele>
        <time>2009-11-20T21:03:19Z</time>
      </trkpt>
      <trkpt lat="50.598759" lon="6.192726">
        <ele>563.500000</ele>
        <time>2009-11-20T21:03:43Z</time>
      </trkpt>
      <trkpt lat="50.598770" lon="6.193031">
        <ele>564.400000</ele>
        <time>2009-11-20T21:04:03Z</time>
      </trkpt>
      <trkpt lat="50.598777" lon="6.193276">
        <ele>564.000000</ele>
        <time>2009-11-20T21:04:19Z</time>
      </trkpt>
      <trkpt lat="50.598794" lon="6.193547">
        <ele>565.400000</ele>
        <time>2009-11-20T21:04:36Z</time>
      </trkpt>
      <trkpt lat="50.598796" lon="6.193872">
        <ele>565.400000</ele>
        <time>2009-11-20T21:04:58Z</time>
      </trkpt>
      <trkpt lat="50.598812" lon="6.194153">
        <ele>565.400000</ele>
        <time>2009-11-20T21:05:16Z</time>
      </trkpt>
      <trkpt lat="50.598870" lon="6.194385">
        <ele>566.800000</ele>
        <time>2009-11-20T21:05:32Z</time>
      </trkpt>
      <trkpt lat="50.598887" lon="6.194433">
        <ele>565.400000</ele>
        <time>2009-11-20T21:05:36Z</time>
      </trkpt>
      <trkpt lat="50.599058" lon="6.194623">
        <ele>566.800000</ele>
        <time>2009-11-20T21:05:58Z</time>
      </trkpt>
      <trkpt lat="50.599209" lon="6.194826">
        <ele>565.900000</ele>
        <time>2009-11-20T21:06:18Z</time>
      </trkpt>
      <trkpt lat="50.599371" lon="6.195063">
        <ele>566.400000</ele>
        <time>2009-11-20T21:06:41Z</time>
      </trkpt>
      <trkpt lat="50.599522" lon="6.195263">
        <ele>565.900000</ele>
        <time>2009-11-20T21:07:01Z</time>
      </trkpt>
      <trkpt lat="50.599656" lon="6.195486">
        <ele>567.300000</ele>
        <time>2009-11-20T21:07:21Z</time>
      </trkpt>
      <trkpt lat="50.599792" lon="6.195714">
        <ele>566.800000</ele>
        <time>2009-11-20T21:07:42Z</time>
      </trkpt>
      <trkpt lat="50.599950" lon="6.195981">
        <ele>566.800000</ele>
        <time>2009-11-20T21:08:06Z</time>
      </trkpt>
      <trkpt lat="50.600110" lon="6.196286">
        <ele>567.300000</ele>
        <time>2009-11-20T21:08:32Z</time>
      </trkpt>
      <trkpt lat="50.600262" lon="6.196546">
        <ele>566.400000</ele>
        <time>2009-11-20T21:08:55Z</time>
      </trkpt>
      <trkpt lat="50.600409" lon="6.196789">
        <ele>567.800000</ele>
        <time>2009-11-20T21:09:17Z</time>
      </trkpt>
      <trkpt lat="50.600569" lon="6.197055">
        <ele>568.300000</ele>
        <time>2009-11-20T21:09:41Z</time>
      </trkpt>
      <trkpt lat="50.600734" lon="6.197333">
        <ele>568.300000</ele>
        <time>2009-11-20T21:10:06Z</time>
      </trkpt>
      <trkpt lat="50.600875" lon="6.197562">
        <ele>568.800000</ele>
        <time>2009-11-20T21:10:26Z</time>
      </trkpt>
      <trkpt lat="50.601040" lon="6.197855">
        <ele>568.800000</ele>
        <time>2009-11-20T21:10:52Z</time>
      </trkpt>
      <trkpt lat="50.601167" lon="6.198087">
        <ele>569.200000</ele>
        <time>2009-11-20T21:11:12Z</time>
      </trkpt>
      <trkpt lat="50.601268" lon="6.198399">
        <ele>570.200000</ele>
        <time>2009-11-20T21:11:35Z</time>
      </trkpt>
      <trkpt lat="50.601305" lon="6.198469">
        <ele>569.700000</ele>
        <time>2009-11-20T21:11:41Z</time>
      </trkpt>
      <trkpt lat="50.601342" lon="6.198629">
        <ele>568.800000</ele>
        <time>2009-11-20T21:11:52Z</time>
      </trkpt>
      <trkpt lat="50.601428" lon="6.198999">
        <ele>569.200000</ele>
        <time>2009-11-20T21:12:18Z</time>
      </trkpt>
      <trkpt lat="50.601513" lon="6.199373">
        <ele>569.200000</ele>
        <time>2009-11-20T21:12:44Z</time>
      </trkpt>
      <trkpt lat="50.601592" lon="6.199725">
        <ele>570.700000</ele>
        <time>2009-11-20T21:13:08Z</time>
      </trkpt>
      <trkpt lat="50.601672" lon="6.200088">
        <ele>571.200000</ele>
        <time>2009-11-20T21:13:33Z</time>
      </trkpt>
      <trkpt lat="50.601763" lon="6.200475">
        <ele>570.700000</ele>
        <time>2009-11-20T21:14:00Z</time>
      </trkpt>
      <trkpt lat="50.601839" lon="6.200813">
        <ele>571.600000</ele>
        <time>2009-11-20T21:14:24Z</time>
      </trkpt>
      <trkpt lat="50.601902" lon="6.201109">
        <ele>571.200000</ele>
        <time>2009-11-20T21:14:44Z</time>
      </trkpt>
      <trkpt lat="50.601997" lon="6.201500">
        <ele>572.100000</ele>
        <time>2009-11-20T21:15:12Z</time>
      </trkpt>
      <trkpt lat="50.602087" lon="6.201876">
        <ele>573.100000</ele>
        <time>2009-11-20T21:15:38Z</time>
      </trkpt>
      <trkpt lat="50.602166" lon="6.202214">
        <ele>574.000000</ele>
        <time>2009-11-20T21:16:02Z</time>
      </trkpt>
      <trkpt lat="50.602255" lon="6.202611">
        <ele>573.100000</ele>
        <time>2009-11-20T21:16:29Z</time>
      </trkpt>
      <trkpt lat="50.602323" lon="6.202898">
        <ele>574.500000</ele>
        <time>2009-11-20T21:16:49Z</time>
      </trkpt>
      <trkpt lat="50.602409" lon="6.203284">
        <ele>574.500000</ele>
        <time>2009-11-20T21:17:16Z</time>
      </trkpt>
      <trkpt lat="50.602494" lon="6.203668">
        <ele>574.500000</ele>
        <time>2009-11-20T21:17:42Z</time>
      </trkpt>
      <trkpt lat="50.602577" lon="6.203990">
        <ele>576.000000</ele>
        <time>2009-11-20T21:18:05Z</time>
      </trkpt>
      <trkpt lat="50.602653" lon="6.204335">
        <ele>575.500000</ele>
        <time>2009-11-20T21:18:29Z</time>
      </trkpt>
      <trkpt lat="50.602726" lon="6.204674">
        <ele>575.500000</ele>
        <time>2009-11-20T21:18:53Z</time>
      </trkpt>
      <trkpt lat="50.602801" lon="6.205001">
        <ele>575.000000</ele>
        <time>2009-11-20T21:19:15Z</time>
      </trkpt>
      <trkpt lat="50.602890" lon="6.205368">
        <ele>575.000000</ele>
        <time>2009-11-20T21:19:41Z</time>
      </trkpt>
      <trkpt lat="50.602975" lon="6.205690">
        <ele>575.000000</ele>
        <time>2009-11-20T21:20:04Z</time>
      </trkpt>
      <trkpt lat="50.603026" lon="6.205977">
        <ele>575.500000</ele>
        <time>2009-11-20T21:20:23Z</time>
      </trkpt>
      <trkpt lat="50.603033" lon="6.206231">
        <ele>574.000000</ele>
        <time>2009-11-20T21:20:40Z</time>
      </trkpt>
      <trkpt lat="50.603022" lon="6.206716">
        <ele>573.600000</ele>
        <time>2009-11-20T21:21:12Z</time>
      </trkpt>
      <trkpt lat="50.603008" lon="6.207120">
        <ele>573.600000</ele>
        <time>2009-11-20T21:21:38Z</time>
      </trkpt>
      <trkpt lat="50.602994" lon="6.207478">
        <ele>573.100000</ele>
        <time>2009-11-20T21:22:02Z</time>
      </trkpt>
      <trkpt lat="50.602937" lon="6.207700">
        <ele>572.600000</ele>
        <time>2009-11-20T21:22:17Z</time>
      </trkpt>
      <trkpt lat="50.602879" lon="6.207665">
        <ele>572.100000</ele>
        <time>2009-11-20T21:22:24Z</time>
      </trkpt>
      <trkpt lat="50.602861" lon="6.207652">
        <ele>572.100000</ele>
        <time>2009-11-20T21:22:26Z</time>
      </trkpt>
      <trkpt lat="50.602914" lon="6.207670">
        <ele>574.000000</ele>
        <time>2009-11-20T21:22:31Z</time>
      </trkpt>
      <trkpt lat="50.602948" lon="6.207613">
        <ele>572.600000</ele>
        <time>2009-11-20T21:22:36Z</time>
      </trkpt>
      <trkpt lat="50.602954" lon="6.207658">
        <ele>573.600000</ele>
        <time>2009-11-20T21:22:39Z</time>
      </trkpt>
      <trkpt lat="50.602962" lon="6.207637">
        <ele>569.700000</ele>
        <time>2009-11-20T21:22:41Z</time>
      </trkpt>
      <trkpt lat="50.602965" lon="6.207632">
        <ele>575.000000</ele>
        <time>2009-11-20T21:22:41Z</time>
      </trkpt>
      <trkpt lat="50.602966" lon="6.207629">
        <ele>575.000000</ele>
        <time>2009-11-20T21:22:42Z</time>
      </trkpt>
      <trkpt lat="50.602967" lon="6.207628">
        <ele>568.300000</ele>
        <time>2009-11-20T21:22:42Z</time>
      </trkpt>
      <trkpt lat="50.602970" lon="6.207624">
        <ele>572.100000</ele>
        <time>2009-11-20T21:22:42Z</time>
      </trkpt>
      <trkpt lat="50.602973" lon="6.207621">
        <ele>576.000000</ele>
        <time>2009-11-20T21:22:43Z</time>
      </trkpt>
      <trkpt lat="50.602975" lon="6.207619">
        <ele>568.800000</ele>
        <time>2009-11-20T21:22:43Z</time>
      </trkpt>
      <trkpt lat="50.602978" lon="6.207616">
        <ele>572.600000</ele>
        <time>2009-11-20T21:22:43Z</time>
      </trkpt>
      <trkpt lat="50.602975" lon="6.207616">
        <ele>576.900000</ele>
        <time>2009-11-20T21:22:44Z</time>
      </trkpt>
      <trkpt lat="50.602974" lon="6.207616">
        <ele>572.600000</ele>
        <time>2009-11-20T21:22:44Z</time>
      </trkpt>
      <trkpt lat="50.602942" lon="6.207641">
        <ele>572.100000</ele>
        <time>2009-11-20T21:22:47Z</time>
      </trkpt>
      <trkpt lat="50.602949" lon="6.207677">
        <ele>571.200000</ele>
        <time>2009-11-20T21:22:50Z</time>
      </trkpt>
      <trkpt lat="50.602965" lon="6.207650">
        <ele>571.200000</ele>
        <time>2009-11-20T21:22:52Z</time>
      </trkpt>
      <trkpt lat="50.602990" lon="6.207652">
        <ele>571.200000</ele>
        <time>2009-11-20T21:22:55Z</time>
      </trkpt>
      <trkpt lat="50.602960" lon="6.207651">
        <ele>570.700000</ele>
        <time>2009-11-20T21:22:58Z</time>
      </trkpt>
      <trkpt lat="50.602959" lon="6.207645">
        <ele>570.700000</ele>
        <time>2009-11-20T21:22:58Z</time>
      </trkpt>
      <trkpt lat="50.602960" lon="6.207642">
        <ele>571.600000</ele>
        <time>2009-11-20T21:22:59Z</time>
      </trkpt>
      <trkpt lat="50.602964" lon="6.207638">
        <ele>571.600000</ele>
        <time>2009-11-20T21:22:59Z</time>
      </trkpt>
      <trkpt lat="50.602959" lon="6.207644">
        <ele>570.700000</ele>
        <time>2009-11-20T21:23:00Z</time>
      </trkpt>
      <trkpt lat="50.602961" lon="6.207651">
        <ele>570.200000</ele>
        <time>2009-11-20T21:23:00Z</time>
      </trkpt>
      <trkpt lat="50.602928" lon="6.207645">
        <ele>570.700000</ele>
        <time>2009-11-20T21:23:04Z</time>
      </trkpt>
      <trkpt lat="50.602935" lon="6.207639">
        <ele>570.200000</ele>
        <time>2009-11-20T21:23:04Z</time>
      </trkpt>
      <trkpt lat="50.602944" lon="6.207640">
        <ele>570.700000</ele>
        <time>2009-11-20T21:23:05Z</time>
      </trkpt>
      <trkpt lat="50.602953" lon="6.207637">
        <ele>570.700000</ele>
        <time>2009-11-20T21:23:06Z</time>
      </trkpt>
      <trkpt lat="50.602966" lon="6.207629">
        <ele>571.600000</ele>
        <time>2009-11-20T21:23:08Z</time>
      </trkpt>
      <trkpt lat="50.602945" lon="6.207636">
        <ele>570.700000</ele>
        <time>2009-11-20T21:23:10Z</time>
      </trkpt>
      <trkpt lat="50.602998" lon="6.207617">
        <ele>570.700000</ele>
        <time>2009-11-20T21:23:16Z</time>
      </trkpt>
      <trkpt lat="50.603073" lon="6.207621">
        <ele>571.200000</ele>
        <time>2009-11-20T21:23:23Z</time>
      </trkpt>
      <trkpt lat="50.603005" lon="6.207630">
        <ele>571.600000</ele>
        <time>2009-11-20T21:23:30Z</time>
      </trkpt>
      <trkpt lat="50.602991" lon="6.207671">
        <ele>572.100000</ele>
        <time>2009-11-20T21:23:33Z</time>
      </trkpt>
      <trkpt lat="50.602989" lon="6.207743">
        <ele>571.600000</ele>
        <time>2009-11-20T21:23:38Z</time>
      </trkpt>
      <trkpt lat="50.602999" lon="6.208031">
        <ele>571.200000</ele>
        <time>2009-11-20T21:23:57Z</time>
      </trkpt>
      <trkpt lat="50.602982" lon="6.208384">
        <ele>571.200000</ele>
        <time>2009-11-20T21:24:20Z</time>
      </trkpt>
      <trkpt lat="50.602969" lon="6.208710">
        <ele>569.700000</ele>
        <time>2009-11-20T21:24:41Z</time>
      </trkpt>
      <trkpt lat="50.602959" lon="6.209099">
        <ele>569.700000</ele>
        <time>2009-11-20T21:25:07Z</time>
      </trkpt>
      <trkpt lat="50.602947" lon="6.209511">
        <ele>569.200000</ele>
        <time>2009-11-20T21:25:34Z</time>
      </trkpt>
      <trkpt lat="50.602933" lon="6.209971">
        <ele>568.300000</ele>
        <time>2009-11-20T21:26:04Z</time>
      </trkpt>
      <trkpt lat="50.602925" lon="6.210322">
        <ele>567.300000</ele>
        <time>2009-11-20T21:26:27Z</time>
      </trkpt>
      <trkpt lat="50.602921" lon="6.210491">
        <ele>568.300000</ele>
        <time>2009-11-20T21:26:38Z</time>
      </trkpt>
      <trkpt lat="50.602922" lon="6.210772">
        <ele>566.400000</ele>
        <time>2009-11-20T21:26:56Z</time>
      </trkpt>
      <trkpt lat="50.603011" lon="6.211018">
        <ele>566.400000</ele>
        <time>2009-11-20T21:27:15Z</time>
      </trkpt>
      <trkpt lat="50.603155" lon="6.211268">
        <ele>565.400000</ele>
        <time>2009-11-20T21:27:37Z</time>
      </trkpt>
      <trkpt lat="50.603307" lon="6.211539">
        <ele>564.400000</ele>
        <time>2009-11-20T21:28:01Z</time>
      </trkpt>
      <trkpt lat="50.603479" lon="6.211860">
        <ele>564.400000</ele>
        <time>2009-11-20T21:28:28Z</time>
      </trkpt>
      <trkpt lat="50.603626" lon="6.212120">
        <ele>563.500000</ele>
        <time>2009-11-20T21:28:51Z</time>
      </trkpt>
      <trkpt lat="50.603788" lon="6.212410">
        <ele>563.500000</ele>
        <time>2009-11-20T21:29:16Z</time>
      </trkpt>
      <trkpt lat="50.603956" lon="6.212718">
        <ele>562.500000</ele>
        <time>2009-11-20T21:29:43Z</time>
      </trkpt>
      <trkpt lat="50.604122" lon="6.213058">
        <ele>561.100000</ele>
        <time>2009-11-20T21:30:11Z</time>
      </trkpt>
      <trkpt lat="50.604256" lon="6.213301">
        <ele>561.100000</ele>
        <time>2009-11-20T21:30:32Z</time>
      </trkpt>
      <trkpt lat="50.604418" lon="6.213617">
        <ele>560.600000</ele>
        <time>2009-11-20T21:30:59Z</time>
      </trkpt>
      <trkpt lat="50.604589" lon="6.213942">
        <ele>560.100000</ele>
        <time>2009-11-20T21:31:26Z</time>
      </trkpt>
      <trkpt lat="50.604755" lon="6.214255">
        <ele>559.100000</ele>
        <time>2009-11-20T21:31:53Z</time>
      </trkpt>
      <trkpt lat="50.604883" lon="6.214504">
        <ele>559.100000</ele>
        <time>2009-11-20T21:32:14Z</time>
      </trkpt>
      <trkpt lat="50.605033" lon="6.214805">
        <ele>557.200000</ele>
        <time>2009-11-20T21:32:39Z</time>
      </trkpt>
      <trkpt lat="50.605178" lon="6.215068">
        <ele>556.700000</ele>
        <time>2009-11-20T21:33:02Z</time>
      </trkpt>
      <trkpt lat="50.605349" lon="6.215389">
        <ele>555.300000</ele>
        <time>2009-11-20T21:33:29Z</time>
      </trkpt>
      <trkpt lat="50.605477" lon="6.215634">
        <ele>557.200000</ele>
        <time>2009-11-20T21:33:50Z</time>
      </trkpt>
      <trkpt lat="50.605521" lon="6.215676">
        <ele>554.300000</ele>
        <time>2009-11-20T21:33:55Z</time>
      </trkpt>
      <trkpt lat="50.605679" lon="6.215994">
        <ele>552.900000</ele>
        <time>2009-11-20T21:34:22Z</time>
      </trkpt>
      <trkpt lat="50.605788" lon="6.216220">
        <ele>552.900000</ele>
        <time>2009-11-20T21:34:40Z</time>
      </trkpt>
      <trkpt lat="50.605908" lon="6.216444">
        <ele>553.900000</ele>
        <time>2009-11-20T21:34:59Z</time>
      </trkpt>
      <trkpt lat="50.606006" lon="6.216641">
        <ele>553.900000</ele>
        <time>2009-11-20T21:35:16Z</time>
      </trkpt>
      <trkpt lat="50.606029" lon="6.216692">
        <ele>553.900000</ele>
        <time>2009-11-20T21:35:20Z</time>
      </trkpt>
      <trkpt lat="50.606165" lon="6.216914">
        <ele>552.900000</ele>
        <time>2009-11-20T21:35:40Z</time>
      </trkpt>
      <trkpt lat="50.606272" lon="6.217142">
        <ele>551.900000</ele>
        <time>2009-11-20T21:35:59Z</time>
      </trkpt>
      <trkpt lat="50.606377" lon="6.217322">
        <ele>551.900000</ele>
        <time>2009-11-20T21:36:15Z</time>
      </trkpt>
      <trkpt lat="50.606386" lon="6.217439">
        <ele>550.000000</ele>
        <time>2009-11-20T21:36:22Z</time>
      </trkpt>
      <trkpt lat="50.606295" lon="6.217723">
        <ele>550.500000</ele>
        <time>2009-11-20T21:36:43Z</time>
      </trkpt>
      <trkpt lat="50.606308" lon="6.217935">
        <ele>550.000000</ele>
        <time>2009-11-20T21:36:57Z</time>
      </trkpt>
      <trkpt lat="50.606268" lon="6.217994">
        <ele>550.500000</ele>
        <time>2009-11-20T21:37:03Z</time>
      </trkpt>
      <trkpt lat="50.606215" lon="6.218046">
        <ele>550.000000</ele>
        <time>2009-11-20T21:37:09Z</time>
      </trkpt>
      <trkpt lat="50.606125" lon="6.218341">
        <ele>550.000000</ele>
        <time>2009-11-20T21:37:30Z</time>
      </trkpt>
      <trkpt lat="50.606040" lon="6.218697">
        <ele>550.500000</ele>
        <time>2009-11-20T21:37:55Z</time>
      </trkpt>
      <trkpt lat="50.605967" lon="6.219065">
        <ele>550.500000</ele>
        <time>2009-11-20T21:38:21Z</time>
      </trkpt>
      <trkpt lat="50.605888" lon="6.219329">
        <ele>551.000000</ele>
        <time>2009-11-20T21:38:40Z</time>
      </trkpt>
      <trkpt lat="50.605801" lon="6.219666">
        <ele>551.000000</ele>
        <time>2009-11-20T21:39:03Z</time>
      </trkpt>
      <trkpt lat="50.605721" lon="6.219971">
        <ele>550.500000</ele>
        <time>2009-11-20T21:39:25Z</time>
      </trkpt>
      <trkpt lat="50.605685" lon="6.220068">
        <ele>551.500000</ele>
        <time>2009-11-20T21:39:32Z</time>
      </trkpt>
      <trkpt lat="50.605672" lon="6.220136">
        <ele>551.000000</ele>
        <time>2009-11-20T21:39:37Z</time>
      </trkpt>
      <trkpt lat="50.605607" lon="6.220381">
        <ele>551.000000</ele>
        <time>2009-11-20T21:39:54Z</time>
      </trkpt>
      <trkpt lat="50.605553" lon="6.220577">
        <ele>550.000000</ele>
        <time>2009-11-20T21:40:08Z</time>
      </trkpt>
      <trkpt lat="50.605524" lon="6.220593">
        <ele>550.500000</ele>
        <time>2009-11-20T21:40:12Z</time>
      </trkpt>
      <trkpt lat="50.605517" lon="6.220769">
        <ele>550.500000</ele>
        <time>2009-11-20T21:40:23Z</time>
      </trkpt>
      <trkpt lat="50.605526" lon="6.220813">
        <ele>550.000000</ele>
        <time>2009-11-20T21:40:26Z</time>
      </trkpt>
      <trkpt lat="50.605492" lon="6.220991">
        <ele>550.000000</ele>
        <time>2009-11-20T21:40:38Z</time>
      </trkpt>
      <trkpt lat="50.605438" lon="6.221082">
        <ele>550.500000</ele>
        <time>2009-11-20T21:40:46Z</time>
      </trkpt>
      <trkpt lat="50.605374" lon="6.221274">
        <ele>551.000000</ele>
        <time>2009-11-20T21:41:01Z</time>
      </trkpt>
      <trkpt lat="50.605306" lon="6.221525">
        <ele>551.000000</ele>
        <time>2009-11-20T21:41:19Z</time>
      </trkpt>
      <trkpt lat="50.605260" lon="6.221723">
        <ele>551.000000</ele>
        <time>2009-11-20T21:41:32Z</time>
      </trkpt>
      <trkpt lat="50.605254" lon="6.221774">
        <ele>551.000000</ele>
        <time>2009-11-20T21:41:36Z</time>
      </trkpt>
      <trkpt lat="50.605168" lon="6.222043">
        <ele>551.900000</ele>
        <time>2009-11-20T21:41:55Z</time>
      </trkpt>
      <trkpt lat="50.605116" lon="6.222240">
        <ele>551.500000</ele>
        <time>2009-11-20T21:42:09Z</time>
      </trkpt>
      <trkpt lat="50.605068" lon="6.222422">
        <ele>552.400000</ele>
        <time>2009-11-20T21:42:22Z</time>
      </trkpt>
      <trkpt lat="50.605016" lon="6.222649">
        <ele>553.400000</ele>
        <time>2009-11-20T21:42:38Z</time>
      </trkpt>
      <trkpt lat="50.604952" lon="6.222872">
        <ele>553.400000</ele>
        <time>2009-11-20T21:42:54Z</time>
      </trkpt>
      <trkpt lat="50.604877" lon="6.223118">
        <ele>554.800000</ele>
        <time>2009-11-20T21:43:12Z</time>
      </trkpt>
      <trkpt lat="50.604838" lon="6.223266">
        <ele>554.300000</ele>
        <time>2009-11-20T21:43:22Z</time>
      </trkpt>
      <trkpt lat="50.604766" lon="6.223376">
        <ele>555.300000</ele>
        <time>2009-11-20T21:43:33Z</time>
      </trkpt>
      <trkpt lat="50.604724" lon="6.223509">
        <ele>555.800000</ele>
        <time>2009-11-20T21:43:42Z</time>
      </trkpt>
      <trkpt lat="50.604730" lon="6.223557">
        <ele>555.300000</ele>
        <time>2009-11-20T21:43:46Z</time>
      </trkpt>
      <trkpt lat="50.604717" lon="6.223602">
        <ele>554.300000</ele>
        <time>2009-11-20T21:43:49Z</time>
      </trkpt>
      <trkpt lat="50.604710" lon="6.223659">
        <ele>554.300000</ele>
        <time>2009-11-20T21:43:53Z</time>
      </trkpt>
      <trkpt lat="50.604680" lon="6.223706">
        <ele>555.300000</ele>
        <time>2009-11-20T21:43:57Z</time>
      </trkpt>
      <trkpt lat="50.604647" lon="6.223787">
        <ele>555.800000</ele>
        <time>2009-11-20T21:44:03Z</time>
      </trkpt>
      <trkpt lat="50.604574" lon="6.224029">
        <ele>556.300000</ele>
        <time>2009-11-20T21:44:21Z</time>
      </trkpt>
      <trkpt lat="50.604493" lon="6.224306">
        <ele>557.200000</ele>
        <time>2009-11-20T21:44:41Z</time>
      </trkpt>
      <trkpt lat="50.604452" lon="6.224499">
        <ele>557.700000</ele>
        <time>2009-11-20T21:44:54Z</time>
      </trkpt>
      <trkpt lat="50.604373" lon="6.224744">
        <ele>558.200000</ele>
        <time>2009-11-20T21:45:12Z</time>
      </trkpt>
      <trkpt lat="50.604294" lon="6.224994">
        <ele>558.700000</ele>
        <time>2009-11-20T21:45:30Z</time>
      </trkpt>
      <trkpt lat="50.604227" lon="6.225206">
        <ele>558.200000</ele>
        <time>2009-11-20T21:45:46Z</time>
      </trkpt>
      <trkpt lat="50.604150" lon="6.225398">
        <ele>558.700000</ele>
        <time>2009-11-20T21:46:01Z</time>
      </trkpt>
      <trkpt lat="50.604128" lon="6.225634">
        <ele>559.100000</ele>
        <time>2009-11-20T21:46:16Z</time>
      </trkpt>
      <trkpt lat="50.604124" lon="6.225647">
        <ele>559.100000</ele>
        <time>2009-11-20T21:46:17Z</time>
      </trkpt>
      <trkpt lat="50.604104" lon="6.225705">
        <ele>559.100000</ele>
        <time>2009-11-20T21:46:22Z</time>
      </trkpt>
      <trkpt lat="50.604026" lon="6.225965">
        <ele>559.100000</ele>
        <time>2009-11-20T21:46:40Z</time>
      </trkpt>
      <trkpt lat="50.603941" lon="6.226306">
        <ele>559.600000</ele>
        <time>2009-11-20T21:47:04Z</time>
      </trkpt>
      <trkpt lat="50.603850" lon="6.226665">
        <ele>561.100000</ele>
        <time>2009-11-20T21:47:30Z</time>
      </trkpt>
      <trkpt lat="50.603774" lon="6.226987">
        <ele>562.000000</ele>
        <time>2009-11-20T21:47:52Z</time>
      </trkpt>
      <trkpt lat="50.603679" lon="6.227351">
        <ele>563.500000</ele>
        <time>2009-11-20T21:48:18Z</time>
      </trkpt>
      <trkpt lat="50.603591" lon="6.227724">
        <ele>563.500000</ele>
        <time>2009-11-20T21:48:44Z</time>
      </trkpt>
      <trkpt lat="50.603507" lon="6.228060">
        <ele>564.000000</ele>
        <time>2009-11-20T21:49:08Z</time>
      </trkpt>
      <trkpt lat="50.603427" lon="6.228390">
        <ele>564.400000</ele>
        <time>2009-11-20T21:49:31Z</time>
      </trkpt>
      <trkpt lat="50.603353" lon="6.228688">
        <ele>564.400000</ele>
        <time>2009-11-20T21:49:52Z</time>
      </trkpt>
      <trkpt lat="50.603284" lon="6.228968">
        <ele>564.000000</ele>
        <time>2009-11-20T21:50:11Z</time>
      </trkpt>
      <trkpt lat="50.603263" lon="6.229029">
        <ele>564.000000</ele>
        <time>2009-11-20T21:50:16Z</time>
      </trkpt>
      <trkpt lat="50.603225" lon="6.229052">
        <ele>564.000000</ele>
        <time>2009-11-20T21:50:20Z</time>
      </trkpt>
      <trkpt lat="50.603192" lon="6.228993">
        <ele>564.000000</ele>
        <time>2009-11-20T21:50:25Z</time>
      </trkpt>
      <trkpt lat="50.603240" lon="6.229045">
        <ele>564.000000</ele>
        <time>2009-11-20T21:50:31Z</time>
      </trkpt>
      <trkpt lat="50.603245" lon="6.229065">
        <ele>564.400000</ele>
        <time>2009-11-20T21:50:33Z</time>
      </trkpt>
      <trkpt lat="50.603245" lon="6.229197">
        <ele>564.400000</ele>
        <time>2009-11-20T21:50:41Z</time>
      </trkpt>
      <trkpt lat="50.603148" lon="6.229482">
        <ele>564.400000</ele>
        <time>2009-11-20T21:51:02Z</time>
      </trkpt>
      <trkpt lat="50.603084" lon="6.229779">
        <ele>565.900000</ele>
        <time>2009-11-20T21:51:23Z</time>
      </trkpt>
      <trkpt lat="50.603021" lon="6.230121">
        <ele>566.400000</ele>
        <time>2009-11-20T21:51:46Z</time>
      </trkpt>
      <trkpt lat="50.602970" lon="6.230345">
        <ele>566.400000</ele>
        <time>2009-11-20T21:52:02Z</time>
      </trkpt>
      <trkpt lat="50.602965" lon="6.230361">
        <ele>566.400000</ele>
        <time>2009-11-20T21:52:03Z</time>
      </trkpt>
      <trkpt lat="50.602859" lon="6.230584">
        <ele>567.300000</ele>
        <time>2009-11-20T21:52:21Z</time>
      </trkpt>
      <trkpt lat="50.602798" lon="6.230839">
        <ele>567.800000</ele>
        <time>2009-11-20T21:52:39Z</time>
      </trkpt>
      <trkpt lat="50.602722" lon="6.231163">
        <ele>568.800000</ele>
        <time>2009-11-20T21:53:02Z</time>
      </trkpt>
      <trkpt lat="50.602612" lon="6.231558">
        <ele>569.200000</ele>
        <time>2009-11-20T21:53:30Z</time>
      </trkpt>
      <trkpt lat="50.602538" lon="6.231821">
        <ele>569.200000</ele>
        <time>2009-11-20T21:53:49Z</time>
      </trkpt>
      <trkpt lat="50.602449" lon="6.232185">
        <ele>569.700000</ele>
        <time>2009-11-20T21:54:14Z</time>
      </trkpt>
      <trkpt lat="50.602356" lon="6.232525">
        <ele>570.200000</ele>
        <time>2009-11-20T21:54:38Z</time>
      </trkpt>
      <trkpt lat="50.602271" lon="6.232854">
        <ele>570.200000</ele>
        <time>2009-11-20T21:55:02Z</time>
      </trkpt>
      <trkpt lat="50.602205" lon="6.232997">
        <ele>570.700000</ele>
        <time>2009-11-20T21:55:13Z</time>
      </trkpt>
      <trkpt lat="50.602203" lon="6.233009">
        <ele>570.200000</ele>
        <time>2009-11-20T21:55:14Z</time>
      </trkpt>
      <trkpt lat="50.602176" lon="6.233085">
        <ele>570.700000</ele>
        <time>2009-11-20T21:55:20Z</time>
      </trkpt>
      <trkpt lat="50.602193" lon="6.233016">
        <ele>570.200000</ele>
        <time>2009-11-20T21:55:24Z</time>
      </trkpt>
      <trkpt lat="50.602174" lon="6.233001">
        <ele>570.200000</ele>
        <time>2009-11-20T21:55:27Z</time>
      </trkpt>
      <trkpt lat="50.602169" lon="6.233016">
        <ele>570.200000</ele>
        <time>2009-11-20T21:55:28Z</time>
      </trkpt>
      <trkpt lat="50.602165" lon="6.233004">
        <ele>570.200000</ele>
        <time>2009-11-20T21:55:29Z</time>
      </trkpt>
      <trkpt lat="50.602152" lon="6.232990">
        <ele>570.700000</ele>
        <time>2009-11-20T21:55:30Z</time>
      </trkpt>
      <trkpt lat="50.602033" lon="6.232718">
        <ele>570.700000</ele>
        <time>2009-11-20T21:55:52Z</time>
      </trkpt>
      <trkpt lat="50.601917" lon="6.232408">
        <ele>571.200000</ele>
        <time>2009-11-20T21:56:15Z</time>
      </trkpt>
      <trkpt lat="50.601802" lon="6.232205">
        <ele>571.200000</ele>
        <time>2009-11-20T21:56:33Z</time>
      </trkpt>
      <trkpt lat="50.601741" lon="6.231869">
        <ele>572.100000</ele>
        <time>2009-11-20T21:56:56Z</time>
      </trkpt>
      <trkpt lat="50.601723" lon="6.231469">
        <ele>571.200000</ele>
        <time>2009-11-20T21:57:22Z</time>
      </trkpt>
      <trkpt lat="50.601685" lon="6.231127">
        <ele>570.700000</ele>
        <time>2009-11-20T21:57:45Z</time>
      </trkpt>
      <trkpt lat="50.601599" lon="6.230769">
        <ele>570.700000</ele>
        <time>2009-11-20T21:58:10Z</time>
      </trkpt>
      <trkpt lat="50.601527" lon="6.230393">
        <ele>571.600000</ele>
        <time>2009-11-20T21:58:36Z</time>
      </trkpt>
      <trkpt lat="50.601531" lon="6.230080">
        <ele>571.600000</ele>
        <time>2009-11-20T21:58:56Z</time>
      </trkpt>
      <trkpt lat="50.601564" lon="6.229738">
        <ele>572.100000</ele>
        <time>2009-11-20T21:59:19Z</time>
      </trkpt>
      <trkpt lat="50.601571" lon="6.229627">
        <ele>571.200000</ele>
        <time>2009-11-20T21:59:26Z</time>
      </trkpt>
      <trkpt lat="50.601642" lon="6.229002">
        <ele>580.300000</ele>
        <time>2009-11-20T22:00:08Z</time>
      </trkpt>
      <trkpt lat="50.601622" lon="6.228778">
        <ele>576.900000</ele>
        <time>2009-11-20T22:00:23Z</time>
      </trkpt>
      <trkpt lat="50.601606" lon="6.228429">
        <ele>574.000000</ele>
        <time>2009-11-20T22:00:45Z</time>
      </trkpt>
      <trkpt lat="50.601671" lon="6.228036">
        <ele>571.600000</ele>
        <time>2009-11-20T22:01:12Z</time>
      </trkpt>
      <trkpt lat="50.601757" lon="6.227629">
        <ele>570.200000</ele>
        <time>2009-11-20T22:01:40Z</time>
      </trkpt>
      <trkpt lat="50.601820" lon="6.227179">
        <ele>568.800000</ele>
        <time>2009-11-20T22:02:10Z</time>
      </trkpt>
      <trkpt lat="50.601894" lon="6.226754">
        <ele>567.300000</ele>
        <time>2009-11-20T22:02:39Z</time>
      </trkpt>
      <trkpt lat="50.601918" lon="6.226315">
        <ele>566.800000</ele>
        <time>2009-11-20T22:03:08Z</time>
      </trkpt>
      <trkpt lat="50.601927" lon="6.225887">
        <ele>566.400000</ele>
        <time>2009-11-20T22:03:36Z</time>
      </trkpt>
      <trkpt lat="50.601933" lon="6.225578">
        <ele>565.900000</ele>
        <time>2009-11-20T22:03:56Z</time>
      </trkpt>
      <trkpt lat="50.601941" lon="6.225576">
        <ele>565.900000</ele>
        <time>2009-11-20T22:03:57Z</time>
      </trkpt>
      <trkpt lat="50.601961" lon="6.225413">
        <ele>565.400000</ele>
        <time>2009-11-20T22:04:08Z</time>
      </trkpt>
      <trkpt lat="50.601982" lon="6.225103">
        <ele>564.900000</ele>
        <time>2009-11-20T22:04:28Z</time>
      </trkpt>
      <trkpt lat="50.601975" lon="6.224859">
        <ele>564.900000</ele>
        <time>2009-11-20T22:04:44Z</time>
      </trkpt>
      <trkpt lat="50.601978" lon="6.224527">
        <ele>564.000000</ele>
        <time>2009-11-20T22:05:06Z</time>
      </trkpt>
      <trkpt lat="50.602060" lon="6.224152">
        <ele>563.500000</ele>
        <time>2009-11-20T22:05:32Z</time>
      </trkpt>
      <trkpt lat="50.602113" lon="6.223862">
        <ele>562.000000</ele>
        <time>2009-11-20T22:05:52Z</time>
      </trkpt>
      <trkpt lat="50.602117" lon="6.223822">
        <ele>564.900000</ele>
        <time>2009-11-20T22:05:54Z</time>
      </trkpt>
      <trkpt lat="50.602128" lon="6.223791">
        <ele>563.000000</ele>
        <time>2009-11-20T22:05:57Z</time>
      </trkpt>
      <trkpt lat="50.602169" lon="6.223569">
        <ele>563.000000</ele>
        <time>2009-11-20T22:06:12Z</time>
      </trkpt>
      <trkpt lat="50.602257" lon="6.223271">
        <ele>562.500000</ele>
        <time>2009-11-20T22:06:33Z</time>
      </trkpt>
      <trkpt lat="50.602359" lon="6.222993">
        <ele>562.500000</ele>
        <time>2009-11-20T22:06:54Z</time>
      </trkpt>
      <trkpt lat="50.602454" lon="6.222691">
        <ele>562.500000</ele>
        <time>2009-11-20T22:07:16Z</time>
      </trkpt>
      <trkpt lat="50.602584" lon="6.222427">
        <ele>562.000000</ele>
        <time>2009-11-20T22:07:38Z</time>
      </trkpt>
      <trkpt lat="50.602697" lon="6.222155">
        <ele>561.100000</ele>
        <time>2009-11-20T22:07:59Z</time>
      </trkpt>
      <trkpt lat="50.602821" lon="6.221908">
        <ele>560.100000</ele>
        <time>2009-11-20T22:08:20Z</time>
      </trkpt>
      <trkpt lat="50.602893" lon="6.221626">
        <ele>559.600000</ele>
        <time>2009-11-20T22:08:40Z</time>
      </trkpt>
      <trkpt lat="50.603013" lon="6.221499">
        <ele>559.600000</ele>
        <time>2009-11-20T22:08:55Z</time>
      </trkpt>
      <trkpt lat="50.603139" lon="6.221444">
        <ele>559.100000</ele>
        <time>2009-11-20T22:09:08Z</time>
      </trkpt>
      <trkpt lat="50.603241" lon="6.221404">
        <ele>558.700000</ele>
        <time>2009-11-20T22:09:19Z</time>
      </trkpt>
      <trkpt lat="50.603287" lon="6.221354">
        <ele>558.200000</ele>
        <time>2009-11-20T22:09:25Z</time>
      </trkpt>
      <trkpt lat="50.603369" lon="6.221382">
        <ele>558.200000</ele>
        <time>2009-11-20T22:09:34Z</time>
      </trkpt>
      <trkpt lat="50.603452" lon="6.221364">
        <ele>558.200000</ele>
        <time>2009-11-20T22:09:42Z</time>
      </trkpt>
      <trkpt lat="50.603500" lon="6.221348">
        <ele>557.700000</ele>
        <time>2009-11-20T22:09:47Z</time>
      </trkpt>
      <trkpt lat="50.603537" lon="6.221322">
        <ele>557.700000</ele>
        <time>2009-11-20T22:09:51Z</time>
      </trkpt>
      <trkpt lat="50.603687" lon="6.221243">
        <ele>556.700000</ele>
        <time>2009-11-20T22:10:08Z</time>
      </trkpt>
      <trkpt lat="50.603854" lon="6.221176">
        <ele>556.700000</ele>
        <time>2009-11-20T22:10:25Z</time>
      </trkpt>
      <trkpt lat="50.603979" lon="6.221119">
        <ele>555.800000</ele>
        <time>2009-11-20T22:10:39Z</time>
      </trkpt>
      <trkpt lat="50.604101" lon="6.221004">
        <ele>555.800000</ele>
        <time>2009-11-20T22:10:54Z</time>
      </trkpt>
      <trkpt lat="50.604254" lon="6.220722">
        <ele>554.800000</ele>
        <time>2009-11-20T22:11:18Z</time>
      </trkpt>
      <trkpt lat="50.604262" lon="6.220712">
        <ele>554.800000</ele>
        <time>2009-11-20T22:11:19Z</time>
      </trkpt>
      <trkpt lat="50.604271" lon="6.220623">
        <ele>555.300000</ele>
        <time>2009-11-20T22:11:25Z</time>
      </trkpt>
      <trkpt lat="50.604204" lon="6.220516">
        <ele>555.800000</ele>
        <time>2009-11-20T22:11:35Z</time>
      </trkpt>
      <trkpt lat="50.604262" lon="6.220266">
        <ele>555.800000</ele>
        <time>2009-11-20T22:11:52Z</time>
      </trkpt>
      <trkpt lat="50.604366" lon="6.219890">
        <ele>555.300000</ele>
        <time>2009-11-20T22:12:19Z</time>
      </trkpt>
      <trkpt lat="50.604425" lon="6.219619">
        <ele>555.300000</ele>
        <time>2009-11-20T22:12:38Z</time>
      </trkpt>
      <trkpt lat="50.604499" lon="6.219402">
        <ele>554.800000</ele>
        <time>2009-11-20T22:12:54Z</time>
      </trkpt>
      <trkpt lat="50.604505" lon="6.219189">
        <ele>554.800000</ele>
        <time>2009-11-20T22:13:08Z</time>
      </trkpt>
      <trkpt lat="50.604495" lon="6.218928">
        <ele>554.300000</ele>
        <time>2009-11-20T22:13:25Z</time>
      </trkpt>
      <trkpt lat="50.604545" lon="6.218506">
        <ele>554.800000</ele>
        <time>2009-11-20T22:13:53Z</time>
      </trkpt>
      <trkpt lat="50.604598" lon="6.218158">
        <ele>555.300000</ele>
        <time>2009-11-20T22:14:16Z</time>
      </trkpt>
      <trkpt lat="50.604617" lon="6.217859">
        <ele>555.800000</ele>
        <time>2009-11-20T22:14:36Z</time>
      </trkpt>
      <trkpt lat="50.604620" lon="6.217823">
        <ele>555.800000</ele>
        <time>2009-11-20T22:14:38Z</time>
      </trkpt>
      <trkpt lat="50.604782" lon="6.217593">
        <ele>555.300000</ele>
        <time>2009-11-20T22:15:01Z</time>
      </trkpt>
      <trkpt lat="50.604899" lon="6.217305">
        <ele>554.800000</ele>
        <time>2009-11-20T22:15:23Z</time>
      </trkpt>
      <trkpt lat="50.604993" lon="6.217024">
        <ele>554.300000</ele>
        <time>2009-11-20T22:15:44Z</time>
      </trkpt>
      <trkpt lat="50.605196" lon="6.216644">
        <ele>553.900000</ele>
        <time>2009-11-20T22:16:16Z</time>
      </trkpt>
      <trkpt lat="50.605392" lon="6.216315">
        <ele>553.400000</ele>
        <time>2009-11-20T22:16:46Z</time>
      </trkpt>
      <trkpt lat="50.605649" lon="6.216042">
        <ele>552.900000</ele>
        <time>2009-11-20T22:17:18Z</time>
      </trkpt>
      <trkpt lat="50.605679" lon="6.216022">
        <ele>552.900000</ele>
        <time>2009-11-20T22:17:21Z</time>
      </trkpt>
      <trkpt lat="50.605582" lon="6.215815">
        <ele>554.300000</ele>
        <time>2009-11-20T22:17:38Z</time>
      </trkpt>
      <trkpt lat="50.605443" lon="6.215572">
        <ele>554.800000</ele>
        <time>2009-11-20T22:17:59Z</time>
      </trkpt>
      <trkpt lat="50.605307" lon="6.215347">
        <ele>555.800000</ele>
        <time>2009-11-20T22:18:20Z</time>
      </trkpt>
      <trkpt lat="50.605210" lon="6.215155">
        <ele>555.800000</ele>
        <time>2009-11-20T22:18:36Z</time>
      </trkpt>
      <trkpt lat="50.605067" lon="6.214887">
        <ele>557.700000</ele>
        <time>2009-11-20T22:18:59Z</time>
      </trkpt>
      <trkpt lat="50.604922" lon="6.214607">
        <ele>559.100000</ele>
        <time>2009-11-20T22:19:22Z</time>
      </trkpt>
      <trkpt lat="50.604782" lon="6.214325">
        <ele>559.100000</ele>
        <time>2009-11-20T22:19:46Z</time>
      </trkpt>
      <trkpt lat="50.604621" lon="6.214054">
        <ele>559.600000</ele>
        <time>2009-11-20T22:20:10Z</time>
      </trkpt>
      <trkpt lat="50.604475" lon="6.213777">
        <ele>560.100000</ele>
        <time>2009-11-20T22:20:34Z</time>
      </trkpt>
      <trkpt lat="50.604329" lon="6.213513">
        <ele>560.600000</ele>
        <time>2009-11-20T22:20:57Z</time>
      </trkpt>
      <trkpt lat="50.604188" lon="6.213249">
        <ele>561.500000</ele>
        <time>2009-11-20T22:21:19Z</time>
      </trkpt>
      <trkpt lat="50.604052" lon="6.213006">
        <ele>561.500000</ele>
        <time>2009-11-20T22:21:40Z</time>
      </trkpt>
      <trkpt lat="50.603904" lon="6.212725">
        <ele>562.500000</ele>
        <time>2009-11-20T22:22:04Z</time>
      </trkpt>
      <trkpt lat="50.603734" lon="6.212396">
        <ele>562.500000</ele>
        <time>2009-11-20T22:22:32Z</time>
      </trkpt>
      <trkpt lat="50.603679" lon="6.212306">
        <ele>557.700000</ele>
        <time>2009-11-20T22:22:40Z</time>
      </trkpt>
      <trkpt lat="50.603669" lon="6.212293">
        <ele>566.400000</ele>
        <time>2009-11-20T22:22:42Z</time>
      </trkpt>
      <trkpt lat="50.603657" lon="6.212277">
        <ele>564.400000</ele>
        <time>2009-11-20T22:22:43Z</time>
      </trkpt>
      <trkpt lat="50.603617" lon="6.212183">
        <ele>563.500000</ele>
        <time>2009-11-20T22:22:51Z</time>
      </trkpt>
      <trkpt lat="50.603547" lon="6.212046">
        <ele>563.500000</ele>
        <time>2009-11-20T22:23:02Z</time>
      </trkpt>
      <trkpt lat="50.603427" lon="6.211797">
        <ele>564.400000</ele>
        <time>2009-11-20T22:23:23Z</time>
      </trkpt>
      <trkpt lat="50.603308" lon="6.211557">
        <ele>564.900000</ele>
        <time>2009-11-20T22:23:42Z</time>
      </trkpt>
      <trkpt lat="50.603134" lon="6.211234">
        <ele>565.900000</ele>
        <time>2009-11-20T22:24:10Z</time>
      </trkpt>
      <trkpt lat="50.602950" lon="6.210911">
        <ele>566.800000</ele>
        <time>2009-11-20T22:24:39Z</time>
      </trkpt>
      <trkpt lat="50.602899" lon="6.210625">
        <ele>567.300000</ele>
        <time>2009-11-20T22:24:58Z</time>
      </trkpt>
      <trkpt lat="50.602907" lon="6.210326">
        <ele>566.800000</ele>
        <time>2009-11-20T22:25:18Z</time>
      </trkpt>
      <trkpt lat="50.602917" lon="6.210031">
        <ele>567.800000</ele>
        <time>2009-11-20T22:25:37Z</time>
      </trkpt>
      <trkpt lat="50.602912" lon="6.209647">
        <ele>569.200000</ele>
        <time>2009-11-20T22:26:02Z</time>
      </trkpt>
      <trkpt lat="50.602918" lon="6.209424">
        <ele>568.800000</ele>
        <time>2009-11-20T22:26:17Z</time>
      </trkpt>
      <trkpt lat="50.602966" lon="6.209157">
        <ele>570.200000</ele>
        <time>2009-11-20T22:26:35Z</time>
      </trkpt>
      <trkpt lat="50.602966" lon="6.209137">
        <ele>570.200000</ele>
        <time>2009-11-20T22:26:36Z</time>
      </trkpt>
      <trkpt lat="50.602967" lon="6.208871">
        <ele>569.700000</ele>
        <time>2009-11-20T22:26:53Z</time>
      </trkpt>
      <trkpt lat="50.602956" lon="6.208542">
        <ele>571.200000</ele>
        <time>2009-11-20T22:27:15Z</time>
      </trkpt>
      <trkpt lat="50.602978" lon="6.208247">
        <ele>572.100000</ele>
        <time>2009-11-20T22:27:34Z</time>
      </trkpt>
      <trkpt lat="50.602974" lon="6.207957">
        <ele>572.600000</ele>
        <time>2009-11-20T22:27:53Z</time>
      </trkpt>
      <trkpt lat="50.603024" lon="6.207706">
        <ele>572.600000</ele>
        <time>2009-11-20T22:28:11Z</time>
      </trkpt>
      <trkpt lat="50.603009" lon="6.207689">
        <ele>572.100000</ele>
        <time>2009-11-20T22:28:13Z</time>
      </trkpt>
      <trkpt lat="50.602982" lon="6.207660">
        <ele>575.500000</ele>
        <time>2009-11-20T22:28:16Z</time>
      </trkpt>
      <trkpt lat="50.602974" lon="6.207636">
        <ele>572.100000</ele>
        <time>2009-11-20T22:28:18Z</time>
      </trkpt>
      <trkpt lat="50.602988" lon="6.207650">
        <ele>572.100000</ele>
        <time>2009-11-20T22:28:19Z</time>
      </trkpt>
      <trkpt lat="50.602996" lon="6.207645">
        <ele>564.400000</ele>
        <time>2009-11-20T22:28:20Z</time>
      </trkpt>
      <trkpt lat="50.602995" lon="6.207646">
        <ele>574.500000</ele>
        <time>2009-11-20T22:28:21Z</time>
      </trkpt>
      <trkpt lat="50.602996" lon="6.207650">
        <ele>572.100000</ele>
        <time>2009-11-20T22:28:21Z</time>
      </trkpt>
      <trkpt lat="50.602946" lon="6.207669">
        <ele>571.200000</ele>
        <time>2009-11-20T22:28:26Z</time>
      </trkpt>
      <trkpt lat="50.603101" lon="6.207661">
        <ele>572.600000</ele>
        <time>2009-11-20T22:28:42Z</time>
      </trkpt>
      <trkpt lat="50.603141" lon="6.207671">
        <ele>572.100000</ele>
        <time>2009-11-20T22:28:46Z</time>
      </trkpt>
      <trkpt lat="50.603105" lon="6.207681">
        <ele>572.100000</ele>
        <time>2009-11-20T22:28:50Z</time>
      </trkpt>
      <trkpt lat="50.602999" lon="6.207648">
        <ele>573.100000</ele>
        <time>2009-11-20T22:29:01Z</time>
      </trkpt>
      <trkpt lat="50.603081" lon="6.207702">
        <ele>573.100000</ele>
        <time>2009-11-20T22:29:10Z</time>
      </trkpt>
      <trkpt lat="50.603190" lon="6.207711">
        <ele>572.100000</ele>
        <time>2009-11-20T22:29:22Z</time>
      </trkpt>
      <trkpt lat="50.603335" lon="6.207680">
        <ele>573.100000</ele>
        <time>2009-11-20T22:29:37Z</time>
      </trkpt>
      <trkpt lat="50.603229" lon="6.207673">
        <ele>573.100000</ele>
        <time>2009-11-20T22:29:48Z</time>
      </trkpt>
      <trkpt lat="50.603078" lon="6.207667">
        <ele>574.000000</ele>
        <time>2009-11-20T22:30:03Z</time>
      </trkpt>
      <trkpt lat="50.603066" lon="6.207630">
        <ele>574.000000</ele>
        <time>2009-11-20T22:30:06Z</time>
      </trkpt>
      <trkpt lat="50.603071" lon="6.207658">
        <ele>574.000000</ele>
        <time>2009-11-20T22:30:08Z</time>
      </trkpt>
      <trkpt lat="50.603146" lon="6.207695">
        <ele>573.600000</ele>
        <time>2009-11-20T22:30:16Z</time>
      </trkpt>
      <trkpt lat="50.603117" lon="6.207661">
        <ele>574.000000</ele>
        <time>2009-11-20T22:30:20Z</time>
      </trkpt>
      <trkpt lat="50.603110" lon="6.207650">
        <ele>574.500000</ele>
        <time>2009-11-20T22:30:21Z</time>
      </trkpt>
      <trkpt lat="50.603074" lon="6.207629">
        <ele>574.000000</ele>
        <time>2009-11-20T22:30:25Z</time>
      </trkpt>
      <trkpt lat="50.603160" lon="6.207643">
        <ele>574.500000</ele>
        <time>2009-11-20T22:30:33Z</time>
      </trkpt>
      <trkpt lat="50.603129" lon="6.207650">
        <ele>574.500000</ele>
        <time>2009-11-20T22:30:37Z</time>
      </trkpt>
      <trkpt lat="50.603174" lon="6.207642">
        <ele>575.500000</ele>
        <time>2009-11-20T22:30:41Z</time>
      </trkpt>
      <trkpt lat="50.603187" lon="6.207647">
        <ele>574.000000</ele>
        <time>2009-11-20T22:30:43Z</time>
      </trkpt>
      <trkpt lat="50.603045" lon="6.207657">
        <ele>574.000000</ele>
        <time>2009-11-20T22:30:57Z</time>
      </trkpt>
      <trkpt lat="50.603033" lon="6.207622">
        <ele>572.600000</ele>
        <time>2009-11-20T22:31:00Z</time>
      </trkpt>
      <trkpt lat="50.603114" lon="6.207665">
        <ele>574.500000</ele>
        <time>2009-11-20T22:31:09Z</time>
      </trkpt>
      <trkpt lat="50.603101" lon="6.207662">
        <ele>578.400000</ele>
        <time>2009-11-20T22:31:10Z</time>
      </trkpt>
      <trkpt lat="50.603099" lon="6.207663">
        <ele>575.000000</ele>
        <time>2009-11-20T22:31:10Z</time>
      </trkpt>
      <trkpt lat="50.603048" lon="6.207665">
        <ele>575.000000</ele>
        <time>2009-11-20T22:31:16Z</time>
      </trkpt>
      <trkpt lat="50.603047" lon="6.207668">
        <ele>571.200000</ele>
        <time>2009-11-20T22:31:16Z</time>
      </trkpt>
      <trkpt lat="50.603047" lon="6.207670">
        <ele>574.500000</ele>
        <time>2009-11-20T22:31:16Z</time>
      </trkpt>
      <trkpt lat="50.603043" lon="6.207670">
        <ele>571.200000</ele>
        <time>2009-11-20T22:31:16Z</time>
      </trkpt>
      <trkpt lat="50.603042" lon="6.207671">
        <ele>571.200000</ele>
        <time>2009-11-20T22:31:17Z</time>
      </trkpt>
      <trkpt lat="50.603042" lon="6.207672">
        <ele>575.500000</ele>
        <time>2009-11-20T22:31:17Z</time>
      </trkpt>
      <trkpt lat="50.603041" lon="6.207673">
        <ele>575.500000</ele>
        <time>2009-11-20T22:31:17Z</time>
      </trkpt>
      <trkpt lat="50.603041" lon="6.207673">
        <ele>572.100000</ele>
        <time>2009-11-20T22:31:17Z</time>
      </trkpt>
      <trkpt lat="50.603039" lon="6.207671">
        <ele>575.000000</ele>
        <time>2009-11-20T22:31:17Z</time>
      </trkpt>
      <trkpt lat="50.603030" lon="6.207663">
        <ele>571.600000</ele>
        <time>2009-11-20T22:31:18Z</time>
      </trkpt>
      <trkpt lat="50.603026" lon="6.207660">
        <ele>578.900000</ele>
        <time>2009-11-20T22:31:19Z</time>
      </trkpt>
      <trkpt lat="50.603025" lon="6.207659">
        <ele>574.500000</ele>
        <time>2009-11-20T22:31:19Z</time>
      </trkpt>
      <trkpt lat="50.603022" lon="6.207657">
        <ele>570.700000</ele>
        <time>2009-11-20T22:31:19Z</time>
      </trkpt>
      <trkpt lat="50.603021" lon="6.207656">
        <ele>575.000000</ele>
        <time>2009-11-20T22:31:19Z</time>
      </trkpt>
      <trkpt lat="50.603022" lon="6.207660">
        <ele>571.200000</ele>
        <time>2009-11-20T22:31:19Z</time>
      </trkpt>
      <trkpt lat="50.603022" lon="6.207662">
        <ele>576.900000</ele>
        <time>2009-11-20T22:31:20Z</time>
      </trkpt>
      <trkpt lat="50.603022" lon="6.207663">
        <ele>573.100000</ele>
        <time>2009-11-20T22:31:20Z</time>
      </trkpt>
      <trkpt lat="50.603023" lon="6.207665">
        <ele>576.400000</ele>
        <time>2009-11-20T22:31:20Z</time>
      </trkpt>
      <trkpt lat="50.603023" lon="6.207666">
        <ele>573.100000</ele>
        <time>2009-11-20T22:31:20Z</time>
      </trkpt>
      <trkpt lat="50.603023" lon="6.207667">
        <ele>576.900000</ele>
        <time>2009-11-20T22:31:20Z</time>
      </trkpt>
      <trkpt lat="50.603023" lon="6.207670">
        <ele>572.600000</ele>
        <time>2009-11-20T22:31:20Z</time>
      </trkpt>
      <trkpt lat="50.603023" lon="6.207671">
        <ele>575.500000</ele>
        <time>2009-11-20T22:31:20Z</time>
      </trkpt>
      <trkpt lat="50.603023" lon="6.207673">
        <ele>572.100000</ele>
        <time>2009-11-20T22:31:20Z</time>
      </trkpt>
      <trkpt lat="50.603023" lon="6.207674">
        <ele>575.000000</ele>
        <time>2009-11-20T22:31:20Z</time>
      </trkpt>
      <trkpt lat="50.603023" lon="6.207679">
        <ele>579.300000</ele>
        <time>2009-11-20T22:31:20Z</time>
      </trkpt>
      <trkpt lat="50.603024" lon="6.207680">
        <ele>574.500000</ele>
        <time>2009-11-20T22:31:20Z</time>
      </trkpt>
      <trkpt lat="50.603024" lon="6.207685">
        <ele>576.000000</ele>
        <time>2009-11-20T22:31:21Z</time>
      </trkpt>
      <trkpt lat="50.603025" lon="6.207687">
        <ele>571.200000</ele>
        <time>2009-11-20T22:31:21Z</time>
      </trkpt>
      <trkpt lat="50.603025" lon="6.207687">
        <ele>575.500000</ele>
        <time>2009-11-20T22:31:21Z</time>
      </trkpt>
      <trkpt lat="50.603025" lon="6.207688">
        <ele>576.400000</ele>
        <time>2009-11-20T22:31:21Z</time>
      </trkpt>
      <trkpt lat="50.603025" lon="6.207689">
        <ele>575.500000</ele>
        <time>2009-11-20T22:31:21Z</time>
      </trkpt>
      <trkpt lat="50.603023" lon="6.207694">
        <ele>572.600000</ele>
        <time>2009-11-20T22:31:21Z</time>
      </trkpt>
      <trkpt lat="50.603023" lon="6.207694">
        <ele>576.400000</ele>
        <time>2009-11-20T22:31:21Z</time>
      </trkpt>
      <trkpt lat="50.603022" lon="6.207694">
        <ele>572.100000</ele>
        <time>2009-11-20T22:31:21Z</time>
      </trkpt>
      <trkpt lat="50.603022" lon="6.207694">
        <ele>575.500000</ele>
        <time>2009-11-20T22:31:21Z</time>
      </trkpt>
      <trkpt lat="50.603021" lon="6.207695">
        <ele>574.000000</ele>
        <time>2009-11-20T22:31:22Z</time>
      </trkpt>
      <trkpt lat="50.603021" lon="6.207696">
        <ele>578.400000</ele>
        <time>2009-11-20T22:31:22Z</time>
      </trkpt>
      <trkpt lat="50.603021" lon="6.207696">
        <ele>575.000000</ele>
        <time>2009-11-20T22:31:22Z</time>
      </trkpt>
      <trkpt lat="50.603020" lon="6.207696">
        <ele>571.200000</ele>
        <time>2009-11-20T22:31:22Z</time>
      </trkpt>
      <trkpt lat="50.603020" lon="6.207696">
        <ele>578.400000</ele>
        <time>2009-11-20T22:31:22Z</time>
      </trkpt>
      <trkpt lat="50.603019" lon="6.207696">
        <ele>574.500000</ele>
        <time>2009-11-20T22:31:22Z</time>
      </trkpt>
      <trkpt lat="50.603021" lon="6.207700">
        <ele>572.600000</ele>
        <time>2009-11-20T22:31:22Z</time>
      </trkpt>
      <trkpt lat="50.603020" lon="6.207700">
        <ele>577.900000</ele>
        <time>2009-11-20T22:31:22Z</time>
      </trkpt>
      <trkpt lat="50.603021" lon="6.207703">
        <ele>574.000000</ele>
        <time>2009-11-20T22:31:22Z</time>
      </trkpt>
      <trkpt lat="50.603022" lon="6.207702">
        <ele>576.400000</ele>
        <time>2009-11-20T22:31:22Z</time>
      </trkpt>
      <trkpt lat="50.603005" lon="6.207693">
        <ele>574.500000</ele>
        <time>2009-11-20T22:31:24Z</time>
      </trkpt>
      <trkpt lat="50.603004" lon="6.207636">
        <ele>576.000000</ele>
        <time>2009-11-20T22:31:28Z</time>
      </trkpt>
      <trkpt lat="50.602948" lon="6.207625">
        <ele>577.400000</ele>
        <time>2009-11-20T22:31:34Z</time>
      </trkpt>
      <trkpt lat="50.602940" lon="6.207627">
        <ele>576.900000</ele>
        <time>2009-11-20T22:31:34Z</time>
      </trkpt>
      <trkpt lat="50.602816" lon="6.207739">
        <ele>576.900000</ele>
        <time>2009-11-20T22:31:49Z</time>
      </trkpt>
      <trkpt lat="50.602686" lon="6.207860">
        <ele>576.000000</ele>
        <time>2009-11-20T22:32:05Z</time>
      </trkpt>
      <trkpt lat="50.602597" lon="6.208069">
        <ele>576.000000</ele>
        <time>2009-11-20T22:32:21Z</time>
      </trkpt>
      <trkpt lat="50.602592" lon="6.208090">
        <ele>576.000000</ele>
        <time>2009-11-20T22:32:23Z</time>
      </trkpt>
      <trkpt lat="50.602530" lon="6.208177">
        <ele>576.000000</ele>
        <time>2009-11-20T22:32:31Z</time>
      </trkpt>
      <trkpt lat="50.602439" lon="6.208216">
        <ele>576.000000</ele>
        <time>2009-11-20T22:32:41Z</time>
      </trkpt>
      <trkpt lat="50.602419" lon="6.208207">
        <ele>576.000000</ele>
        <time>2009-11-20T22:32:43Z</time>
      </trkpt>
      <trkpt lat="50.602400" lon="6.208193">
        <ele>576.000000</ele>
        <time>2009-11-20T22:32:45Z</time>
      </trkpt>
      <trkpt lat="50.602323" lon="6.208145">
        <ele>576.000000</ele>
        <time>2009-11-20T22:32:54Z</time>
      </trkpt>
      <trkpt lat="50.602273" lon="6.208203">
        <ele>575.000000</ele>
        <time>2009-11-20T22:33:00Z</time>
      </trkpt>
      <trkpt lat="50.602182" lon="6.208385">
        <ele>575.500000</ele>
        <time>2009-11-20T22:33:15Z</time>
      </trkpt>
      <trkpt lat="50.602174" lon="6.208396">
        <ele>575.000000</ele>
        <time>2009-11-20T22:33:16Z</time>
      </trkpt>
      <trkpt lat="50.602094" lon="6.208359">
        <ele>575.500000</ele>
        <time>2009-11-20T22:33:25Z</time>
      </trkpt>
      <trkpt lat="50.602018" lon="6.208344">
        <ele>576.400000</ele>
        <time>2009-11-20T22:33:33Z</time>
      </trkpt>
      <trkpt lat="50.601901" lon="6.208392">
        <ele>576.900000</ele>
        <time>2009-11-20T22:33:45Z</time>
      </trkpt>
      <trkpt lat="50.601674" lon="6.208470">
        <ele>576.400000</ele>
        <time>2009-11-20T22:34:09Z</time>
      </trkpt>
      <trkpt lat="50.601430" lon="6.208601">
        <ele>575.500000</ele>
        <time>2009-11-20T22:34:36Z</time>
      </trkpt>
      <trkpt lat="50.601143" lon="6.208682">
        <ele>576.000000</ele>
        <time>2009-11-20T22:35:06Z</time>
      </trkpt>
      <trkpt lat="50.600823" lon="6.208822">
        <ele>576.400000</ele>
        <time>2009-11-20T22:35:40Z</time>
      </trkpt>
      <trkpt lat="50.600613" lon="6.208757">
        <ele>577.400000</ele>
        <time>2009-11-20T22:36:02Z</time>
      </trkpt>
      <trkpt lat="50.600380" lon="6.208788">
        <ele>576.900000</ele>
        <time>2009-11-20T22:36:26Z</time>
      </trkpt>
      <trkpt lat="50.600181" lon="6.208956">
        <ele>577.900000</ele>
        <time>2009-11-20T22:36:50Z</time>
      </trkpt>
      <trkpt lat="50.600014" lon="6.209302">
        <ele>578.400000</ele>
        <time>2009-11-20T22:37:18Z</time>
      </trkpt>
      <trkpt lat="50.599770" lon="6.209536">
        <ele>579.800000</ele>
        <time>2009-11-20T22:37:48Z</time>
      </trkpt>
      <trkpt lat="50.599539" lon="6.209812">
        <ele>579.800000</ele>
        <time>2009-11-20T22:38:17Z</time>
      </trkpt>
      <trkpt lat="50.599275" lon="6.209915">
        <ele>580.300000</ele>
        <time>2009-11-20T22:38:45Z</time>
      </trkpt>
      <trkpt lat="50.598974" lon="6.209958">
        <ele>581.700000</ele>
        <time>2009-11-20T22:39:17Z</time>
      </trkpt>
      <trkpt lat="50.598689" lon="6.210083">
        <ele>581.700000</ele>
        <time>2009-11-20T22:39:47Z</time>
      </trkpt>
      <trkpt lat="50.598461" lon="6.210034">
        <ele>582.200000</ele>
        <time>2009-11-20T22:40:11Z</time>
      </trkpt>
      <trkpt lat="50.598142" lon="6.209945">
        <ele>582.700000</ele>
        <time>2009-11-20T22:40:44Z</time>
      </trkpt>
      <trkpt lat="50.597884" lon="6.209879">
        <ele>583.700000</ele>
        <time>2009-11-20T22:41:11Z</time>
      </trkpt>
      <trkpt lat="50.597534" lon="6.209857">
        <ele>585.100000</ele>
        <time>2009-11-20T22:41:47Z</time>
      </trkpt>
      <trkpt lat="50.597195" lon="6.209861">
        <ele>587.000000</ele>
        <time>2009-11-20T22:42:22Z</time>
      </trkpt>
      <trkpt lat="50.596855" lon="6.209936">
        <ele>587.000000</ele>
        <time>2009-11-20T22:42:58Z</time>
      </trkpt>
      <trkpt lat="50.596589" lon="6.210048">
        <ele>588.500000</ele>
        <time>2009-11-20T22:43:26Z</time>
      </trkpt>
      <trkpt lat="50.596276" lon="6.210228">
        <ele>588.900000</ele>
        <time>2009-11-20T22:44:00Z</time>
      </trkpt>
      <trkpt lat="50.596023" lon="6.210260">
        <ele>589.400000</ele>
        <time>2009-11-20T22:44:26Z</time>
      </trkpt>
      <trkpt lat="50.595885" lon="6.210292">
        <ele>590.400000</ele>
        <time>2009-11-20T22:44:41Z</time>
      </trkpt>
      <trkpt lat="50.595833" lon="6.210305">
        <ele>590.400000</ele>
        <time>2009-11-20T22:44:46Z</time>
      </trkpt>
      <trkpt lat="50.595555" lon="6.210438">
        <ele>590.900000</ele>
        <time>2009-11-20T22:45:16Z</time>
      </trkpt>
      <trkpt lat="50.595284" lon="6.210597">
        <ele>591.300000</ele>
        <time>2009-11-20T22:45:46Z</time>
      </trkpt>
      <trkpt lat="50.595105" lon="6.210513">
        <ele>591.800000</ele>
        <time>2009-11-20T22:46:05Z</time>
      </trkpt>
      <trkpt lat="50.594926" lon="6.210584">
        <ele>592.300000</ele>
        <time>2009-11-20T22:46:24Z</time>
      </trkpt>
      <trkpt lat="50.594771" lon="6.210713">
        <ele>592.800000</ele>
        <time>2009-11-20T22:46:42Z</time>
      </trkpt>
      <trkpt lat="50.594531" lon="6.210815">
        <ele>593.800000</ele>
        <time>2009-11-20T22:47:08Z</time>
      </trkpt>
      <trkpt lat="50.594305" lon="6.210851">
        <ele>594.200000</ele>
        <time>2009-11-20T22:47:31Z</time>
      </trkpt>
      <trkpt lat="50.594095" lon="6.210872">
        <ele>595.200000</ele>
        <time>2009-11-20T22:47:53Z</time>
      </trkpt>
      <trkpt lat="50.593973" lon="6.210927">
        <ele>595.200000</ele>
        <time>2009-11-20T22:48:06Z</time>
      </trkpt>
      <trkpt lat="50.593803" lon="6.211032">
        <ele>595.700000</ele>
        <time>2009-11-20T22:48:25Z</time>
      </trkpt>
      <trkpt lat="50.593589" lon="6.211159">
        <ele>596.600000</ele>
        <time>2009-11-20T22:48:49Z</time>
      </trkpt>
      <trkpt lat="50.593376" lon="6.211184">
        <ele>597.100000</ele>
        <time>2009-11-20T22:49:11Z</time>
      </trkpt>
      <trkpt lat="50.593200" lon="6.211194">
        <ele>597.100000</ele>
        <time>2009-11-20T22:49:29Z</time>
      </trkpt>
      <trkpt lat="50.593011" lon="6.211174">
        <ele>597.600000</ele>
        <time>2009-11-20T22:49:48Z</time>
      </trkpt>
      <trkpt lat="50.592776" lon="6.211144">
        <ele>598.600000</ele>
        <time>2009-11-20T22:50:13Z</time>
      </trkpt>
      <trkpt lat="50.592529" lon="6.211072">
        <ele>599.500000</ele>
        <time>2009-11-20T22:50:39Z</time>
      </trkpt>
      <trkpt lat="50.592273" lon="6.211054">
        <ele>600.500000</ele>
        <time>2009-11-20T22:51:05Z</time>
      </trkpt>
      <trkpt lat="50.592026" lon="6.211062">
        <ele>601.400000</ele>
        <time>2009-11-20T22:51:30Z</time>
      </trkpt>
      <trkpt lat="50.591797" lon="6.211039">
        <ele>601.900000</ele>
        <time>2009-11-20T22:51:54Z</time>
      </trkpt>
      <trkpt lat="50.591527" lon="6.211014">
        <ele>602.900000</ele>
        <time>2009-11-20T22:52:22Z</time>
      </trkpt>
      <trkpt lat="50.591263" lon="6.210998">
        <ele>603.800000</ele>
        <time>2009-11-20T22:52:49Z</time>
      </trkpt>
      <trkpt lat="50.590950" lon="6.211001">
        <ele>604.800000</ele>
        <time>2009-11-20T22:53:21Z</time>
      </trkpt>
      <trkpt lat="50.590707" lon="6.210974">
        <ele>605.300000</ele>
        <time>2009-11-20T22:53:47Z</time>
      </trkpt>
      <trkpt lat="50.590525" lon="6.210959">
        <ele>605.800000</ele>
        <time>2009-11-20T22:54:05Z</time>
      </trkpt>
      <trkpt lat="50.590352" lon="6.210946">
        <ele>605.800000</ele>
        <time>2009-11-20T22:54:23Z</time>
      </trkpt>
      <trkpt lat="50.590313" lon="6.210940">
        <ele>606.700000</ele>
        <time>2009-11-20T22:54:27Z</time>
      </trkpt>
      <trkpt lat="50.590261" lon="6.210658">
        <ele>605.800000</ele>
        <time>2009-11-20T22:54:46Z</time>
      </trkpt>
      <trkpt lat="50.590227" lon="6.210249">
        <ele>606.200000</ele>
        <time>2009-11-20T22:55:13Z</time>
      </trkpt>
      <trkpt lat="50.590178" lon="6.209703">
        <ele>606.200000</ele>
        <time>2009-11-20T22:55:50Z</time>
      </trkpt>
      <trkpt lat="50.590124" lon="6.209176">
        <ele>607.200000</ele>
        <time>2009-11-20T22:56:24Z</time>
      </trkpt>
      <trkpt lat="50.590090" lon="6.208893">
        <ele>605.300000</ele>
        <time>2009-11-20T22:56:43Z</time>
      </trkpt>
      <trkpt lat="50.590044" lon="6.208426">
        <ele>605.300000</ele>
        <time>2009-11-20T22:57:14Z</time>
      </trkpt>
      <trkpt lat="50.590003" lon="6.208076">
        <ele>605.800000</ele>
        <time>2009-11-20T22:57:38Z</time>
      </trkpt>
      <trkpt lat="50.589874" lon="6.207697">
        <ele>605.300000</ele>
        <time>2009-11-20T22:58:06Z</time>
      </trkpt>
      <trkpt lat="50.589715" lon="6.207353">
        <ele>604.800000</ele>
        <time>2009-11-20T22:58:34Z</time>
      </trkpt>
      <trkpt lat="50.589555" lon="6.207009">
        <ele>604.800000</ele>
        <time>2009-11-20T22:59:01Z</time>
      </trkpt>
      <trkpt lat="50.589425" lon="6.206739">
        <ele>605.300000</ele>
        <time>2009-11-20T22:59:24Z</time>
      </trkpt>
      <trkpt lat="50.589303" lon="6.206503">
        <ele>605.300000</ele>
        <time>2009-11-20T22:59:44Z</time>
      </trkpt>
      <trkpt lat="50.589170" lon="6.206205">
        <ele>605.800000</ele>
        <time>2009-11-20T23:00:07Z</time>
      </trkpt>
      <trkpt lat="50.589065" lon="6.205969">
        <ele>605.800000</ele>
        <time>2009-11-20T23:00:26Z</time>
      </trkpt>
      <trkpt lat="50.588972" lon="6.205782">
        <ele>605.300000</ele>
        <time>2009-11-20T23:00:42Z</time>
      </trkpt>
      <trkpt lat="50.588812" lon="6.205448">
        <ele>605.300000</ele>
        <time>2009-11-20T23:01:09Z</time>
      </trkpt>
      <trkpt lat="50.588650" lon="6.205084">
        <ele>605.300000</ele>
        <time>2009-11-20T23:01:38Z</time>
      </trkpt>
      <trkpt lat="50.588502" lon="6.204745">
        <ele>604.800000</ele>
        <time>2009-11-20T23:02:05Z</time>
      </trkpt>
      <trkpt lat="50.588389" lon="6.204499">
        <ele>605.300000</ele>
        <time>2009-11-20T23:02:25Z</time>
      </trkpt>
      <trkpt lat="50.588243" lon="6.204208">
        <ele>605.300000</ele>
        <time>2009-11-20T23:02:49Z</time>
      </trkpt>
      <trkpt lat="50.588109" lon="6.203960">
        <ele>604.800000</ele>
        <time>2009-11-20T23:03:11Z</time>
      </trkpt>
      <trkpt lat="50.587982" lon="6.203757">
        <ele>605.300000</ele>
        <time>2009-11-20T23:03:29Z</time>
      </trkpt>
      <trkpt lat="50.587893" lon="6.203577">
        <ele>604.800000</ele>
        <time>2009-11-20T23:03:44Z</time>
      </trkpt>
      <trkpt lat="50.587773" lon="6.203387">
        <ele>604.300000</ele>
        <time>2009-11-20T23:04:02Z</time>
      </trkpt>
      <trkpt lat="50.587647" lon="6.203193">
        <ele>604.300000</ele>
        <time>2009-11-20T23:04:20Z</time>
      </trkpt>
      <trkpt lat="50.587554" lon="6.203011">
        <ele>604.300000</ele>
        <time>2009-11-20T23:04:35Z</time>
      </trkpt>
      <trkpt lat="50.587414" lon="6.202746">
        <ele>603.800000</ele>
        <time>2009-11-20T23:04:58Z</time>
      </trkpt>
      <trkpt lat="50.587299" lon="6.202529">
        <ele>603.800000</ele>
        <time>2009-11-20T23:05:16Z</time>
      </trkpt>
      <trkpt lat="50.587190" lon="6.202337">
        <ele>602.900000</ele>
        <time>2009-11-20T23:05:33Z</time>
      </trkpt>
      <trkpt lat="50.587095" lon="6.202156">
        <ele>602.400000</ele>
        <time>2009-11-20T23:05:48Z</time>
      </trkpt>
      <trkpt lat="50.586950" lon="6.201863">
        <ele>602.400000</ele>
        <time>2009-11-20T23:06:13Z</time>
      </trkpt>
      <trkpt lat="50.586849" lon="6.201523">
        <ele>601.400000</ele>
        <time>2009-11-20T23:06:37Z</time>
      </trkpt>
      <trkpt lat="50.586734" lon="6.201111">
        <ele>601.400000</ele>
        <time>2009-11-20T23:07:07Z</time>
      </trkpt>
      <trkpt lat="50.586593" lon="6.200672">
        <ele>600.500000</ele>
        <time>2009-11-20T23:07:39Z</time>
      </trkpt>
      <trkpt lat="50.586446" lon="6.200168">
        <ele>600.500000</ele>
        <time>2009-11-20T23:08:15Z</time>
      </trkpt>
      <trkpt lat="50.586302" lon="6.199664">
        <ele>600.000000</ele>
        <time>2009-11-20T23:08:51Z</time>
      </trkpt>
      <trkpt lat="50.586202" lon="6.199326">
        <ele>599.500000</ele>
        <time>2009-11-20T23:09:16Z</time>
      </trkpt>
      <trkpt lat="50.586098" lon="6.198951">
        <ele>599.000000</ele>
        <time>2009-11-20T23:09:43Z</time>
      </trkpt>
      <trkpt lat="50.585954" lon="6.198487">
        <ele>598.600000</ele>
        <time>2009-11-20T23:10:16Z</time>
      </trkpt>
      <trkpt lat="50.585814" lon="6.198016">
        <ele>598.100000</ele>
        <time>2009-11-20T23:10:51Z</time>
      </trkpt>
      <trkpt lat="50.585690" lon="6.197587">
        <ele>597.100000</ele>
        <time>2009-11-20T23:11:21Z</time>
      </trkpt>
      <trkpt lat="50.585572" lon="6.197205">
        <ele>596.600000</ele>
        <time>2009-11-20T23:11:49Z</time>
      </trkpt>
      <trkpt lat="50.585470" lon="6.196839">
        <ele>595.700000</ele>
        <time>2009-11-20T23:12:15Z</time>
      </trkpt>
      <trkpt lat="50.585322" lon="6.196297">
        <ele>595.700000</ele>
        <time>2009-11-20T23:12:54Z</time>
      </trkpt>
      <trkpt lat="50.585236" lon="6.195943">
        <ele>594.200000</ele>
        <time>2009-11-20T23:13:19Z</time>
      </trkpt>
      <trkpt lat="50.585148" lon="6.195573">
        <ele>593.800000</ele>
        <time>2009-11-20T23:13:45Z</time>
      </trkpt>
      <trkpt lat="50.585023" lon="6.195014">
        <ele>592.300000</ele>
        <time>2009-11-20T23:14:23Z</time>
      </trkpt>
      <trkpt lat="50.584988" lon="6.194860">
        <ele>591.800000</ele>
        <time>2009-11-20T23:14:34Z</time>
      </trkpt>
      <trkpt lat="50.584863" lon="6.194335">
        <ele>591.300000</ele>
        <time>2009-11-20T23:15:11Z</time>
      </trkpt>
      <trkpt lat="50.584746" lon="6.193821">
        <ele>590.900000</ele>
        <time>2009-11-20T23:15:47Z</time>
      </trkpt>
      <trkpt lat="50.584626" lon="6.193306">
        <ele>589.900000</ele>
        <time>2009-11-20T23:16:22Z</time>
      </trkpt>
      <trkpt lat="50.584510" lon="6.192796">
        <ele>588.000000</ele>
        <time>2009-11-20T23:16:58Z</time>
      </trkpt>
      <trkpt lat="50.584428" lon="6.192404">
        <ele>588.000000</ele>
        <time>2009-11-20T23:17:25Z</time>
      </trkpt>
      <trkpt lat="50.584359" lon="6.192153">
        <ele>587.000000</ele>
        <time>2009-11-20T23:17:43Z</time>
      </trkpt>
      <trkpt lat="50.584258" lon="6.191695">
        <ele>586.500000</ele>
        <time>2009-11-20T23:18:15Z</time>
      </trkpt>
      <trkpt lat="50.584159" lon="6.191292">
        <ele>585.100000</ele>
        <time>2009-11-20T23:18:43Z</time>
      </trkpt>
      <trkpt lat="50.584049" lon="6.190854">
        <ele>584.600000</ele>
        <time>2009-11-20T23:19:14Z</time>
      </trkpt>
      <trkpt lat="50.583945" lon="6.190412">
        <ele>583.700000</ele>
        <time>2009-11-20T23:19:45Z</time>
      </trkpt>
      <trkpt lat="50.583862" lon="6.190001">
        <ele>582.700000</ele>
        <time>2009-11-20T23:20:13Z</time>
      </trkpt>
      <trkpt lat="50.583749" lon="6.189692">
        <ele>582.700000</ele>
        <time>2009-11-20T23:20:36Z</time>
      </trkpt>
      <trkpt lat="50.583630" lon="6.189511">
        <ele>582.200000</ele>
        <time>2009-11-20T23:20:53Z</time>
      </trkpt>
      <trkpt lat="50.583531" lon="6.189375">
        <ele>582.700000</ele>
        <time>2009-11-20T23:21:07Z</time>
      </trkpt>
      <trkpt lat="50.583426" lon="6.189244">
        <ele>581.700000</ele>
        <time>2009-11-20T23:21:20Z</time>
      </trkpt>
      <trkpt lat="50.583234" lon="6.189014">
        <ele>581.300000</ele>
        <time>2009-11-20T23:21:45Z</time>
      </trkpt>
      <trkpt lat="50.583030" lon="6.188758">
        <ele>580.800000</ele>
        <time>2009-11-20T23:22:12Z</time>
      </trkpt>
      <trkpt lat="50.582860" lon="6.188537">
        <ele>581.300000</ele>
        <time>2009-11-20T23:22:35Z</time>
      </trkpt>
      <trkpt lat="50.582641" lon="6.188260">
        <ele>580.300000</ele>
        <time>2009-11-20T23:23:04Z</time>
      </trkpt>
      <trkpt lat="50.582450" lon="6.188006">
        <ele>579.800000</ele>
        <time>2009-11-20T23:23:30Z</time>
      </trkpt>
      <trkpt lat="50.582285" lon="6.187810">
        <ele>579.800000</ele>
        <time>2009-11-20T23:23:51Z</time>
      </trkpt>
      <trkpt lat="50.582059" lon="6.187532">
        <ele>579.300000</ele>
        <time>2009-11-20T23:24:21Z</time>
      </trkpt>
      <trkpt lat="50.581869" lon="6.187276">
        <ele>579.300000</ele>
        <time>2009-11-20T23:24:46Z</time>
      </trkpt>
      <trkpt lat="50.581676" lon="6.187024">
        <ele>579.800000</ele>
        <time>2009-11-20T23:25:12Z</time>
      </trkpt>
      <trkpt lat="50.581511" lon="6.186819">
        <ele>579.300000</ele>
        <time>2009-11-20T23:25:34Z</time>
      </trkpt>
      <trkpt lat="50.581309" lon="6.186551">
        <ele>578.400000</ele>
        <time>2009-11-20T23:26:01Z</time>
      </trkpt>
      <trkpt lat="50.581080" lon="6.186236">
        <ele>578.400000</ele>
        <time>2009-11-20T23:26:32Z</time>
      </trkpt>
      <trkpt lat="50.580947" lon="6.186057">
        <ele>578.400000</ele>
        <time>2009-11-20T23:26:50Z</time>
      </trkpt>
      <trkpt lat="50.580740" lon="6.185764">
        <ele>577.900000</ele>
        <time>2009-11-20T23:27:19Z</time>
      </trkpt>
      <trkpt lat="50.580612" lon="6.185616">
        <ele>577.400000</ele>
        <time>2009-11-20T23:27:35Z</time>
      </trkpt>
      <trkpt lat="50.580441" lon="6.185371">
        <ele>577.900000</ele>
        <time>2009-11-20T23:27:59Z</time>
      </trkpt>
      <trkpt lat="50.580377" lon="6.185287">
        <ele>577.400000</ele>
        <time>2009-11-20T23:28:08Z</time>
      </trkpt>
      <trkpt lat="50.580337" lon="6.185200">
        <ele>577.400000</ele>
        <time>2009-11-20T23:28:15Z</time>
      </trkpt>
      <trkpt lat="50.580254" lon="6.185069">
        <ele>578.400000</ele>
        <time>2009-11-20T23:28:27Z</time>
      </trkpt>
      <trkpt lat="50.580163" lon="6.184926">
        <ele>580.300000</ele>
        <time>2009-11-20T23:28:40Z</time>
      </trkpt>
      <trkpt lat="50.580019" lon="6.184783">
        <ele>578.400000</ele>
        <time>2009-11-20T23:28:58Z</time>
      </trkpt>
      <trkpt lat="50.579901" lon="6.184587">
        <ele>578.900000</ele>
        <time>2009-11-20T23:29:16Z</time>
      </trkpt>
      <trkpt lat="50.579746" lon="6.184341">
        <ele>578.900000</ele>
        <time>2009-11-20T23:29:38Z</time>
      </trkpt>
      <trkpt lat="50.579601" lon="6.184122">
        <ele>579.300000</ele>
        <time>2009-11-20T23:29:59Z</time>
      </trkpt>
      <trkpt lat="50.579581" lon="6.184106">
        <ele>579.300000</ele>
        <time>2009-11-20T23:30:01Z</time>
      </trkpt>
      <trkpt lat="50.579593" lon="6.184146">
        <ele>579.300000</ele>
        <time>2009-11-20T23:30:04Z</time>
      </trkpt>
      <trkpt lat="50.579599" lon="6.184152">
        <ele>579.300000</ele>
        <time>2009-11-20T23:30:05Z</time>
      </trkpt>
      <trkpt lat="50.579603" lon="6.184199">
        <ele>580.800000</ele>
        <time>2009-11-20T23:30:08Z</time>
      </trkpt>
      <trkpt lat="50.579665" lon="6.184258">
        <ele>579.800000</ele>
        <time>2009-11-20T23:30:15Z</time>
      </trkpt>
      <trkpt lat="50.579628" lon="6.184244">
        <ele>579.800000</ele>
        <time>2009-11-20T23:30:19Z</time>
      </trkpt>
      <trkpt lat="50.579595" lon="6.184139">
        <ele>582.700000</ele>
        <time>2009-11-20T23:30:27Z</time>
      </trkpt>
      <trkpt lat="50.579581" lon="6.184114">
        <ele>581.300000</ele>
        <time>2009-11-20T23:30:29Z</time>
      </trkpt>
      <trkpt lat="50.579552" lon="6.184171">
        <ele>581.700000</ele>
        <time>2009-11-20T23:30:34Z</time>
      </trkpt>
      <trkpt lat="50.579485" lon="6.184144">
        <ele>582.200000</ele>
        <time>2009-11-20T23:30:41Z</time>
      </trkpt>
      <trkpt lat="50.579348" lon="6.183909">
        <ele>582.200000</ele>
        <time>2009-11-20T23:31:02Z</time>
      </trkpt>
      <trkpt lat="50.579163" lon="6.183676">
        <ele>582.200000</ele>
        <time>2009-11-20T23:31:26Z</time>
      </trkpt>
      <trkpt lat="50.578949" lon="6.183400">
        <ele>583.200000</ele>
        <time>2009-11-20T23:31:55Z</time>
      </trkpt>
      <trkpt lat="50.578641" lon="6.183005">
        <ele>584.600000</ele>
        <time>2009-11-20T23:32:36Z</time>
      </trkpt>
      <trkpt lat="50.578394" lon="6.182705">
        <ele>586.100000</ele>
        <time>2009-11-20T23:33:08Z</time>
      </trkpt>
      <trkpt lat="50.578188" lon="6.182460">
        <ele>586.500000</ele>
        <time>2009-11-20T23:33:35Z</time>
      </trkpt>
      <trkpt lat="50.577992" lon="6.182115">
        <ele>588.000000</ele>
        <time>2009-11-20T23:34:05Z</time>
      </trkpt>
      <trkpt lat="50.577958" lon="6.182075">
        <ele>588.500000</ele>
        <time>2009-11-20T23:34:09Z</time>
      </trkpt>
      <trkpt lat="50.577815" lon="6.181815">
        <ele>589.400000</ele>
        <time>2009-11-20T23:34:32Z</time>
      </trkpt>
      <trkpt lat="50.577763" lon="6.181446">
        <ele>589.900000</ele>
        <time>2009-11-20T23:34:57Z</time>
      </trkpt>
      <trkpt lat="50.577725" lon="6.181429">
        <ele>589.900000</ele>
        <time>2009-11-20T23:35:01Z</time>
      </trkpt>
      <trkpt lat="50.577615" lon="6.181495">
        <ele>589.900000</ele>
        <time>2009-11-20T23:35:13Z</time>
      </trkpt>
      <trkpt lat="50.577647" lon="6.181537">
        <ele>589.400000</ele>
        <time>2009-11-20T23:35:17Z</time>
      </trkpt>
      <trkpt lat="50.577652" lon="6.181486">
        <ele>590.400000</ele>
        <time>2009-11-20T23:35:20Z</time>
      </trkpt>
      <trkpt lat="50.577563" lon="6.181372">
        <ele>590.400000</ele>
        <time>2009-11-20T23:35:32Z</time>
      </trkpt>
      <trkpt lat="50.577407" lon="6.181180">
        <ele>592.300000</ele>
        <time>2009-11-20T23:35:53Z</time>
      </trkpt>
      <trkpt lat="50.577248" lon="6.181035">
        <ele>592.300000</ele>
        <time>2009-11-20T23:36:12Z</time>
      </trkpt>
      <trkpt lat="50.577164" lon="6.180822">
        <ele>594.700000</ele>
        <time>2009-11-20T23:36:28Z</time>
      </trkpt>
      <trkpt lat="50.577131" lon="6.180819">
        <ele>592.800000</ele>
        <time>2009-11-20T23:36:31Z</time>
      </trkpt>
      <trkpt lat="50.577093" lon="6.180828">
        <ele>593.300000</ele>
        <time>2009-11-20T23:36:35Z</time>
      </trkpt>
      <trkpt lat="50.576909" lon="6.180884">
        <ele>593.300000</ele>
        <time>2009-11-20T23:36:55Z</time>
      </trkpt>
      <trkpt lat="50.576752" lon="6.181018">
        <ele>593.800000</ele>
        <time>2009-11-20T23:37:13Z</time>
      </trkpt>
      <trkpt lat="50.576560" lon="6.181084">
        <ele>593.800000</ele>
        <time>2009-11-20T23:37:33Z</time>
      </trkpt>
      <trkpt lat="50.576320" lon="6.181151">
        <ele>594.200000</ele>
        <time>2009-11-20T23:37:59Z</time>
      </trkpt>
      <trkpt lat="50.576067" lon="6.181241">
        <ele>594.700000</ele>
        <time>2009-11-20T23:38:25Z</time>
      </trkpt>
      <trkpt lat="50.575767" lon="6.181362">
        <ele>594.700000</ele>
        <time>2009-11-20T23:38:57Z</time>
      </trkpt>
      <trkpt lat="50.575494" lon="6.181508">
        <ele>594.200000</ele>
        <time>2009-11-20T23:39:27Z</time>
      </trkpt>
      <trkpt lat="50.575245" lon="6.181771">
        <ele>594.200000</ele>
        <time>2009-11-20T23:39:58Z</time>
      </trkpt>
      <trkpt lat="50.575224" lon="6.181875">
        <ele>593.800000</ele>
        <time>2009-11-20T23:40:05Z</time>
      </trkpt>
      <trkpt lat="50.575200" lon="6.182032">
        <ele>593.800000</ele>
        <time>2009-11-20T23:40:15Z</time>
      </trkpt>
      <trkpt lat="50.575113" lon="6.182573">
        <ele>593.800000</ele>
        <time>2009-11-20T23:40:52Z</time>
      </trkpt>
      <trkpt lat="50.574984" lon="6.182728">
        <ele>593.300000</ele>
        <time>2009-11-20T23:41:09Z</time>
      </trkpt>
      <trkpt lat="50.574892" lon="6.182931">
        <ele>594.700000</ele>
        <time>2009-11-20T23:41:25Z</time>
      </trkpt>
      <trkpt lat="50.574815" lon="6.183403">
        <ele>594.700000</ele>
        <time>2009-11-20T23:41:57Z</time>
      </trkpt>
      <trkpt lat="50.574771" lon="6.183617">
        <ele>595.200000</ele>
        <time>2009-11-20T23:42:12Z</time>
      </trkpt>
      <trkpt lat="50.574858" lon="6.183918">
        <ele>593.800000</ele>
        <time>2009-11-20T23:42:33Z</time>
      </trkpt>
      <trkpt lat="50.574898" lon="6.184276">
        <ele>593.300000</ele>
        <time>2009-11-20T23:42:57Z</time>
      </trkpt>
      <trkpt lat="50.574944" lon="6.184584">
        <ele>592.800000</ele>
        <time>2009-11-20T23:43:18Z</time>
      </trkpt>
      <trkpt lat="50.574996" lon="6.184940">
        <ele>594.200000</ele>
        <time>2009-11-20T23:43:42Z</time>
      </trkpt>
      <trkpt lat="50.574892" lon="6.185298">
        <ele>595.200000</ele>
        <time>2009-11-20T23:44:08Z</time>
      </trkpt>
      <trkpt lat="50.574906" lon="6.185591">
        <ele>594.700000</ele>
        <time>2009-11-20T23:44:27Z</time>
      </trkpt>
      <trkpt lat="50.574839" lon="6.185912">
        <ele>594.700000</ele>
        <time>2009-11-20T23:44:49Z</time>
      </trkpt>
      <trkpt lat="50.574625" lon="6.186234">
        <ele>595.200000</ele>
        <time>2009-11-20T23:45:19Z</time>
      </trkpt>
      <trkpt lat="50.574446" lon="6.186554">
        <ele>596.600000</ele>
        <time>2009-11-20T23:45:47Z</time>
      </trkpt>
      <trkpt lat="50.574375" lon="6.186927">
        <ele>596.200000</ele>
        <time>2009-11-20T23:46:13Z</time>
      </trkpt>
      <trkpt lat="50.574246" lon="6.187153">
        <ele>597.100000</ele>
        <time>2009-11-20T23:46:33Z</time>
      </trkpt>
      <trkpt lat="50.574175" lon="6.187480">
        <ele>597.600000</ele>
        <time>2009-11-20T23:46:55Z</time>
      </trkpt>
      <trkpt lat="50.574117" lon="6.187721">
        <ele>598.100000</ele>
        <time>2009-11-20T23:47:12Z</time>
      </trkpt>
      <trkpt lat="50.573976" lon="6.188129">
        <ele>598.600000</ele>
        <time>2009-11-20T23:47:43Z</time>
      </trkpt>
      <trkpt lat="50.573841" lon="6.188550">
        <ele>600.500000</ele>
        <time>2009-11-20T23:48:13Z</time>
      </trkpt>
      <trkpt lat="50.573738" lon="6.188889">
        <ele>600.000000</ele>
        <time>2009-11-20T23:48:38Z</time>
      </trkpt>
      <trkpt lat="50.573625" lon="6.189119">
        <ele>600.500000</ele>
        <time>2009-11-20T23:48:57Z</time>
      </trkpt>
      <trkpt lat="50.573547" lon="6.189404">
        <ele>601.000000</ele>
        <time>2009-11-20T23:49:17Z</time>
      </trkpt>
      <trkpt lat="50.573516" lon="6.189904">
        <ele>602.400000</ele>
        <time>2009-11-20T23:49:50Z</time>
      </trkpt>
      <trkpt lat="50.573511" lon="6.189923">
        <ele>602.400000</ele>
        <time>2009-11-20T23:49:52Z</time>
      </trkpt>
      <trkpt lat="50.573302" lon="6.190171">
        <ele>603.800000</ele>
        <time>2009-11-20T23:50:19Z</time>
      </trkpt>
      <trkpt lat="50.573296" lon="6.190189">
        <ele>603.800000</ele>
        <time>2009-11-20T23:50:20Z</time>
      </trkpt>
      <trkpt lat="50.573300" lon="6.190289">
        <ele>604.300000</ele>
        <time>2009-11-20T23:50:27Z</time>
      </trkpt>
      <trkpt lat="50.573215" lon="6.190364">
        <ele>603.800000</ele>
        <time>2009-11-20T23:50:37Z</time>
      </trkpt>
      <trkpt lat="50.573161" lon="6.190421">
        <ele>604.800000</ele>
        <time>2009-11-20T23:50:43Z</time>
      </trkpt>
      <trkpt lat="50.572967" lon="6.190645">
        <ele>604.800000</ele>
        <time>2009-11-20T23:51:08Z</time>
      </trkpt>
      <trkpt lat="50.572900" lon="6.190871">
        <ele>606.200000</ele>
        <time>2009-11-20T23:51:24Z</time>
      </trkpt>
      <trkpt lat="50.572892" lon="6.191189">
        <ele>605.800000</ele>
        <time>2009-11-20T23:51:45Z</time>
      </trkpt>
      <trkpt lat="50.572745" lon="6.191433">
        <ele>606.200000</ele>
        <time>2009-11-20T23:52:07Z</time>
      </trkpt>
      <trkpt lat="50.572749" lon="6.191513">
        <ele>607.200000</ele>
        <time>2009-11-20T23:52:13Z</time>
      </trkpt>
      <trkpt lat="50.572756" lon="6.191590">
        <ele>607.200000</ele>
        <time>2009-11-20T23:52:18Z</time>
      </trkpt>
      <trkpt lat="50.572653" lon="6.192003">
        <ele>606.700000</ele>
        <time>2009-11-20T23:52:47Z</time>
      </trkpt>
      <trkpt lat="50.572621" lon="6.192097">
        <ele>607.200000</ele>
        <time>2009-11-20T23:52:54Z</time>
      </trkpt>
      <trkpt lat="50.572486" lon="6.192296">
        <ele>607.700000</ele>
        <time>2009-11-20T23:53:13Z</time>
      </trkpt>
      <trkpt lat="50.572302" lon="6.192549">
        <ele>608.700000</ele>
        <time>2009-11-20T23:53:38Z</time>
      </trkpt>
      <trkpt lat="50.572157" lon="6.192879">
        <ele>609.100000</ele>
        <time>2009-11-20T23:54:04Z</time>
      </trkpt>
      <trkpt lat="50.572049" lon="6.193136">
        <ele>610.100000</ele>
        <time>2009-11-20T23:54:24Z</time>
      </trkpt>
      <trkpt lat="50.571895" lon="6.193269">
        <ele>609.600000</ele>
        <time>2009-11-20T23:54:42Z</time>
      </trkpt>
      <trkpt lat="50.571673" lon="6.193488">
        <ele>610.600000</ele>
        <time>2009-11-20T23:55:09Z</time>
      </trkpt>
      <trkpt lat="50.571483" lon="6.193555">
        <ele>611.500000</ele>
        <time>2009-11-20T23:55:29Z</time>
      </trkpt>
      <trkpt lat="50.571214" lon="6.193689">
        <ele>612.500000</ele>
        <time>2009-11-20T23:55:59Z</time>
      </trkpt>
      <trkpt lat="50.571064" lon="6.193795">
        <ele>612.500000</ele>
        <time>2009-11-20T23:56:15Z</time>
      </trkpt>
      <trkpt lat="50.570871" lon="6.193912">
        <ele>614.400000</ele>
        <time>2009-11-20T23:56:37Z</time>
      </trkpt>
      <trkpt lat="50.570781" lon="6.194021">
        <ele>614.900000</ele>
        <time>2009-11-20T23:56:49Z</time>
      </trkpt>
      <trkpt lat="50.570659" lon="6.194209">
        <ele>614.400000</ele>
        <time>2009-11-20T23:57:06Z</time>
      </trkpt>
      <trkpt lat="50.570507" lon="6.194465">
        <ele>614.900000</ele>
        <time>2009-11-20T23:57:29Z</time>
      </trkpt>
      <trkpt lat="50.570496" lon="6.194472">
        <ele>614.900000</ele>
        <time>2009-11-20T23:57:30Z</time>
      </trkpt>
      <trkpt lat="50.570294" lon="6.194335">
        <ele>614.400000</ele>
        <time>2009-11-20T23:57:53Z</time>
      </trkpt>
      <trkpt lat="50.570079" lon="6.194160">
        <ele>614.900000</ele>
        <time>2009-11-20T23:58:18Z</time>
      </trkpt>
      <trkpt lat="50.570064" lon="6.194155">
        <ele>614.400000</ele>
        <time>2009-11-20T23:58:19Z</time>
      </trkpt>
      <trkpt lat="50.569931" lon="6.194252">
        <ele>616.300000</ele>
        <time>2009-11-20T23:58:35Z</time>
      </trkpt>
      <trkpt lat="50.569909" lon="6.194284">
        <ele>615.900000</ele>
        <time>2009-11-20T23:58:38Z</time>
      </trkpt>
      <trkpt lat="50.569830" lon="6.194579">
        <ele>616.800000</ele>
        <time>2009-11-20T23:58:59Z</time>
      </trkpt>
      <trkpt lat="50.569704" lon="6.194853">
        <ele>617.300000</ele>
        <time>2009-11-20T23:59:21Z</time>
      </trkpt>
      <trkpt lat="50.569573" lon="6.195025">
        <ele>617.800000</ele>
        <time>2009-11-20T23:59:38Z</time>
      </trkpt>
      <trkpt lat="50.569490" lon="6.195050">
        <ele>618.300000</ele>
        <time>2009-11-20T23:59:47Z</time>
      </trkpt>
      <trkpt lat="50.569362" lon="6.194839">
        <ele>616.300000</ele>
        <time>2009-11-21T00:00:06Z</time>
      </trkpt>
      <trkpt lat="50.569242" lon="6.194697">
        <ele>616.300000</ele>
        <time>2009-11-21T00:00:22Z</time>
      </trkpt>
      <trkpt lat="50.569186" lon="6.194580">
        <ele>617.300000</ele>
        <time>2009-11-21T00:00:31Z</time>
      </trkpt>
      <trkpt lat="50.569093" lon="6.194372">
        <ele>617.300000</ele>
        <time>2009-11-21T00:00:48Z</time>
      </trkpt>
      <trkpt lat="50.568952" lon="6.194149">
        <ele>617.800000</ele>
        <time>2009-11-21T00:01:09Z</time>
      </trkpt>
      <trkpt lat="50.568802" lon="6.193928">
        <ele>618.300000</ele>
        <time>2009-11-21T00:01:30Z</time>
      </trkpt>
      <trkpt lat="50.568670" lon="6.193732">
        <ele>618.700000</ele>
        <time>2009-11-21T00:01:48Z</time>
      </trkpt>
      <trkpt lat="50.568541" lon="6.193481">
        <ele>618.700000</ele>
        <time>2009-11-21T00:02:10Z</time>
      </trkpt>
      <trkpt lat="50.568364" lon="6.193212">
        <ele>619.200000</ele>
        <time>2009-11-21T00:02:35Z</time>
      </trkpt>
      <trkpt lat="50.568164" lon="6.193083">
        <ele>620.200000</ele>
        <time>2009-11-21T00:02:57Z</time>
      </trkpt>
      <trkpt lat="50.567902" lon="6.193103">
        <ele>621.100000</ele>
        <time>2009-11-21T00:03:24Z</time>
      </trkpt>
      <trkpt lat="50.567602" lon="6.193113">
        <ele>620.700000</ele>
        <time>2009-11-21T00:03:55Z</time>
      </trkpt>
      <trkpt lat="50.567390" lon="6.193124">
        <ele>620.700000</ele>
        <time>2009-11-21T00:04:17Z</time>
      </trkpt>
      <trkpt lat="50.567273" lon="6.193088">
        <ele>621.100000</ele>
        <time>2009-11-21T00:04:29Z</time>
      </trkpt>
      <trkpt lat="50.567163" lon="6.192888">
        <ele>620.200000</ele>
        <time>2009-11-21T00:04:47Z</time>
      </trkpt>
      <trkpt lat="50.567189" lon="6.192632">
        <ele>619.700000</ele>
        <time>2009-11-21T00:05:04Z</time>
      </trkpt>
      <trkpt lat="50.567189" lon="6.192515">
        <ele>620.700000</ele>
        <time>2009-11-21T00:05:11Z</time>
      </trkpt>
      <trkpt lat="50.567180" lon="6.192446">
        <ele>620.700000</ele>
        <time>2009-11-21T00:05:16Z</time>
      </trkpt>
      <trkpt lat="50.567182" lon="6.192364">
        <ele>621.600000</ele>
        <time>2009-11-21T00:05:21Z</time>
      </trkpt>
      <trkpt lat="50.567072" lon="6.192108">
        <ele>620.700000</ele>
        <time>2009-11-21T00:05:42Z</time>
      </trkpt>
      <trkpt lat="50.567059" lon="6.191898">
        <ele>620.200000</ele>
        <time>2009-11-21T00:05:55Z</time>
      </trkpt>
      <trkpt lat="50.567078" lon="6.191646">
        <ele>620.200000</ele>
        <time>2009-11-21T00:06:12Z</time>
      </trkpt>
      <trkpt lat="50.567162" lon="6.191470">
        <ele>620.200000</ele>
        <time>2009-11-21T00:06:26Z</time>
      </trkpt>
      <trkpt lat="50.567218" lon="6.191382">
        <ele>620.200000</ele>
        <time>2009-11-21T00:06:34Z</time>
      </trkpt>
      <trkpt lat="50.567210" lon="6.191320">
        <ele>620.200000</ele>
        <time>2009-11-21T00:06:39Z</time>
      </trkpt>
      <trkpt lat="50.567106" lon="6.191080">
        <ele>620.700000</ele>
        <time>2009-11-21T00:06:58Z</time>
      </trkpt>
      <trkpt lat="50.567011" lon="6.190902">
        <ele>622.100000</ele>
        <time>2009-11-21T00:07:13Z</time>
      </trkpt>
      <trkpt lat="50.566898" lon="6.190720">
        <ele>621.600000</ele>
        <time>2009-11-21T00:07:30Z</time>
      </trkpt>
      <trkpt lat="50.566799" lon="6.190560">
        <ele>622.100000</ele>
        <time>2009-11-21T00:07:44Z</time>
      </trkpt>
      <trkpt lat="50.566749" lon="6.190361">
        <ele>621.100000</ele>
        <time>2009-11-21T00:07:58Z</time>
      </trkpt>
      <trkpt lat="50.566730" lon="6.190195">
        <ele>621.100000</ele>
        <time>2009-11-21T00:08:09Z</time>
      </trkpt>
      <trkpt lat="50.566795" lon="6.189890">
        <ele>620.200000</ele>
        <time>2009-11-21T00:08:30Z</time>
      </trkpt>
      <trkpt lat="50.566802" lon="6.189845">
        <ele>621.100000</ele>
        <time>2009-11-21T00:08:33Z</time>
      </trkpt>
      <trkpt lat="50.566816" lon="6.189517">
        <ele>621.100000</ele>
        <time>2009-11-21T00:08:55Z</time>
      </trkpt>
      <trkpt lat="50.566805" lon="6.189238">
        <ele>621.600000</ele>
        <time>2009-11-21T00:09:13Z</time>
      </trkpt>
      <trkpt lat="50.566813" lon="6.189008">
        <ele>621.600000</ele>
        <time>2009-11-21T00:09:28Z</time>
      </trkpt>
      <trkpt lat="50.566796" lon="6.188847">
        <ele>622.600000</ele>
        <time>2009-11-21T00:09:39Z</time>
      </trkpt>
      <trkpt lat="50.566801" lon="6.188778">
        <ele>622.600000</ele>
        <time>2009-11-21T00:09:43Z</time>
      </trkpt>
      <trkpt lat="50.566769" lon="6.188573">
        <ele>623.100000</ele>
        <time>2009-11-21T00:09:57Z</time>
      </trkpt>
      <trkpt lat="50.566776" lon="6.188517">
        <ele>624.000000</ele>
        <time>2009-11-21T00:10:01Z</time>
      </trkpt>
      <trkpt lat="50.566770" lon="6.188338">
        <ele>623.600000</ele>
        <time>2009-11-21T00:10:13Z</time>
      </trkpt>
      <trkpt lat="50.566743" lon="6.188172">
        <ele>623.100000</ele>
        <time>2009-11-21T00:10:24Z</time>
      </trkpt>
      <trkpt lat="50.566589" lon="6.188047">
        <ele>623.600000</ele>
        <time>2009-11-21T00:10:42Z</time>
      </trkpt>
      <trkpt lat="50.566431" lon="6.188006">
        <ele>624.000000</ele>
        <time>2009-11-21T00:10:58Z</time>
      </trkpt>
      <trkpt lat="50.566302" lon="6.188028">
        <ele>625.500000</ele>
        <time>2009-11-21T00:11:12Z</time>
      </trkpt>
      <trkpt lat="50.566084" lon="6.187899">
        <ele>625.500000</ele>
        <time>2009-11-21T00:11:36Z</time>
      </trkpt>
      <trkpt lat="50.566065" lon="6.187788">
        <ele>625.500000</ele>
        <time>2009-11-21T00:11:43Z</time>
      </trkpt>
      <trkpt lat="50.566110" lon="6.187678">
        <ele>625.500000</ele>
        <time>2009-11-21T00:11:52Z</time>
      </trkpt>
      <trkpt lat="50.566122" lon="6.187641">
        <ele>626.000000</ele>
        <time>2009-11-21T00:11:54Z</time>
      </trkpt>
      <trkpt lat="50.566181" lon="6.187572">
        <ele>625.500000</ele>
        <time>2009-11-21T00:12:02Z</time>
      </trkpt>
      <trkpt lat="50.566196" lon="6.187525">
        <ele>625.000000</ele>
        <time>2009-11-21T00:12:05Z</time>
      </trkpt>
      <trkpt lat="50.566255" lon="6.187376">
        <ele>625.000000</ele>
        <time>2009-11-21T00:12:17Z</time>
      </trkpt>
      <trkpt lat="50.566308" lon="6.187231">
        <ele>624.500000</ele>
        <time>2009-11-21T00:12:28Z</time>
      </trkpt>
      <trkpt lat="50.566357" lon="6.187134">
        <ele>625.000000</ele>
        <time>2009-11-21T00:12:36Z</time>
      </trkpt>
      <trkpt lat="50.566353" lon="6.186868">
        <ele>625.000000</ele>
        <time>2009-11-21T00:12:54Z</time>
      </trkpt>
      <trkpt lat="50.566380" lon="6.186792">
        <ele>624.000000</ele>
        <time>2009-11-21T00:12:59Z</time>
      </trkpt>
      <trkpt lat="50.566418" lon="6.186679">
        <ele>623.600000</ele>
        <time>2009-11-21T00:13:08Z</time>
      </trkpt>
      <trkpt lat="50.566456" lon="6.186394">
        <ele>623.600000</ele>
        <time>2009-11-21T00:13:27Z</time>
      </trkpt>
      <trkpt lat="50.566464" lon="6.186309">
        <ele>623.100000</ele>
        <time>2009-11-21T00:13:32Z</time>
      </trkpt>
      <trkpt lat="50.566459" lon="6.186250">
        <ele>623.600000</ele>
        <time>2009-11-21T00:13:36Z</time>
      </trkpt>
      <trkpt lat="50.566508" lon="6.185926">
        <ele>623.100000</ele>
        <time>2009-11-21T00:13:58Z</time>
      </trkpt>
      <trkpt lat="50.566533" lon="6.185638">
        <ele>622.600000</ele>
        <time>2009-11-21T00:14:17Z</time>
      </trkpt>
      <trkpt lat="50.566591" lon="6.185357">
        <ele>621.100000</ele>
        <time>2009-11-21T00:14:36Z</time>
      </trkpt>
      <trkpt lat="50.566650" lon="6.185124">
        <ele>621.100000</ele>
        <time>2009-11-21T00:14:53Z</time>
      </trkpt>
      <trkpt lat="50.566713" lon="6.184738">
        <ele>620.700000</ele>
        <time>2009-11-21T00:15:19Z</time>
      </trkpt>
      <trkpt lat="50.566617" lon="6.184599">
        <ele>620.200000</ele>
        <time>2009-11-21T00:15:32Z</time>
      </trkpt>
      <trkpt lat="50.566655" lon="6.184328">
        <ele>619.700000</ele>
        <time>2009-11-21T00:15:51Z</time>
      </trkpt>
      <trkpt lat="50.566615" lon="6.184273">
        <ele>618.300000</ele>
        <time>2009-11-21T00:15:56Z</time>
      </trkpt>
      <trkpt lat="50.566617" lon="6.184242">
        <ele>618.700000</ele>
        <time>2009-11-21T00:15:58Z</time>
      </trkpt>
      <trkpt lat="50.566661" lon="6.184096">
        <ele>618.300000</ele>
        <time>2009-11-21T00:16:09Z</time>
      </trkpt>
      <trkpt lat="50.566715" lon="6.183955">
        <ele>617.800000</ele>
        <time>2009-11-21T00:16:19Z</time>
      </trkpt>
      <trkpt lat="50.566739" lon="6.183824">
        <ele>617.300000</ele>
        <time>2009-11-21T00:16:28Z</time>
      </trkpt>
      <trkpt lat="50.566719" lon="6.183696">
        <ele>616.800000</ele>
        <time>2009-11-21T00:16:37Z</time>
      </trkpt>
      <trkpt lat="50.566751" lon="6.183560">
        <ele>616.800000</ele>
        <time>2009-11-21T00:16:46Z</time>
      </trkpt>
      <trkpt lat="50.566774" lon="6.183387">
        <ele>616.800000</ele>
        <time>2009-11-21T00:16:58Z</time>
      </trkpt>
      <trkpt lat="50.566794" lon="6.183234">
        <ele>616.300000</ele>
        <time>2009-11-21T00:17:08Z</time>
      </trkpt>
      <trkpt lat="50.566860" lon="6.183038">
        <ele>616.300000</ele>
        <time>2009-11-21T00:17:23Z</time>
      </trkpt>
      <trkpt lat="50.566877" lon="6.182982">
        <ele>616.800000</ele>
        <time>2009-11-21T00:17:27Z</time>
      </trkpt>
      <trkpt lat="50.566880" lon="6.182936">
        <ele>616.800000</ele>
        <time>2009-11-21T00:17:30Z</time>
      </trkpt>
      <trkpt lat="50.566898" lon="6.182890">
        <ele>616.800000</ele>
        <time>2009-11-21T00:17:33Z</time>
      </trkpt>
      <trkpt lat="50.566930" lon="6.182678">
        <ele>615.900000</ele>
        <time>2009-11-21T00:17:48Z</time>
      </trkpt>
      <trkpt lat="50.566976" lon="6.182531">
        <ele>615.900000</ele>
        <time>2009-11-21T00:17:58Z</time>
      </trkpt>
      <trkpt lat="50.567000" lon="6.182511">
        <ele>616.300000</ele>
        <time>2009-11-21T00:18:01Z</time>
      </trkpt>
      <trkpt lat="50.567067" lon="6.182258">
        <ele>615.900000</ele>
        <time>2009-11-21T00:18:19Z</time>
      </trkpt>
      <trkpt lat="50.567148" lon="6.181881">
        <ele>615.900000</ele>
        <time>2009-11-21T00:18:45Z</time>
      </trkpt>
      <trkpt lat="50.567169" lon="6.181824">
        <ele>615.400000</ele>
        <time>2009-11-21T00:18:49Z</time>
      </trkpt>
      <trkpt lat="50.567253" lon="6.181636">
        <ele>613.900000</ele>
        <time>2009-11-21T00:19:05Z</time>
      </trkpt>
      <trkpt lat="50.567297" lon="6.181567">
        <ele>613.900000</ele>
        <time>2009-11-21T00:19:11Z</time>
      </trkpt>
      <trkpt lat="50.567333" lon="6.181474">
        <ele>613.500000</ele>
        <time>2009-11-21T00:19:18Z</time>
      </trkpt>
      <trkpt lat="50.567360" lon="6.181291">
        <ele>613.900000</ele>
        <time>2009-11-21T00:19:30Z</time>
      </trkpt>
      <trkpt lat="50.567418" lon="6.181126">
        <ele>613.900000</ele>
        <time>2009-11-21T00:19:43Z</time>
      </trkpt>
      <trkpt lat="50.567424" lon="6.181110">
        <ele>613.900000</ele>
        <time>2009-11-21T00:19:44Z</time>
      </trkpt>
      <trkpt lat="50.567491" lon="6.180805">
        <ele>613.500000</ele>
        <time>2009-11-21T00:20:05Z</time>
      </trkpt>
      <trkpt lat="50.567539" lon="6.180648">
        <ele>613.500000</ele>
        <time>2009-11-21T00:20:17Z</time>
      </trkpt>
      <trkpt lat="50.567651" lon="6.180421">
        <ele>612.500000</ele>
        <time>2009-11-21T00:20:35Z</time>
      </trkpt>
      <trkpt lat="50.567677" lon="6.180415">
        <ele>613.000000</ele>
        <time>2009-11-21T00:20:38Z</time>
      </trkpt>
      <trkpt lat="50.567746" lon="6.180444">
        <ele>613.000000</ele>
        <time>2009-11-21T00:20:45Z</time>
      </trkpt>
      <trkpt lat="50.568015" lon="6.180509">
        <ele>612.000000</ele>
        <time>2009-11-21T00:21:13Z</time>
      </trkpt>
      <trkpt lat="50.568024" lon="6.180514">
        <ele>612.500000</ele>
        <time>2009-11-21T00:21:14Z</time>
      </trkpt>
      <trkpt lat="50.568127" lon="6.180711">
        <ele>612.000000</ele>
        <time>2009-11-21T00:21:31Z</time>
      </trkpt>
      <trkpt lat="50.568237" lon="6.180905">
        <ele>610.600000</ele>
        <time>2009-11-21T00:21:48Z</time>
      </trkpt>
      <trkpt lat="50.568313" lon="6.180906">
        <ele>610.100000</ele>
        <time>2009-11-21T00:21:56Z</time>
      </trkpt>
      <trkpt lat="50.568345" lon="6.180895">
        <ele>610.100000</ele>
        <time>2009-11-21T00:21:59Z</time>
      </trkpt>
      <trkpt lat="50.568363" lon="6.180862">
        <ele>609.100000</ele>
        <time>2009-11-21T00:22:02Z</time>
      </trkpt>
      <trkpt lat="50.568291" lon="6.180840">
        <ele>609.100000</ele>
        <time>2009-11-21T00:22:10Z</time>
      </trkpt>
      <trkpt lat="50.568248" lon="6.180825">
        <ele>609.600000</ele>
        <time>2009-11-21T00:22:14Z</time>
      </trkpt>
      <trkpt lat="50.568378" lon="6.180850">
        <ele>609.600000</ele>
        <time>2009-11-21T00:22:28Z</time>
      </trkpt>
      <trkpt lat="50.568388" lon="6.180871">
        <ele>609.100000</ele>
        <time>2009-11-21T00:22:30Z</time>
      </trkpt>
      <trkpt lat="50.568402" lon="6.180859">
        <ele>609.600000</ele>
        <time>2009-11-21T00:22:31Z</time>
      </trkpt>
      <trkpt lat="50.568392" lon="6.180869">
        <ele>609.100000</ele>
        <time>2009-11-21T00:22:32Z</time>
      </trkpt>
      <trkpt lat="50.568365" lon="6.180846">
        <ele>610.100000</ele>
        <time>2009-11-21T00:22:36Z</time>
      </trkpt>
      <trkpt lat="50.568362" lon="6.180846">
        <ele>613.500000</ele>
        <time>2009-11-21T00:22:36Z</time>
      </trkpt>
      <trkpt lat="50.568358" lon="6.180846">
        <ele>610.600000</ele>
        <time>2009-11-21T00:22:36Z</time>
      </trkpt>
      <trkpt lat="50.568348" lon="6.180829">
        <ele>609.100000</ele>
        <time>2009-11-21T00:22:38Z</time>
      </trkpt>
    </trkseg>
  </trk>

</gpx>
